<?xml version='1.0' encoding='UTF-8'?><gpx version="1.1" creator="JPX - https://github.com/jenetics/jpx" xmlns="http://www.topografix.com/GPX/1/1"><trk><trkseg><trkpt lat="44.69206366022138" lon="10.082851517249942"><ele>167.0</ele><time>2026-05-02T12:05:34.004Z</time></trkpt><trkpt lat="44.69190522345327" lon="10.082872559162036"><ele>167.0</ele><time>2026-05-02T12:05:35.004Z</time></trkpt><trkpt lat="44.6918439366423" lon="10.082850873752376"><ele>167.0</ele><time>2026-05-02T12:06:08Z</time></trkpt><trkpt lat="44.69196233533524" lon="10.082853846979905"><ele>167.0</ele><time>2026-05-02T12:06:25Z</time></trkpt><trkpt lat="44.69193942514508" lon="10.082745324834116"><ele>167.0</ele><time>2026-05-02T12:10:01Z</time></trkpt><trkpt lat="44.6920309534137" lon="10.082627670779022"><ele>167.0</ele><time>2026-05-02T12:10:27Z</time></trkpt><trkpt lat="44.69209075684652" lon="10.08255935627608"><ele>167.0</ele><time>2026-05-02T12:10:29Z</time></trkpt><trkpt lat="44.69218690306373" lon="10.08253662213647"><ele>167.0</ele><time>2026-05-02T12:10:32Z</time></trkpt><trkpt lat="44.69226473996093" lon="10.082642203687556"><ele>167.0</ele><time>2026-05-02T12:10:34Z</time></trkpt><trkpt lat="44.69231651304089" lon="10.082714410631342"><ele>167.0</ele><time>2026-05-02T12:10:35Z</time></trkpt><trkpt lat="44.69236929189354" lon="10.082779707835757"><ele>167.0</ele><time>2026-05-02T12:10:36Z</time></trkpt><trkpt lat="44.692424804177485" lon="10.082827402182641"><ele>167.0</ele><time>2026-05-02T12:10:37Z</time></trkpt><trkpt lat="44.69253959604012" lon="10.082906410609171"><ele>167.0</ele><time>2026-05-02T12:10:39Z</time></trkpt><trkpt lat="44.6926005837646" lon="10.082949229904653"><ele>167.0</ele><time>2026-05-02T12:10:40Z</time></trkpt><trkpt lat="44.692666219528554" lon="10.082993595907919"><ele>167.0</ele><time>2026-05-02T12:10:41Z</time></trkpt><trkpt lat="44.692732861906265" lon="10.083039819410837"><ele>167.0</ele><time>2026-05-02T12:10:42Z</time></trkpt><trkpt lat="44.692793137145316" lon="10.083084289855238"><ele>167.0</ele><time>2026-05-02T12:10:43Z</time></trkpt><trkpt lat="44.6928550904794" lon="10.083132341491806"><ele>167.2</ele><time>2026-05-02T12:10:44Z</time></trkpt><trkpt lat="44.6929207744755" lon="10.083210410819346"><ele>167.39999999999998</ele><time>2026-05-02T12:10:45Z</time></trkpt><trkpt lat="44.69298043438614" lon="10.083343874848419"><ele>167.60000000000002</ele><time>2026-05-02T12:10:46Z</time></trkpt><trkpt lat="44.6930087288932" lon="10.083486044618382"><ele>167.8</ele><time>2026-05-02T12:10:47Z</time></trkpt><trkpt lat="44.69304463277333" lon="10.083586181241849"><ele>168.0</ele><time>2026-05-02T12:10:48Z</time></trkpt><trkpt lat="44.69305325089946" lon="10.083687553491666"><ele>167.0</ele><time>2026-05-02T12:10:49Z</time></trkpt><trkpt lat="44.693056174581585" lon="10.083781890875509"><ele>166.0</ele><time>2026-05-02T12:10:50Z</time></trkpt><trkpt lat="44.693056382215865" lon="10.083901146421931"><ele>165.0</ele><time>2026-05-02T12:10:51Z</time></trkpt><trkpt lat="44.69305791867128" lon="10.084057267847818"><ele>164.0</ele><time>2026-05-02T12:10:52Z</time></trkpt><trkpt lat="44.693064589129946" lon="10.084197824754215"><ele>163.0</ele><time>2026-05-02T12:10:53Z</time></trkpt><trkpt lat="44.69307047400061" lon="10.084306085243616"><ele>162.0</ele><time>2026-05-02T12:10:54Z</time></trkpt><trkpt lat="44.693073585154636" lon="10.084394620290059"><ele>160.79999999999998</ele><time>2026-05-02T12:10:55Z</time></trkpt><trkpt lat="44.69307308985464" lon="10.084483679491674"><ele>159.6</ele><time>2026-05-02T12:10:56Z</time></trkpt><trkpt lat="44.69307811801285" lon="10.084625351708754"><ele>158.39999999999998</ele><time>2026-05-02T12:10:58Z</time></trkpt><trkpt lat="44.6930839071762" lon="10.084747631529208"><ele>157.2</ele><time>2026-05-02T12:11:02Z</time></trkpt><trkpt lat="44.693087773500125" lon="10.084867708901244"><ele>156.0</ele><time>2026-05-02T12:11:04Z</time></trkpt><trkpt lat="44.693239883941324" lon="10.084919054299434"><ele>155.5</ele><time>2026-05-02T12:11:05Z</time></trkpt><trkpt lat="44.69332885332671" lon="10.084951633449526"><ele>155.0</ele><time>2026-05-02T12:11:06Z</time></trkpt><trkpt lat="44.69341549506174" lon="10.084985669174065"><ele>154.5</ele><time>2026-05-02T12:11:07Z</time></trkpt><trkpt lat="44.693500737666206" lon="10.085014254709666"><ele>154.0</ele><time>2026-05-02T12:11:08Z</time></trkpt><trkpt lat="44.69358251041528" lon="10.085047556531045"><ele>153.5</ele><time>2026-05-02T12:11:09Z</time></trkpt><trkpt lat="44.693658942916024" lon="10.085079107870998"><ele>153.0</ele><time>2026-05-02T12:11:10Z</time></trkpt><trkpt lat="44.69372999283267" lon="10.085111204615137"><ele>153.0</ele><time>2026-05-02T12:11:11Z</time></trkpt><trkpt lat="44.69379953358822" lon="10.085142411964435"><ele>153.0</ele><time>2026-05-02T12:11:12Z</time></trkpt><trkpt lat="44.69387682548206" lon="10.08518120435354"><ele>153.0</ele><time>2026-05-02T12:11:13Z</time></trkpt><trkpt lat="44.69395474957674" lon="10.085209689982898"><ele>153.0</ele><time>2026-05-02T12:11:14Z</time></trkpt><trkpt lat="44.69403596568946" lon="10.085242190684879"><ele>153.0</ele><time>2026-05-02T12:11:15Z</time></trkpt><trkpt lat="44.69412333693227" lon="10.085280348938893"><ele>153.0</ele><time>2026-05-02T12:11:16Z</time></trkpt><trkpt lat="44.69420735210345" lon="10.08531711421249"><ele>153.0</ele><time>2026-05-02T12:11:17Z</time></trkpt><trkpt lat="44.69428267384663" lon="10.085344533984118"><ele>153.0</ele><time>2026-05-02T12:11:18Z</time></trkpt><trkpt lat="44.69435009586646" lon="10.085370900360981"><ele>153.0</ele><time>2026-05-02T12:11:19Z</time></trkpt><trkpt lat="44.694417331394845" lon="10.085395734622699"><ele>153.0</ele><time>2026-05-02T12:11:20Z</time></trkpt><trkpt lat="44.694483999031135" lon="10.085421587773672"><ele>153.0</ele><time>2026-05-02T12:11:21Z</time></trkpt><trkpt lat="44.69454389750074" lon="10.085451471142651"><ele>153.0</ele><time>2026-05-02T12:11:22Z</time></trkpt><trkpt lat="44.69464965738698" lon="10.08552689871651"><ele>153.8</ele><time>2026-05-02T12:11:24Z</time></trkpt><trkpt lat="44.694726942634276" lon="10.085559198214439"><ele>154.60000000000002</ele><time>2026-05-02T12:11:26Z</time></trkpt><trkpt lat="44.69481583097635" lon="10.085589086732666"><ele>155.39999999999998</ele><time>2026-05-02T12:11:30Z</time></trkpt><trkpt lat="44.69490053580309" lon="10.085633406239367"><ele>156.2</ele><time>2026-05-02T12:11:32Z</time></trkpt><trkpt lat="44.69497762255952" lon="10.085512671211063"><ele>157.0</ele><time>2026-05-02T12:11:33Z</time></trkpt><trkpt lat="44.695023041908186" lon="10.08542062387197"><ele>157.0</ele><time>2026-05-02T12:11:34Z</time></trkpt><trkpt lat="44.69506120582853" lon="10.085324061689859"><ele>157.0</ele><time>2026-05-02T12:11:35Z</time></trkpt><trkpt lat="44.69511724621196" lon="10.08522542448964"><ele>157.0</ele><time>2026-05-02T12:11:36Z</time></trkpt><trkpt lat="44.695169972000876" lon="10.085131758485842"><ele>157.0</ele><time>2026-05-02T12:11:37Z</time></trkpt><trkpt lat="44.69522837239317" lon="10.085036727003295"><ele>157.0</ele><time>2026-05-02T12:11:38Z</time></trkpt><trkpt lat="44.69528397179205" lon="10.084947420840487"><ele>157.0</ele><time>2026-05-02T12:11:39Z</time></trkpt><trkpt lat="44.695342636152546" lon="10.084862527020569"><ele>159.16666666666669</ele><time>2026-05-02T12:11:40Z</time></trkpt><trkpt lat="44.695395047581954" lon="10.084781016458795"><ele>161.33333333333334</ele><time>2026-05-02T12:11:41Z</time></trkpt><trkpt lat="44.69545190197928" lon="10.084696569656284"><ele>163.5</ele><time>2026-05-02T12:11:42Z</time></trkpt><trkpt lat="44.695509599855384" lon="10.0846192348451"><ele>165.66666666666666</ele><time>2026-05-02T12:11:43Z</time></trkpt><trkpt lat="44.6955737975001" lon="10.084562958600683"><ele>167.83333333333331</ele><time>2026-05-02T12:11:44Z</time></trkpt><trkpt lat="44.69565062825907" lon="10.084503620171189"><ele>170.0</ele><time>2026-05-02T12:11:45Z</time></trkpt><trkpt lat="44.69573267626251" lon="10.084443367010277"><ele>170.0</ele><time>2026-05-02T12:11:46Z</time></trkpt><trkpt lat="44.69581377302797" lon="10.084373804787477"><ele>170.0</ele><time>2026-05-02T12:11:47Z</time></trkpt><trkpt lat="44.6958907736441" lon="10.084285156287134"><ele>170.0</ele><time>2026-05-02T12:11:48Z</time></trkpt><trkpt lat="44.69595601071475" lon="10.084175631570792"><ele>170.0</ele><time>2026-05-02T12:11:49Z</time></trkpt><trkpt lat="44.696036440529625" lon="10.084070455359543"><ele>170.0</ele><time>2026-05-02T12:11:49.998Z</time></trkpt><trkpt lat="44.69609801720992" lon="10.083952726574259"><ele>171.25</ele><time>2026-05-02T12:11:50.998Z</time></trkpt><trkpt lat="44.69615557878863" lon="10.08381282191153"><ele>172.5</ele><time>2026-05-02T12:11:51.998Z</time></trkpt><trkpt lat="44.69625776862666" lon="10.083709798766607"><ele>173.75</ele><time>2026-05-02T12:11:52.998Z</time></trkpt><trkpt lat="44.69635568842365" lon="10.083593178225621"><ele>175.0</ele><time>2026-05-02T12:11:53.998Z</time></trkpt><trkpt lat="44.69644801331112" lon="10.083479757236379"><ele>175.0</ele><time>2026-05-02T12:11:54.998Z</time></trkpt><trkpt lat="44.696536009884205" lon="10.083356115534453"><ele>175.0</ele><time>2026-05-02T12:11:55.998Z</time></trkpt><trkpt lat="44.69660712275443" lon="10.08322172878175"><ele>175.0</ele><time>2026-05-02T12:11:56.998Z</time></trkpt><trkpt lat="44.69666033225279" lon="10.08306675022364"><ele>175.0</ele><time>2026-05-02T12:11:57.999Z</time></trkpt><trkpt lat="44.696727362133714" lon="10.082924667614448"><ele>177.0</ele><time>2026-05-02T12:11:58.999Z</time></trkpt><trkpt lat="44.69679678875863" lon="10.082779445963276"><ele>179.0</ele><time>2026-05-02T12:11:59.999Z</time></trkpt><trkpt lat="44.69685384799229" lon="10.082633952532165"><ele>181.0</ele><time>2026-05-02T12:12:00.999Z</time></trkpt><trkpt lat="44.696916633120594" lon="10.082500625053552"><ele>183.0</ele><time>2026-05-02T12:12:01.999Z</time></trkpt><trkpt lat="44.69698346269831" lon="10.082356425553506"><ele>187.0</ele><time>2026-05-02T12:12:02.999Z</time></trkpt><trkpt lat="44.69704346688507" lon="10.082223914796824"><ele>191.0</ele><time>2026-05-02T12:12:03.999Z</time></trkpt><trkpt lat="44.697097623010265" lon="10.082101345701869"><ele>195.0</ele><time>2026-05-02T12:12:04.999Z</time></trkpt><trkpt lat="44.69713806871618" lon="10.082002180536215"><ele>199.0</ele><time>2026-05-02T12:12:05.999Z</time></trkpt><trkpt lat="44.69716597604978" lon="10.08190160265901"><ele>203.0</ele><time>2026-05-02T12:12:07.999Z</time></trkpt><trkpt lat="44.69716915056553" lon="10.081769301721787"><ele>203.0</ele><time>2026-05-02T12:12:09.999Z</time></trkpt><trkpt lat="44.697175780378615" lon="10.081637086788824"><ele>203.0</ele><time>2026-05-02T12:12:11.999Z</time></trkpt><trkpt lat="44.697186674805124" lon="10.081493810014605"><ele>203.0</ele><time>2026-05-02T12:12:13.999Z</time></trkpt><trkpt lat="44.6971979456426" lon="10.081345581900552"><ele>203.0</ele><time>2026-05-02T12:12:15.999Z</time></trkpt><trkpt lat="44.69720618578667" lon="10.081237211981607"><ele>203.0</ele><time>2026-05-02T12:12:17.999Z</time></trkpt><trkpt lat="44.69723990109106" lon="10.081136331229"><ele>207.0</ele><time>2026-05-02T12:12:19.999Z</time></trkpt><trkpt lat="44.69753552785025" lon="10.081130780715094"><ele>211.0</ele><time>2026-05-02T12:12:20.999Z</time></trkpt><trkpt lat="44.69764099115774" lon="10.081041714394038"><ele>215.0</ele><time>2026-05-02T12:12:22.999Z</time></trkpt><trkpt lat="44.69772503433845" lon="10.08093379911543"><ele>218.0</ele><time>2026-05-02T12:12:24.999Z</time></trkpt><trkpt lat="44.69779571899041" lon="10.080840275119398"><ele>221.0</ele><time>2026-05-02T12:12:26.999Z</time></trkpt><trkpt lat="44.69789148116979" lon="10.080764284111824"><ele>224.0</ele><time>2026-05-02T12:12:28.999Z</time></trkpt><trkpt lat="44.697987651611385" lon="10.080662438323323"><ele>227.0</ele><time>2026-05-02T12:12:30.999Z</time></trkpt><trkpt lat="44.69807748867273" lon="10.080538094946172"><ele>229.00000000000003</ele><time>2026-05-02T12:12:33Z</time></trkpt><trkpt lat="44.69811441025029" lon="10.080454223987076"><ele>231.0</ele><time>2026-05-02T12:12:34Z</time></trkpt><trkpt lat="44.69814546037176" lon="10.0803644734112"><ele>233.0</ele><time>2026-05-02T12:12:35Z</time></trkpt><trkpt lat="44.69818119490161" lon="10.08028802857809"><ele>235.0</ele><time>2026-05-02T12:12:36Z</time></trkpt><trkpt lat="44.69828827268932" lon="10.080197471561375"><ele>237.00000000000003</ele><time>2026-05-02T12:12:38Z</time></trkpt><trkpt lat="44.69837321157207" lon="10.080084671798447"><ele>239.0</ele><time>2026-05-02T12:12:40Z</time></trkpt><trkpt lat="44.69843904570188" lon="10.079939433665006"><ele>240.0</ele><time>2026-05-02T12:12:42Z</time></trkpt><trkpt lat="44.698534649801566" lon="10.079870934560192"><ele>240.99999999999997</ele><time>2026-05-02T12:12:44Z</time></trkpt><trkpt lat="44.69858324461993" lon="10.07971069380428"><ele>241.99999999999997</ele><time>2026-05-02T12:12:46Z</time></trkpt><trkpt lat="44.69861240552024" lon="10.079629531097495"><ele>243.0</ele><time>2026-05-02T12:12:47Z</time></trkpt><trkpt lat="44.698695739782245" lon="10.079494564501184"><ele>244.0</ele><time>2026-05-02T12:12:49Z</time></trkpt><trkpt lat="44.698791954167945" lon="10.07941931962543"><ele>245.66666666666666</ele><time>2026-05-02T12:12:51Z</time></trkpt><trkpt lat="44.69888740506283" lon="10.07935061065681"><ele>247.33333333333331</ele><time>2026-05-02T12:12:53Z</time></trkpt><trkpt lat="44.69894391982893" lon="10.079292366771451"><ele>249.0</ele><time>2026-05-02T12:12:54Z</time></trkpt><trkpt lat="44.69898711253511" lon="10.079217116869545"><ele>250.66666666666669</ele><time>2026-05-02T12:12:55Z</time></trkpt><trkpt lat="44.69902359688625" lon="10.07911766282477"><ele>252.33333333333334</ele><time>2026-05-02T12:12:56Z</time></trkpt><trkpt lat="44.69905864158154" lon="10.079017969297018"><ele>254.0</ele><time>2026-05-02T12:12:57Z</time></trkpt><trkpt lat="44.6991077210134" lon="10.07892833322744"><ele>255.66666666666669</ele><time>2026-05-02T12:12:58Z</time></trkpt><trkpt lat="44.69915998028542" lon="10.078841532183379"><ele>257.33333333333337</ele><time>2026-05-02T12:12:59Z</time></trkpt><trkpt lat="44.69919626201143" lon="10.078760791369067"><ele>259.0</ele><time>2026-05-02T12:13:00Z</time></trkpt><trkpt lat="44.69923422381018" lon="10.078680785894246"><ele>260.6666666666667</ele><time>2026-05-02T12:13:01Z</time></trkpt><trkpt lat="44.69930994489231" lon="10.078598949919034"><ele>262.3333333333333</ele><time>2026-05-02T12:13:03Z</time></trkpt><trkpt lat="44.69936232049002" lon="10.078502052159598"><ele>264.0</ele><time>2026-05-02T12:13:05Z</time></trkpt><trkpt lat="44.69939922201006" lon="10.078417800954497"><ele>265.3333333333333</ele><time>2026-05-02T12:13:06Z</time></trkpt><trkpt lat="44.69943582814371" lon="10.078340926863575"><ele>266.6666666666667</ele><time>2026-05-02T12:13:07Z</time></trkpt><trkpt lat="44.699479068558546" lon="10.078240444113781"><ele>268.0</ele><time>2026-05-02T12:13:08Z</time></trkpt><trkpt lat="44.69951948849072" lon="10.078152550456641"><ele>269.33333333333337</ele><time>2026-05-02T12:13:09Z</time></trkpt><trkpt lat="44.69955788064268" lon="10.078049551343657"><ele>270.6666666666667</ele><time>2026-05-02T12:13:10Z</time></trkpt><trkpt lat="44.69959186921429" lon="10.077954992314357"><ele>272.0</ele><time>2026-05-02T12:13:11Z</time></trkpt><trkpt lat="44.69963300794979" lon="10.077849256842367"><ele>274.5</ele><time>2026-05-02T12:13:12Z</time></trkpt><trkpt lat="44.69967598496588" lon="10.077748135789372"><ele>277.0</ele><time>2026-05-02T12:13:13Z</time></trkpt><trkpt lat="44.6997196914711" lon="10.077639102985346"><ele>279.5</ele><time>2026-05-02T12:13:14Z</time></trkpt><trkpt lat="44.69975647290504" lon="10.077534740074459"><ele>282.0</ele><time>2026-05-02T12:13:15Z</time></trkpt><trkpt lat="44.69979143593914" lon="10.077454931451046"><ele>284.5</ele><time>2026-05-02T12:13:16Z</time></trkpt><trkpt lat="44.69986245691008" lon="10.077315193650815"><ele>287.0</ele><time>2026-05-02T12:13:18Z</time></trkpt><trkpt lat="44.69989277926098" lon="10.077229974171205"><ele>289.2</ele><time>2026-05-02T12:13:20Z</time></trkpt><trkpt lat="44.69991075399245" lon="10.077063225926416"><ele>291.4</ele><time>2026-05-02T12:13:29Z</time></trkpt><trkpt lat="44.69996276656596" lon="10.076973632783242"><ele>293.6</ele><time>2026-05-02T12:13:31Z</time></trkpt><trkpt lat="44.70003285275132" lon="10.076852602005289"><ele>295.8</ele><time>2026-05-02T12:13:33Z</time></trkpt><trkpt lat="44.70011302382098" lon="10.076723734006825"><ele>298.0</ele><time>2026-05-02T12:13:35Z</time></trkpt><trkpt lat="44.7001629618977" lon="10.076640786427385"><ele>298.7142857142857</ele><time>2026-05-02T12:13:36Z</time></trkpt><trkpt lat="44.70020085577018" lon="10.076559494192564"><ele>299.4285714285714</ele><time>2026-05-02T12:13:37Z</time></trkpt><trkpt lat="44.70022034082666" lon="10.076464504979125"><ele>300.1428571428571</ele><time>2026-05-02T12:13:38Z</time></trkpt><trkpt lat="44.700233000787954" lon="10.076365919168698"><ele>300.85714285714283</ele><time>2026-05-02T12:13:39Z</time></trkpt><trkpt lat="44.70025780898899" lon="10.076261989235743"><ele>301.57142857142856</ele><time>2026-05-02T12:13:40Z</time></trkpt><trkpt lat="44.70029397868574" lon="10.07617641312395"><ele>302.2857142857143</ele><time>2026-05-02T12:13:41Z</time></trkpt><trkpt lat="44.70032787252791" lon="10.076072487193429"><ele>303.0</ele><time>2026-05-02T12:13:42Z</time></trkpt><trkpt lat="44.70036047874094" lon="10.07594797651192"><ele>303.2</ele><time>2026-05-02T12:13:43Z</time></trkpt><trkpt lat="44.70038190775243" lon="10.075812996002952"><ele>303.4</ele><time>2026-05-02T12:13:44Z</time></trkpt><trkpt lat="44.700450843707614" lon="10.075653573342201"><ele>303.59999999999997</ele><time>2026-05-02T12:13:46Z</time></trkpt><trkpt lat="44.70050771031181" lon="10.075569044355438"><ele>303.8</ele><time>2026-05-02T12:13:47Z</time></trkpt><trkpt lat="44.7005745966913" lon="10.07546799192031"><ele>304.0</ele><time>2026-05-02T12:13:48Z</time></trkpt><trkpt lat="44.700639660483965" lon="10.07536439374701"><ele>305.2</ele><time>2026-05-02T12:13:49Z</time></trkpt><trkpt lat="44.700709053708955" lon="10.075262535656163"><ele>306.4</ele><time>2026-05-02T12:13:50Z</time></trkpt><trkpt lat="44.70076684360689" lon="10.075149756864676"><ele>307.6</ele><time>2026-05-02T12:13:51Z</time></trkpt><trkpt lat="44.70082350258994" lon="10.075049478994183"><ele>308.8</ele><time>2026-05-02T12:13:52Z</time></trkpt><trkpt lat="44.70088092342263" lon="10.074932383664112"><ele>310.0</ele><time>2026-05-02T12:13:53Z</time></trkpt><trkpt lat="44.700935092013374" lon="10.07480790437656"><ele>310.0</ele><time>2026-05-02T12:13:54Z</time></trkpt><trkpt lat="44.70100721570745" lon="10.074668556121285"><ele>310.0</ele><time>2026-05-02T12:13:55Z</time></trkpt><trkpt lat="44.70110354360737" lon="10.074528819728393"><ele>310.0</ele><time>2026-05-02T12:13:55.997Z</time></trkpt><trkpt lat="44.70117065706326" lon="10.074426777174331"><ele>310.0</ele><time>2026-05-02T12:13:56.997Z</time></trkpt><trkpt lat="44.70123465689939" lon="10.074308900633053"><ele>310.6</ele><time>2026-05-02T12:13:57.997Z</time></trkpt><trkpt lat="44.70130398412431" lon="10.07418501385848"><ele>311.2</ele><time>2026-05-02T12:13:58.997Z</time></trkpt><trkpt lat="44.7013714087173" lon="10.07406028575292"><ele>311.8</ele><time>2026-05-02T12:13:59.997Z</time></trkpt><trkpt lat="44.701424857932714" lon="10.073969421304467"><ele>312.4</ele><time>2026-05-02T12:14:00.997Z</time></trkpt><trkpt lat="44.70147716780197" lon="10.073907185117296"><ele>313.0</ele><time>2026-05-02T12:14:01.997Z</time></trkpt><trkpt lat="44.701531761988576" lon="10.073819486244938"><ele>314.5</ele><time>2026-05-02T12:14:02.997Z</time></trkpt><trkpt lat="44.70161490027082" lon="10.073724485319815"><ele>316.0</ele><time>2026-05-02T12:14:03.998Z</time></trkpt><trkpt lat="44.70168363209872" lon="10.073587705683378"><ele>317.5</ele><time>2026-05-02T12:14:04.998Z</time></trkpt><trkpt lat="44.70177750315577" lon="10.073458204731875"><ele>319.0</ele><time>2026-05-02T12:14:05.998Z</time></trkpt><trkpt lat="44.70186384337467" lon="10.073327219797488"><ele>320.8333333333333</ele><time>2026-05-02T12:14:06.998Z</time></trkpt><trkpt lat="44.701933506810114" lon="10.073219220894908"><ele>322.66666666666663</ele><time>2026-05-02T12:14:07.998Z</time></trkpt><trkpt lat="44.701990340607225" lon="10.07315517827182"><ele>324.5</ele><time>2026-05-02T12:14:08.998Z</time></trkpt><trkpt lat="44.70209438775983" lon="10.07306154432099"><ele>326.3333333333333</ele><time>2026-05-02T12:14:10.998Z</time></trkpt><trkpt lat="44.70214209103051" lon="10.073000500557011"><ele>328.1666666666667</ele><time>2026-05-02T12:14:11.998Z</time></trkpt><trkpt lat="44.70220049198184" lon="10.072941449292587"><ele>330.0</ele><time>2026-05-02T12:14:12.998Z</time></trkpt><trkpt lat="44.70227851722199" lon="10.07290071611544"><ele>330.0</ele><time>2026-05-02T12:14:13.998Z</time></trkpt><trkpt lat="44.70234964894967" lon="10.07283166127989"><ele>330.0</ele><time>2026-05-02T12:14:14.998Z</time></trkpt><trkpt lat="44.702424990484474" lon="10.072759494115616"><ele>330.0</ele><time>2026-05-02T12:14:15.998Z</time></trkpt><trkpt lat="44.70248661314363" lon="10.072673612821943"><ele>330.0</ele><time>2026-05-02T12:14:16.998Z</time></trkpt><trkpt lat="44.70252872694935" lon="10.07258630081763"><ele>330.0</ele><time>2026-05-02T12:14:17.998Z</time></trkpt><trkpt lat="44.702564965962885" lon="10.072506780641211"><ele>330.0</ele><time>2026-05-02T12:14:18.998Z</time></trkpt><trkpt lat="44.702603127273264" lon="10.072403202681873"><ele>329.2</ele><time>2026-05-02T12:14:19.999Z</time></trkpt><trkpt lat="44.70264228111718" lon="10.072289053411723"><ele>328.4</ele><time>2026-05-02T12:14:20.999Z</time></trkpt><trkpt lat="44.70270023350987" lon="10.072201680111652"><ele>327.6</ele><time>2026-05-02T12:14:21.999Z</time></trkpt><trkpt lat="44.70275552353877" lon="10.072150479568512"><ele>326.8</ele><time>2026-05-02T12:14:22.999Z</time></trkpt><trkpt lat="44.702837968603085" lon="10.072054792734084"><ele>326.0</ele><time>2026-05-02T12:14:23.999Z</time></trkpt><trkpt lat="44.70293334659443" lon="10.071995395187127"><ele>328.5</ele><time>2026-05-02T12:14:24.999Z</time></trkpt><trkpt lat="44.703021982701536" lon="10.071938611388383"><ele>331.0</ele><time>2026-05-02T12:14:25.999Z</time></trkpt><trkpt lat="44.703108913147" lon="10.071883979715587"><ele>333.5</ele><time>2026-05-02T12:14:26.999Z</time></trkpt><trkpt lat="44.70318947339175" lon="10.071837044852286"><ele>336.0</ele><time>2026-05-02T12:14:27.999Z</time></trkpt><trkpt lat="44.703250342284136" lon="10.071778657038449"><ele>338.5</ele><time>2026-05-02T12:14:28.999Z</time></trkpt><trkpt lat="44.70330344969358" lon="10.071716942883208"><ele>341.0</ele><time>2026-05-02T12:14:29.999Z</time></trkpt><trkpt lat="44.703348777609975" lon="10.071630991596361"><ele>342.33333333333337</ele><time>2026-05-02T12:14:30.999Z</time></trkpt><trkpt lat="44.70339690680723" lon="10.071515159872657"><ele>343.6666666666667</ele><time>2026-05-02T12:14:31.999Z</time></trkpt><trkpt lat="44.70345679192491" lon="10.07140635690764"><ele>345.0</ele><time>2026-05-02T12:14:32.999Z</time></trkpt><trkpt lat="44.70351245409891" lon="10.071338504152113"><ele>346.3333333333333</ele><time>2026-05-02T12:14:33.999Z</time></trkpt><trkpt lat="44.70356661569008" lon="10.071284498187564"><ele>347.66666666666663</ele><time>2026-05-02T12:14:34.999Z</time></trkpt><trkpt lat="44.703615592342146" lon="10.071191497196093"><ele>349.0</ele><time>2026-05-02T12:14:35.999Z</time></trkpt><trkpt lat="44.70365851610635" lon="10.07107949258619"><ele>349.66666666666663</ele><time>2026-05-02T12:14:36.999Z</time></trkpt><trkpt lat="44.703684002893894" lon="10.0709824994912"><ele>350.3333333333333</ele><time>2026-05-02T12:14:37.999Z</time></trkpt><trkpt lat="44.703742602318314" lon="10.070949671299314"><ele>351.0</ele><time>2026-05-02T12:14:39.999Z</time></trkpt><trkpt lat="44.7038186269782" lon="10.070970626815622"><ele>351.6666666666667</ele><time>2026-05-02T12:14:42.999Z</time></trkpt><trkpt lat="44.70393386132581" lon="10.070917103960705"><ele>352.33333333333337</ele><time>2026-05-02T12:14:44.999Z</time></trkpt><trkpt lat="44.703994954559874" lon="10.070883755837222"><ele>353.0</ele><time>2026-05-02T12:14:45.999Z</time></trkpt><trkpt lat="44.70408239314746" lon="10.07081578896709"><ele>353.0</ele><time>2026-05-02T12:14:48Z</time></trkpt><trkpt lat="44.704154860128654" lon="10.07088204068376"><ele>353.0</ele><time>2026-05-02T12:14:50Z</time></trkpt><trkpt lat="44.70423048111067" lon="10.070816354490693"><ele>353.0</ele><time>2026-05-02T12:14:52Z</time></trkpt><trkpt lat="44.704332259691746" lon="10.07075475758797"><ele>353.0</ele><time>2026-05-02T12:14:54Z</time></trkpt><trkpt lat="44.704413463568905" lon="10.070869913026534"><ele>353.0</ele><time>2026-05-02T12:14:56Z</time></trkpt><trkpt lat="44.70447747719662" lon="10.070965012377252"><ele>349.83333333333337</ele><time>2026-05-02T12:14:58Z</time></trkpt><trkpt lat="44.70456472946891" lon="10.070988133904375"><ele>346.6666666666667</ele><time>2026-05-02T12:15:00Z</time></trkpt><trkpt lat="44.70464583519685" lon="10.071039712457333"><ele>343.5</ele><time>2026-05-02T12:15:02Z</time></trkpt><trkpt lat="44.7047146843642" lon="10.071075884227866"><ele>340.3333333333333</ele><time>2026-05-02T12:15:03Z</time></trkpt><trkpt lat="44.70478461140933" lon="10.071091369767977"><ele>337.16666666666663</ele><time>2026-05-02T12:15:04Z</time></trkpt><trkpt lat="44.70488223843636" lon="10.07103554438813"><ele>334.0</ele><time>2026-05-02T12:15:06Z</time></trkpt><trkpt lat="44.70496437082882" lon="10.070919270902426"><ele>334.0</ele><time>2026-05-02T12:15:08Z</time></trkpt><trkpt lat="44.70507561125472" lon="10.070880677841354"><ele>334.0</ele><time>2026-05-02T12:15:10Z</time></trkpt><trkpt lat="44.705142139874575" lon="10.0708879040565"><ele>334.0</ele><time>2026-05-02T12:15:11Z</time></trkpt><trkpt lat="44.70520943894026" lon="10.070875506796716"><ele>334.0</ele><time>2026-05-02T12:15:12Z</time></trkpt><trkpt lat="44.705272298994075" lon="10.070851276667195"><ele>334.0</ele><time>2026-05-02T12:15:13Z</time></trkpt><trkpt lat="44.7053682385904" lon="10.070749224435312"><ele>334.0</ele><time>2026-05-02T12:15:15Z</time></trkpt><trkpt lat="44.705419611552976" lon="10.070694324489494"><ele>332.79999999999995</ele><time>2026-05-02T12:15:16Z</time></trkpt><trkpt lat="44.705473749962984" lon="10.070630798965983"><ele>331.59999999999997</ele><time>2026-05-02T12:15:17Z</time></trkpt><trkpt lat="44.70555902093068" lon="10.070495570996593"><ele>330.4</ele><time>2026-05-02T12:15:19Z</time></trkpt><trkpt lat="44.70561346226125" lon="10.070418035361262"><ele>329.2</ele><time>2026-05-02T12:15:20Z</time></trkpt><trkpt lat="44.705713611728925" lon="10.070293861125478"><ele>328.0</ele><time>2026-05-02T12:15:22Z</time></trkpt><trkpt lat="44.70581419759926" lon="10.070343226248168"><ele>328.0</ele><time>2026-05-02T12:15:24Z</time></trkpt><trkpt lat="44.70586312645583" lon="10.070409053576247"><ele>328.0</ele><time>2026-05-02T12:15:25Z</time></trkpt><trkpt lat="44.70589414227456" lon="10.070501408227798"><ele>328.0</ele><time>2026-05-02T12:15:26Z</time></trkpt><trkpt lat="44.705905772925476" lon="10.07060563501712"><ele>328.0</ele><time>2026-05-02T12:15:27Z</time></trkpt><trkpt lat="44.705917929089594" lon="10.07071715238906"><ele>328.0</ele><time>2026-05-02T12:15:28Z</time></trkpt><trkpt lat="44.70594555158531" lon="10.070842061099007"><ele>328.0</ele><time>2026-05-02T12:15:29Z</time></trkpt><trkpt lat="44.70599920267601" lon="10.0709772588024"><ele>327.0</ele><time>2026-05-02T12:15:30Z</time></trkpt><trkpt lat="44.706048596407705" lon="10.071091362192794"><ele>326.0</ele><time>2026-05-02T12:15:31Z</time></trkpt><trkpt lat="44.70606989290648" lon="10.071247989476266"><ele>325.0</ele><time>2026-05-02T12:15:33Z</time></trkpt><trkpt lat="44.70611104250782" lon="10.071434656469844"><ele>324.0</ele><time>2026-05-02T12:15:35Z</time></trkpt><trkpt lat="44.70614363432167" lon="10.07151750457901"><ele>323.0</ele><time>2026-05-02T12:15:36Z</time></trkpt><trkpt lat="44.706198956537165" lon="10.07160383601672"><ele>325.2</ele><time>2026-05-02T12:15:37Z</time></trkpt><trkpt lat="44.70623681760305" lon="10.071704834171925"><ele>327.4</ele><time>2026-05-02T12:15:38Z</time></trkpt><trkpt lat="44.706276580143886" lon="10.071825597090227"><ele>329.59999999999997</ele><time>2026-05-02T12:15:39Z</time></trkpt><trkpt lat="44.706333386753606" lon="10.071959395775567"><ele>331.79999999999995</ele><time>2026-05-02T12:15:40Z</time></trkpt><trkpt lat="44.706394678108346" lon="10.072107210954004"><ele>334.0</ele><time>2026-05-02T12:15:41.001Z</time></trkpt><trkpt lat="44.70643599088379" lon="10.072231960509162"><ele>334.0</ele><time>2026-05-02T12:15:42.001Z</time></trkpt><trkpt lat="44.706480723538576" lon="10.07231348487232"><ele>334.0</ele><time>2026-05-02T12:15:43.001Z</time></trkpt><trkpt lat="44.706615331704214" lon="10.072394882539337"><ele>334.0</ele><time>2026-05-02T12:15:45.001Z</time></trkpt><trkpt lat="44.7066858406868" lon="10.072454964120682"><ele>334.0</ele><time>2026-05-02T12:15:46.001Z</time></trkpt><trkpt lat="44.706796433589844" lon="10.072548953568534"><ele>334.0</ele><time>2026-05-02T12:15:48.001Z</time></trkpt><trkpt lat="44.70685695495008" lon="10.072592079943112"><ele>334.0</ele><time>2026-05-02T12:15:49.001Z</time></trkpt><trkpt lat="44.70692297464437" lon="10.072630504459463"><ele>334.0</ele><time>2026-05-02T12:15:50.001Z</time></trkpt><trkpt lat="44.70706437641401" lon="10.072719639652803"><ele>334.0</ele><time>2026-05-02T12:15:52.001Z</time></trkpt><trkpt lat="44.70714757974506" lon="10.072777158444145"><ele>334.0</ele><time>2026-05-02T12:15:53.001Z</time></trkpt><trkpt lat="44.707211149594656" lon="10.072841292997142"><ele>334.0</ele><time>2026-05-02T12:15:54.001Z</time></trkpt><trkpt lat="44.7072619797585" lon="10.072911912460954"><ele>334.0</ele><time>2026-05-02T12:15:55.001Z</time></trkpt><trkpt lat="44.7073201379072" lon="10.072971522738385"><ele>334.0</ele><time>2026-05-02T12:15:56.001Z</time></trkpt><trkpt lat="44.70738807351033" lon="10.073014791017421"><ele>334.0</ele><time>2026-05-02T12:15:57.001Z</time></trkpt><trkpt lat="44.7074505054505" lon="10.073031117081218"><ele>334.0</ele><time>2026-05-02T12:15:58.001Z</time></trkpt><trkpt lat="44.70751857060869" lon="10.07304314166696"><ele>334.0</ele><time>2026-05-02T12:15:59.001Z</time></trkpt><trkpt lat="44.707594538786225" lon="10.073087008727962"><ele>334.0</ele><time>2026-05-02T12:16:00.001Z</time></trkpt><trkpt lat="44.707676937846685" lon="10.073152889187849"><ele>333.79999999999995</ele><time>2026-05-02T12:16:01.001Z</time></trkpt><trkpt lat="44.70776358909802" lon="10.0731815640627"><ele>333.59999999999997</ele><time>2026-05-02T12:16:01.997Z</time></trkpt><trkpt lat="44.70787529285893" lon="10.073197143346604"><ele>333.4</ele><time>2026-05-02T12:16:02.997Z</time></trkpt><trkpt lat="44.70797389827314" lon="10.073225988330154"><ele>333.2</ele><time>2026-05-02T12:16:03.997Z</time></trkpt><trkpt lat="44.708068005244755" lon="10.073276026592632"><ele>333.0</ele><time>2026-05-02T12:16:04.997Z</time></trkpt><trkpt lat="44.70816659643135" lon="10.073318490456915"><ele>333.0</ele><time>2026-05-02T12:16:05.997Z</time></trkpt><trkpt lat="44.70824456841442" lon="10.073365988759921"><ele>333.0</ele><time>2026-05-02T12:16:06.997Z</time></trkpt><trkpt lat="44.70832428030356" lon="10.073393540191411"><ele>333.0</ele><time>2026-05-02T12:16:07.997Z</time></trkpt><trkpt lat="44.70841611730369" lon="10.073412110884197"><ele>333.0</ele><time>2026-05-02T12:16:08.997Z</time></trkpt><trkpt lat="44.708480450987814" lon="10.0734564969738"><ele>333.0</ele><time>2026-05-02T12:16:09.997Z</time></trkpt><trkpt lat="44.70854300891023" lon="10.073530703865803"><ele>333.0</ele><time>2026-05-02T12:16:10.997Z</time></trkpt><trkpt lat="44.70860157432194" lon="10.073637465237168"><ele>329.4</ele><time>2026-05-02T12:16:11.997Z</time></trkpt><trkpt lat="44.708693492672836" lon="10.073722669928818"><ele>325.79999999999995</ele><time>2026-05-02T12:16:12.997Z</time></trkpt><trkpt lat="44.708758309271715" lon="10.073771188937682"><ele>322.2</ele><time>2026-05-02T12:16:13.997Z</time></trkpt><trkpt lat="44.708842268101954" lon="10.073925660632748"><ele>318.6</ele><time>2026-05-02T12:16:15.997Z</time></trkpt><trkpt lat="44.70889149196852" lon="10.074057639995592"><ele>315.0</ele><time>2026-05-02T12:16:16.997Z</time></trkpt><trkpt lat="44.708961696500694" lon="10.074163245425531"><ele>315.0</ele><time>2026-05-02T12:16:17.998Z</time></trkpt><trkpt lat="44.709068137832695" lon="10.074272853104107"><ele>315.0</ele><time>2026-05-02T12:16:18.998Z</time></trkpt><trkpt lat="44.70916783704001" lon="10.074400896424448"><ele>315.0</ele><time>2026-05-02T12:16:19.998Z</time></trkpt><trkpt lat="44.709237248281404" lon="10.074495063944921"><ele>315.0</ele><time>2026-05-02T12:16:20.998Z</time></trkpt><trkpt lat="44.7093029004195" lon="10.074618433659566"><ele>315.0</ele><time>2026-05-02T12:16:21.998Z</time></trkpt><trkpt lat="44.70937044751699" lon="10.07475087330732"><ele>315.0</ele><time>2026-05-02T12:16:22.998Z</time></trkpt><trkpt lat="44.709443378106556" lon="10.074848279442444"><ele>315.0</ele><time>2026-05-02T12:16:23.998Z</time></trkpt><trkpt lat="44.7095286320161" lon="10.074922493108971"><ele>315.0</ele><time>2026-05-02T12:16:24.998Z</time></trkpt><trkpt lat="44.70961889614878" lon="10.074978932594847"><ele>315.0</ele><time>2026-05-02T12:16:25.998Z</time></trkpt><trkpt lat="44.709700442839825" lon="10.07504680703588"><ele>315.2</ele><time>2026-05-02T12:16:26.998Z</time></trkpt><trkpt lat="44.709796226038485" lon="10.075119487010507"><ele>315.4</ele><time>2026-05-02T12:16:28.998Z</time></trkpt><trkpt lat="44.70986154904431" lon="10.075138874834593"><ele>315.6</ele><time>2026-05-02T12:16:29.999Z</time></trkpt><trkpt lat="44.70994107355717" lon="10.07516362167732"><ele>315.8</ele><time>2026-05-02T12:16:30.999Z</time></trkpt><trkpt lat="44.71004778947027" lon="10.07520482468942"><ele>316.0</ele><time>2026-05-02T12:16:31.999Z</time></trkpt><trkpt lat="44.71013991297909" lon="10.075246960975532"><ele>316.0</ele><time>2026-05-02T12:16:32.999Z</time></trkpt><trkpt lat="44.71023004392404" lon="10.07529458826339"><ele>316.0</ele><time>2026-05-02T12:16:33.999Z</time></trkpt><trkpt lat="44.71034325206133" lon="10.075339059978287"><ele>316.0</ele><time>2026-05-02T12:16:34.999Z</time></trkpt><trkpt lat="44.710458958936506" lon="10.075396865074143"><ele>316.0</ele><time>2026-05-02T12:16:35.999Z</time></trkpt><trkpt lat="44.71056658599475" lon="10.075454821078733"><ele>318.6</ele><time>2026-05-02T12:16:36.999Z</time></trkpt><trkpt lat="44.71064594181861" lon="10.075527529495865"><ele>321.20000000000005</ele><time>2026-05-02T12:16:37.999Z</time></trkpt><trkpt lat="44.710722905433094" lon="10.075606350592007"><ele>323.79999999999995</ele><time>2026-05-02T12:16:38.999Z</time></trkpt><trkpt lat="44.71080033213775" lon="10.075702492161541"><ele>326.4</ele><time>2026-05-02T12:16:39.999Z</time></trkpt><trkpt lat="44.71087847401742" lon="10.07574058782518"><ele>329.0</ele><time>2026-05-02T12:16:40.999Z</time></trkpt><trkpt lat="44.71097564373567" lon="10.075751610381998"><ele>335.4</ele><time>2026-05-02T12:16:41.999Z</time></trkpt><trkpt lat="44.71109856957578" lon="10.075746170499018"><ele>341.79999999999995</ele><time>2026-05-02T12:16:42.999Z</time></trkpt><trkpt lat="44.711180754114956" lon="10.07573554172879"><ele>348.20000000000005</ele><time>2026-05-02T12:16:43.999Z</time></trkpt><trkpt lat="44.71124464393232" lon="10.075613599978412"><ele>354.6</ele><time>2026-05-02T12:16:54Z</time></trkpt><trkpt lat="44.71133006158639" lon="10.075502181583866"><ele>361.0</ele><time>2026-05-02T12:16:56Z</time></trkpt><trkpt lat="44.711386037667474" lon="10.075444500147496"><ele>361.0</ele><time>2026-05-02T12:16:57Z</time></trkpt><trkpt lat="44.71142816611544" lon="10.075378522452914"><ele>361.0</ele><time>2026-05-02T12:16:58Z</time></trkpt><trkpt lat="44.71144914382878" lon="10.07528803791655"><ele>361.0</ele><time>2026-05-02T12:16:59Z</time></trkpt><trkpt lat="44.71145342330395" lon="10.075195992103097"><ele>361.0</ele><time>2026-05-02T12:17:00Z</time></trkpt><trkpt lat="44.711433001175884" lon="10.075030897543034"><ele>361.0</ele><time>2026-05-02T12:17:02Z</time></trkpt><trkpt lat="44.71139278934124" lon="10.074958969691428"><ele>361.0</ele><time>2026-05-02T12:17:03Z</time></trkpt><trkpt lat="44.711338068726924" lon="10.074893584283094"><ele>360.5</ele><time>2026-05-02T12:17:04Z</time></trkpt><trkpt lat="44.711302651183615" lon="10.074722550863408"><ele>360.0</ele><time>2026-05-02T12:17:06Z</time></trkpt><trkpt lat="44.7112977987157" lon="10.074628686584271"><ele>359.5</ele><time>2026-05-02T12:17:07Z</time></trkpt><trkpt lat="44.71129096212604" lon="10.074515800882718"><ele>359.0</ele><time>2026-05-02T12:17:08Z</time></trkpt><trkpt lat="44.71128810975516" lon="10.074406181343065"><ele>358.5</ele><time>2026-05-02T12:17:09Z</time></trkpt><trkpt lat="44.711295333384165" lon="10.074296430568955"><ele>358.0</ele><time>2026-05-02T12:17:10Z</time></trkpt><trkpt lat="44.71132474717482" lon="10.074197586882061"><ele>355.16666666666663</ele><time>2026-05-02T12:17:11Z</time></trkpt><trkpt lat="44.71140366572512" lon="10.074064122667018"><ele>352.3333333333333</ele><time>2026-05-02T12:17:13Z</time></trkpt><trkpt lat="44.71146485258073" lon="10.07401446365681"><ele>349.5</ele><time>2026-05-02T12:17:14Z</time></trkpt><trkpt lat="44.71153599660577" lon="10.073978088789243"><ele>346.6666666666667</ele><time>2026-05-02T12:17:15Z</time></trkpt><trkpt lat="44.711621887684295" lon="10.073939069353047"><ele>343.83333333333337</ele><time>2026-05-02T12:17:16Z</time></trkpt><trkpt lat="44.711695354044984" lon="10.073889641075818"><ele>341.0</ele><time>2026-05-02T12:17:17Z</time></trkpt><trkpt lat="44.711759869340874" lon="10.073833016088768"><ele>341.0</ele><time>2026-05-02T12:17:18Z</time></trkpt><trkpt lat="44.711831607753034" lon="10.073797099429378"><ele>341.0</ele><time>2026-05-02T12:17:19Z</time></trkpt><trkpt lat="44.71190150185837" lon="10.073778817816917"><ele>341.0</ele><time>2026-05-02T12:17:20Z</time></trkpt><trkpt lat="44.71201387165052" lon="10.073788418925266"><ele>341.0</ele><time>2026-05-02T12:17:22Z</time></trkpt><trkpt lat="44.71215194514602" lon="10.073814110295336"><ele>341.0</ele><time>2026-05-02T12:17:24Z</time></trkpt><trkpt lat="44.712241453857224" lon="10.073821335915433"><ele>344.6</ele><time>2026-05-02T12:17:25Z</time></trkpt><trkpt lat="44.71231691914533" lon="10.073808445308826"><ele>348.20000000000005</ele><time>2026-05-02T12:17:26Z</time></trkpt><trkpt lat="44.71240252440907" lon="10.07368191175969"><ele>351.79999999999995</ele><time>2026-05-02T12:17:28.001Z</time></trkpt><trkpt lat="44.71244666512543" lon="10.07359681711064"><ele>355.4</ele><time>2026-05-02T12:17:29.001Z</time></trkpt><trkpt lat="44.712520279103195" lon="10.07351031409643"><ele>359.0</ele><time>2026-05-02T12:17:31.001Z</time></trkpt><trkpt lat="44.71256823268428" lon="10.073386364331718"><ele>359.0</ele><time>2026-05-02T12:17:33.001Z</time></trkpt><trkpt lat="44.71258597538933" lon="10.073280369829078"><ele>359.0</ele><time>2026-05-02T12:17:34.001Z</time></trkpt><trkpt lat="44.7126339125817" lon="10.073131143369165"><ele>359.0</ele><time>2026-05-02T12:17:36.001Z</time></trkpt><trkpt lat="44.71267659372662" lon="10.07305086030385"><ele>359.0</ele><time>2026-05-02T12:17:37.001Z</time></trkpt><trkpt lat="44.71269969471145" lon="10.07295426611513"><ele>359.0</ele><time>2026-05-02T12:17:38.001Z</time></trkpt><trkpt lat="44.712722304153495" lon="10.072863676198178"><ele>359.0</ele><time>2026-05-02T12:17:39.001Z</time></trkpt><trkpt lat="44.71275372163727" lon="10.07277230623676"><ele>358.6666666666667</ele><time>2026-05-02T12:17:40.001Z</time></trkpt><trkpt lat="44.71279326848737" lon="10.07268285064267"><ele>358.33333333333337</ele><time>2026-05-02T12:17:41.001Z</time></trkpt><trkpt lat="44.712833614020255" lon="10.07259065776076"><ele>358.0</ele><time>2026-05-02T12:17:42.001Z</time></trkpt><trkpt lat="44.71287251316481" lon="10.072489522446817"><ele>357.6666666666667</ele><time>2026-05-02T12:17:43.001Z</time></trkpt><trkpt lat="44.712916016970674" lon="10.072390965634417"><ele>357.3333333333333</ele><time>2026-05-02T12:17:44.001Z</time></trkpt><trkpt lat="44.7129632262165" lon="10.072302647056317"><ele>357.0</ele><time>2026-05-02T12:17:45.001Z</time></trkpt><trkpt lat="44.71300973898831" lon="10.072235148656524"><ele>355.6666666666667</ele><time>2026-05-02T12:17:46.001Z</time></trkpt><trkpt lat="44.71307385113134" lon="10.072143233023564"><ele>354.3333333333333</ele><time>2026-05-02T12:17:48.001Z</time></trkpt><trkpt lat="44.71314185222415" lon="10.072073923196948"><ele>353.0</ele><time>2026-05-02T12:17:50.001Z</time></trkpt><trkpt lat="44.713191977426916" lon="10.072000807126333"><ele>351.66666666666663</ele><time>2026-05-02T12:18:02.001Z</time></trkpt><trkpt lat="44.71319614094873" lon="10.07190786496048"><ele>350.3333333333333</ele><time>2026-05-02T12:18:04.001Z</time></trkpt><trkpt lat="44.71321767451918" lon="10.071787810814266"><ele>349.0</ele><time>2026-05-02T12:18:07.002Z</time></trkpt><trkpt lat="44.71322144613143" lon="10.071653665705755"><ele>347.0</ele><time>2026-05-02T12:18:09.998Z</time></trkpt><trkpt lat="44.713250101981785" lon="10.0715551462456"><ele>345.0</ele><time>2026-05-02T12:18:11.998Z</time></trkpt><trkpt lat="44.71328329518526" lon="10.071456146401399"><ele>343.0</ele><time>2026-05-02T12:18:13.998Z</time></trkpt><trkpt lat="44.71332379994296" lon="10.07131068950386"><ele>341.0</ele><time>2026-05-02T12:18:15.998Z</time></trkpt><trkpt lat="44.71336329952261" lon="10.071171450890148"><ele>339.0</ele><time>2026-05-02T12:18:17.998Z</time></trkpt><trkpt lat="44.713398403718706" lon="10.071047889175702"><ele>339.0</ele><time>2026-05-02T12:18:19.998Z</time></trkpt><trkpt lat="44.71343062895511" lon="10.070930509120796"><ele>339.0</ele><time>2026-05-02T12:18:21.998Z</time></trkpt><trkpt lat="44.71347049084112" lon="10.070822605869665"><ele>339.0</ele><time>2026-05-02T12:18:23.999Z</time></trkpt><trkpt lat="44.713515941665676" lon="10.070716029744407"><ele>339.0</ele><time>2026-05-02T12:18:25.999Z</time></trkpt><trkpt lat="44.713572176999826" lon="10.070598719215068"><ele>339.0</ele><time>2026-05-02T12:18:27.999Z</time></trkpt><trkpt lat="44.713611291314585" lon="10.070513258822531"><ele>339.0</ele><time>2026-05-02T12:18:29.999Z</time></trkpt><trkpt lat="44.713632432272455" lon="10.070411054824271"><ele>334.8333333333333</ele><time>2026-05-02T12:18:31.999Z</time></trkpt><trkpt lat="44.71363713420773" lon="10.070315409722063"><ele>330.6666666666667</ele><time>2026-05-02T12:18:33.999Z</time></trkpt><trkpt lat="44.71366047872576" lon="10.070207726599122"><ele>326.5</ele><time>2026-05-02T12:18:36.999Z</time></trkpt><trkpt lat="44.71364386205994" lon="10.070084765865268"><ele>322.33333333333337</ele><time>2026-05-02T12:18:44Z</time></trkpt><trkpt lat="44.7135993726635" lon="10.070014416745455"><ele>318.1666666666667</ele><time>2026-05-02T12:18:45Z</time></trkpt><trkpt lat="44.713513363906955" lon="10.069912937734692"><ele>314.0</ele><time>2026-05-02T12:18:47Z</time></trkpt><trkpt lat="44.71345516063861" lon="10.069817250279636"><ele>314.0</ele><time>2026-05-02T12:18:49Z</time></trkpt><trkpt lat="44.71338803105692" lon="10.06971876888524"><ele>314.0</ele><time>2026-05-02T12:18:51Z</time></trkpt><trkpt lat="44.713329678881934" lon="10.069631040351565"><ele>314.0</ele><time>2026-05-02T12:18:53Z</time></trkpt><trkpt lat="44.71323948018359" lon="10.069555488953645"><ele>314.0</ele><time>2026-05-02T12:18:55Z</time></trkpt><trkpt lat="44.71319485466435" lon="10.069473950594055"><ele>314.0</ele><time>2026-05-02T12:18:58Z</time></trkpt><trkpt lat="44.71315245854448" lon="10.069395456081601"><ele>314.0</ele><time>2026-05-02T12:19:00Z</time></trkpt><trkpt lat="44.71308989641969" lon="10.069338862750632"><ele>314.0</ele><time>2026-05-02T12:19:03Z</time></trkpt><trkpt lat="44.713023893118965" lon="10.069345457989773"><ele>314.0</ele><time>2026-05-02T12:19:06.001Z</time></trkpt><trkpt lat="44.712968570891306" lon="10.069398715034577"><ele>314.0</ele><time>2026-05-02T12:19:08.001Z</time></trkpt><trkpt lat="44.712879081885234" lon="10.069365316117285"><ele>314.0</ele><time>2026-05-02T12:19:11.001Z</time></trkpt><trkpt lat="44.71285322490467" lon="10.069252896426866"><ele>314.0</ele><time>2026-05-02T12:19:13.001Z</time></trkpt><trkpt lat="44.712875070098626" lon="10.069135201131836"><ele>314.0</ele><time>2026-05-02T12:19:15.001Z</time></trkpt><trkpt lat="44.712905881022365" lon="10.069017864840152"><ele>311.6666666666667</ele><time>2026-05-02T12:19:17.001Z</time></trkpt><trkpt lat="44.71295022581882" lon="10.068920887839582"><ele>309.33333333333337</ele><time>2026-05-02T12:19:19.001Z</time></trkpt><trkpt lat="44.71300394293156" lon="10.068799832138653"><ele>307.0</ele><time>2026-05-02T12:19:21.001Z</time></trkpt><trkpt lat="44.71305698678936" lon="10.06874018606496"><ele>304.6666666666667</ele><time>2026-05-02T12:19:23.001Z</time></trkpt><trkpt lat="44.713119856679036" lon="10.068702669636009"><ele>302.3333333333333</ele><time>2026-05-02T12:19:25.001Z</time></trkpt><trkpt lat="44.71318636232717" lon="10.06868780577666"><ele>300.0</ele><time>2026-05-02T12:19:27.001Z</time></trkpt><trkpt lat="44.71326152649499" lon="10.068752114311408"><ele>300.0</ele><time>2026-05-02T12:19:29.001Z</time></trkpt><trkpt lat="44.71335779128004" lon="10.068836720187077"><ele>300.0</ele><time>2026-05-02T12:19:31.001Z</time></trkpt><trkpt lat="44.71342878206378" lon="10.068896031237262"><ele>300.0</ele><time>2026-05-02T12:19:33.001Z</time></trkpt><trkpt lat="44.713514915528584" lon="10.068958342912449"><ele>300.0</ele><time>2026-05-02T12:19:36.002Z</time></trkpt><trkpt lat="44.71355486171587" lon="10.069036193914739"><ele>300.0</ele><time>2026-05-02T12:19:38.002Z</time></trkpt><trkpt lat="44.71365590882015" lon="10.06912393251516"><ele>296.6666666666667</ele><time>2026-05-02T12:19:41.002Z</time></trkpt><trkpt lat="44.71371412725348" lon="10.069178086778257"><ele>293.3333333333333</ele><time>2026-05-02T12:19:42.002Z</time></trkpt><trkpt lat="44.713766412990275" lon="10.069241865038427"><ele>290.0</ele><time>2026-05-02T12:19:43.002Z</time></trkpt><trkpt lat="44.713810277737366" lon="10.069318388286796"><ele>286.66666666666663</ele><time>2026-05-02T12:19:44.002Z</time></trkpt><trkpt lat="44.71390568689459" lon="10.069408890048376"><ele>283.3333333333333</ele><time>2026-05-02T12:19:46.002Z</time></trkpt><trkpt lat="44.713983517972395" lon="10.069487107141272"><ele>280.0</ele><time>2026-05-02T12:19:48.002Z</time></trkpt><trkpt lat="44.71403359359923" lon="10.06955481093412"><ele>280.0</ele><time>2026-05-02T12:19:50.002Z</time></trkpt><trkpt lat="44.71412431848539" lon="10.069665178025694"><ele>280.0</ele><time>2026-05-02T12:19:52.002Z</time></trkpt><trkpt lat="44.71418092033015" lon="10.069716076707774"><ele>280.0</ele><time>2026-05-02T12:19:53.002Z</time></trkpt><trkpt lat="44.714263813412956" lon="10.069826499299994"><ele>280.0</ele><time>2026-05-02T12:19:55.002Z</time></trkpt><trkpt lat="44.71434713932023" lon="10.069926992452734"><ele>280.0</ele><time>2026-05-02T12:19:57.002Z</time></trkpt><trkpt lat="44.71446572171642" lon="10.070001578726016"><ele>276.6</ele><time>2026-05-02T12:19:59.002Z</time></trkpt><trkpt lat="44.7145505425179" lon="10.070070996810559"><ele>273.2</ele><time>2026-05-02T12:20:01.002Z</time></trkpt><trkpt lat="44.714624962632286" lon="10.070140962635135"><ele>269.8</ele><time>2026-05-02T12:20:03.002Z</time></trkpt><trkpt lat="44.714688524964586" lon="10.070211929174572"><ele>266.4</ele><time>2026-05-02T12:20:05.002Z</time></trkpt><trkpt lat="44.71474730913457" lon="10.070321571142847"><ele>263.0</ele><time>2026-05-02T12:20:07.002Z</time></trkpt><trkpt lat="44.714822631872025" lon="10.070392362351155"><ele>263.0</ele><time>2026-05-02T12:20:09.003Z</time></trkpt><trkpt lat="44.71488780304616" lon="10.070460236335785"><ele>263.0</ele><time>2026-05-02T12:20:11.003Z</time></trkpt><trkpt lat="44.71494966746897" lon="10.070565564293387"><ele>263.0</ele><time>2026-05-02T12:20:13.003Z</time></trkpt><trkpt lat="44.7149734261861" lon="10.07065549439009"><ele>263.0</ele><time>2026-05-02T12:20:15Z</time></trkpt><trkpt lat="44.715039102655425" lon="10.070694284881828"><ele>263.0</ele><time>2026-05-02T12:20:19Z</time></trkpt><trkpt lat="44.71501301516935" lon="10.070796623052193"><ele>263.0</ele><time>2026-05-02T12:20:29Z</time></trkpt><trkpt lat="44.71497596965008" lon="10.070949980796392"><ele>264.0</ele><time>2026-05-02T12:20:37Z</time></trkpt><trkpt lat="44.71495588301365" lon="10.07104918922117"><ele>265.0</ele><time>2026-05-02T12:20:39Z</time></trkpt><trkpt lat="44.71495308941424" lon="10.071159795995918"><ele>266.0</ele><time>2026-05-02T12:20:41Z</time></trkpt><trkpt lat="44.714948239708725" lon="10.07126525648518"><ele>267.0</ele><time>2026-05-02T12:20:43Z</time></trkpt><trkpt lat="44.71493097740404" lon="10.071382974358201"><ele>268.0</ele><time>2026-05-02T12:20:52.001Z</time></trkpt><trkpt lat="44.71492157039467" lon="10.071476167639094"><ele>269.0</ele><time>2026-05-02T12:20:54.001Z</time></trkpt><trkpt lat="44.71489693652659" lon="10.071603464994325"><ele>269.1666666666667</ele><time>2026-05-02T12:20:57.001Z</time></trkpt><trkpt lat="44.714879539416145" lon="10.071701067137926"><ele>269.33333333333337</ele><time>2026-05-02T12:20:59.001Z</time></trkpt><trkpt lat="44.71487035080925" lon="10.071807462257887"><ele>269.5</ele><time>2026-05-02T12:21:01.001Z</time></trkpt><trkpt lat="44.71485962832286" lon="10.07190264130791"><ele>269.6666666666667</ele><time>2026-05-02T12:21:03.001Z</time></trkpt><trkpt lat="44.714845358917124" lon="10.072034322243429"><ele>269.8333333333333</ele><time>2026-05-02T12:21:06.001Z</time></trkpt><trkpt lat="44.714850848441955" lon="10.07217039310058"><ele>270.0</ele><time>2026-05-02T12:21:09.001Z</time></trkpt><trkpt lat="44.714873259388554" lon="10.072267013109771"><ele>270.0</ele><time>2026-05-02T12:21:11.001Z</time></trkpt><trkpt lat="44.714890212940794" lon="10.07237950544774"><ele>270.0</ele><time>2026-05-02T12:21:20.002Z</time></trkpt><trkpt lat="44.71491838973235" lon="10.07252472126949"><ele>270.0</ele><time>2026-05-02T12:21:22.002Z</time></trkpt><trkpt lat="44.71496879921724" lon="10.07258375640906"><ele>270.0</ele><time>2026-05-02T12:21:24.002Z</time></trkpt><trkpt lat="44.71501141337084" lon="10.072678879268313"><ele>270.0</ele><time>2026-05-02T12:21:26.002Z</time></trkpt><trkpt lat="44.715002014445666" lon="10.072771300327041"><ele>270.0</ele><time>2026-05-02T12:21:28.002Z</time></trkpt><trkpt lat="44.71495704091105" lon="10.072864841388034"><ele>270.8333333333333</ele><time>2026-05-02T12:21:30.002Z</time></trkpt><trkpt lat="44.714909135452984" lon="10.072957195985321"><ele>271.6666666666667</ele><time>2026-05-02T12:21:32.002Z</time></trkpt><trkpt lat="44.71486258039998" lon="10.073064483866197"><ele>272.5</ele><time>2026-05-02T12:21:34.002Z</time></trkpt><trkpt lat="44.71482295984373" lon="10.073139520980003"><ele>273.33333333333337</ele><time>2026-05-02T12:21:36.002Z</time></trkpt><trkpt lat="44.71478001876959" lon="10.073240104448647"><ele>274.1666666666667</ele><time>2026-05-02T12:21:38.002Z</time></trkpt><trkpt lat="44.71478143801427" lon="10.073355989863387"><ele>275.0</ele><time>2026-05-02T12:21:40.002Z</time></trkpt><trkpt lat="44.71478427131547" lon="10.073447277406867"><ele>275.0</ele><time>2026-05-02T12:21:42.002Z</time></trkpt><trkpt lat="44.714731260448204" lon="10.073388762279613"><ele>275.0</ele><time>2026-05-02T12:21:45.002Z</time></trkpt><trkpt lat="44.71476029161793" lon="10.073245218315398"><ele>275.0</ele><time>2026-05-02T12:21:47.002Z</time></trkpt><trkpt lat="44.71478707412014" lon="10.073163245815612"><ele>275.0</ele><time>2026-05-02T12:21:48.002Z</time></trkpt><trkpt lat="44.714839484164706" lon="10.073070946871283"><ele>275.0</ele><time>2026-05-02T12:21:49.003Z</time></trkpt><trkpt lat="44.71490856342276" lon="10.072970501261182"><ele>275.0</ele><time>2026-05-02T12:21:50.003Z</time></trkpt><trkpt lat="44.714954253599664" lon="10.072893191144365"><ele>275.0</ele><time>2026-05-02T12:21:51.003Z</time></trkpt><trkpt lat="44.71499292302591" lon="10.07279916325221"><ele>275.0</ele><time>2026-05-02T12:21:53.003Z</time></trkpt><trkpt lat="44.71498370391457" lon="10.072690663658303"><ele>275.0</ele><time>2026-05-02T12:21:55.003Z</time></trkpt><trkpt lat="44.714934741848204" lon="10.07256777116096"><ele>275.0</ele><time>2026-05-02T12:21:57.003Z</time></trkpt><trkpt lat="44.71487891578987" lon="10.072479849728413"><ele>275.0</ele><time>2026-05-02T12:21:59.003Z</time></trkpt><trkpt lat="44.71482975310105" lon="10.07236296069861"><ele>275.0</ele><time>2026-05-02T12:22:01.003Z</time></trkpt><trkpt lat="44.714840608046394" lon="10.072269906370188"><ele>274.1666666666667</ele><time>2026-05-02T12:22:03.003Z</time></trkpt><trkpt lat="44.71493224679923" lon="10.072281481804733"><ele>273.33333333333337</ele><time>2026-05-02T12:22:06.003Z</time></trkpt><trkpt lat="44.71499763679944" lon="10.072325299979365"><ele>272.5</ele><time>2026-05-02T12:22:12.003Z</time></trkpt><trkpt lat="44.71504952489379" lon="10.072376555245796"><ele>271.6666666666667</ele><time>2026-05-02T12:22:35Z</time></trkpt><trkpt lat="44.714972499466874" lon="10.072316533255798"><ele>270.8333333333333</ele><time>2026-05-02T12:22:43Z</time></trkpt><trkpt lat="44.71489803324145" lon="10.072261293089214"><ele>270.0</ele><time>2026-05-02T12:22:45Z</time></trkpt><trkpt lat="44.71484620654754" lon="10.072200834389117"><ele>270.0</ele><time>2026-05-02T12:22:46Z</time></trkpt><trkpt lat="44.714809742704624" lon="10.072123329656169"><ele>270.0</ele><time>2026-05-02T12:22:47Z</time></trkpt><trkpt lat="44.714825086323664" lon="10.072025390724342"><ele>270.0</ele><time>2026-05-02T12:22:49.001Z</time></trkpt><trkpt lat="44.71488916271869" lon="10.071964991672637"><ele>270.0</ele><time>2026-05-02T12:22:56.001Z</time></trkpt><trkpt lat="44.71497191835157" lon="10.072017219483511"><ele>270.0</ele><time>2026-05-02T12:22:59.001Z</time></trkpt><trkpt lat="44.71503683017957" lon="10.072063107381235"><ele>270.0</ele><time>2026-05-02T12:23:02.001Z</time></trkpt><trkpt lat="44.71511115577952" lon="10.072092472450565"><ele>270.0</ele><time>2026-05-02T12:23:09.001Z</time></trkpt><trkpt lat="44.71517441499372" lon="10.072091720116626"><ele>270.0</ele><time>2026-05-02T12:23:12.001Z</time></trkpt><trkpt lat="44.71523931041233" lon="10.072076069541298"><ele>270.0</ele><time>2026-05-02T12:23:34.001Z</time></trkpt><trkpt lat="44.71530397433651" lon="10.072024216764065"><ele>270.0</ele><time>2026-05-02T12:23:37.001Z</time></trkpt><trkpt lat="44.715365654176594" lon="10.071953984780503"><ele>270.0</ele><time>2026-05-02T12:23:40.002Z</time></trkpt><trkpt lat="44.715407713161426" lon="10.07185210528927"><ele>270.0</ele><time>2026-05-02T12:23:42.002Z</time></trkpt><trkpt lat="44.715404663800314" lon="10.071759180329845"><ele>270.0</ele><time>2026-05-02T12:23:45.002Z</time></trkpt><trkpt lat="44.71540529207777" lon="10.071848723199404"><ele>270.0</ele><time>2026-05-02T12:24:21.002Z</time></trkpt><trkpt lat="44.715371996062345" lon="10.071934920100173"><ele>270.0</ele><time>2026-05-02T12:24:23.003Z</time></trkpt><trkpt lat="44.71532426108856" lon="10.07200259848715"><ele>270.0</ele><time>2026-05-02T12:24:24.003Z</time></trkpt><trkpt lat="44.71525384924656" lon="10.072066837315955"><ele>270.0</ele><time>2026-05-02T12:24:26Z</time></trkpt><trkpt lat="44.71515367729877" lon="10.072081005330661"><ele>270.0</ele><time>2026-05-02T12:24:29Z</time></trkpt><trkpt lat="44.71508143513849" lon="10.072063688940398"><ele>270.0</ele><time>2026-05-02T12:24:31Z</time></trkpt><trkpt lat="44.71501880849982" lon="10.07200249380463"><ele>270.0</ele><time>2026-05-02T12:24:33Z</time></trkpt><trkpt lat="44.71493555918334" lon="10.071972687679036"><ele>270.0</ele><time>2026-05-02T12:24:36Z</time></trkpt><trkpt lat="44.714866586467174" lon="10.071975575373429"><ele>270.0</ele><time>2026-05-02T12:24:38Z</time></trkpt><trkpt lat="44.71479730671622" lon="10.072013522292139"><ele>270.0</ele><time>2026-05-02T12:24:40Z</time></trkpt><trkpt lat="44.71480739666314" lon="10.072134610832778"><ele>270.0</ele><time>2026-05-02T12:24:42Z</time></trkpt><trkpt lat="44.71484988752098" lon="10.072233571390527"><ele>270.0</ele><time>2026-05-02T12:24:44Z</time></trkpt><trkpt lat="44.714922010840894" lon="10.07228332956305"><ele>270.0</ele><time>2026-05-02T12:24:46Z</time></trkpt><trkpt lat="44.71498654012982" lon="10.072324593282863"><ele>270.0</ele><time>2026-05-02T12:24:48Z</time></trkpt><trkpt lat="44.71503677499502" lon="10.07239179546856"><ele>270.0</ele><time>2026-05-02T12:24:50Z</time></trkpt><trkpt lat="44.71510604371002" lon="10.072477266101346"><ele>270.0</ele><time>2026-05-02T12:24:52Z</time></trkpt><trkpt lat="44.71514967154773" lon="10.072613200721682"><ele>270.0</ele><time>2026-05-02T12:24:54Z</time></trkpt><trkpt lat="44.71517682188543" lon="10.072708854363906"><ele>270.0</ele><time>2026-05-02T12:24:56.001Z</time></trkpt><trkpt lat="44.715248097443535" lon="10.072773380915377"><ele>265.8333333333333</ele><time>2026-05-02T12:24:58.001Z</time></trkpt><trkpt lat="44.71532422408623" lon="10.072812082826438"><ele>261.6666666666667</ele><time>2026-05-02T12:25:00.001Z</time></trkpt><trkpt lat="44.71540073184896" lon="10.072896285125386"><ele>257.5</ele><time>2026-05-02T12:25:02.001Z</time></trkpt><trkpt lat="44.715466393993985" lon="10.07292219434552"><ele>253.33333333333334</ele><time>2026-05-02T12:25:03.001Z</time></trkpt><trkpt lat="44.71554493126907" lon="10.07293174685814"><ele>249.16666666666669</ele><time>2026-05-02T12:25:04.001Z</time></trkpt><trkpt lat="44.715647664576785" lon="10.072976046776308"><ele>245.0</ele><time>2026-05-02T12:25:06.001Z</time></trkpt><trkpt lat="44.71572670407176" lon="10.073009966613451"><ele>245.00000000000003</ele><time>2026-05-02T12:25:08.001Z</time></trkpt><trkpt lat="44.715786792733006" lon="10.073069173289312"><ele>245.0</ele><time>2026-05-02T12:25:10.001Z</time></trkpt><trkpt lat="44.71586587700726" lon="10.0731226798945"><ele>245.0</ele><time>2026-05-02T12:25:12.001Z</time></trkpt><trkpt lat="44.71596021239039" lon="10.073095409043889"><ele>245.0</ele><time>2026-05-02T12:25:14.001Z</time></trkpt><trkpt lat="44.71604382001157" lon="10.073045697945613"><ele>245.00000000000003</ele><time>2026-05-02T12:25:16.001Z</time></trkpt><trkpt lat="44.71611743462606" lon="10.073056410686103"><ele>245.0</ele><time>2026-05-02T12:25:18.001Z</time></trkpt><trkpt lat="44.71616481649327" lon="10.073131732675284"><ele>243.00000000000003</ele><time>2026-05-02T12:25:20.001Z</time></trkpt><trkpt lat="44.71622646052614" lon="10.073208514620305"><ele>241.0</ele><time>2026-05-02T12:25:22.001Z</time></trkpt><trkpt lat="44.71629040473416" lon="10.07325579124392"><ele>239.0</ele><time>2026-05-02T12:25:24.001Z</time></trkpt><trkpt lat="44.71635803723602" lon="10.073281855805762"><ele>237.0</ele><time>2026-05-02T12:25:26.001Z</time></trkpt><trkpt lat="44.71642948910697" lon="10.073334547781153"><ele>235.00000000000003</ele><time>2026-05-02T12:25:28.001Z</time></trkpt><trkpt lat="44.71648095504932" lon="10.073403348752993"><ele>233.0</ele><time>2026-05-02T12:25:30.001Z</time></trkpt><trkpt lat="44.716537569044874" lon="10.073471625889342"><ele>233.00000000000003</ele><time>2026-05-02T12:25:32.001Z</time></trkpt><trkpt lat="44.71661812258469" lon="10.073508127207106"><ele>233.0</ele><time>2026-05-02T12:25:34.001Z</time></trkpt><trkpt lat="44.71669068728565" lon="10.07346790047618"><ele>233.0</ele><time>2026-05-02T12:25:36.001Z</time></trkpt><trkpt lat="44.7167557212844" lon="10.07339824081444"><ele>233.0</ele><time>2026-05-02T12:25:38.001Z</time></trkpt><trkpt lat="44.71681139619429" lon="10.073323151793891"><ele>233.00000000000003</ele><time>2026-05-02T12:25:40.001Z</time></trkpt><trkpt lat="44.716891904950664" lon="10.07325944293184"><ele>233.0</ele><time>2026-05-02T12:25:42.001Z</time></trkpt><trkpt lat="44.71696706000918" lon="10.073201500653543"><ele>227.33333333333334</ele><time>2026-05-02T12:25:44.001Z</time></trkpt><trkpt lat="44.717019871071265" lon="10.073151300682172"><ele>221.66666666666669</ele><time>2026-05-02T12:25:45.002Z</time></trkpt><trkpt lat="44.71707107161554" lon="10.073091810182026"><ele>216.0</ele><time>2026-05-02T12:25:46.002Z</time></trkpt><trkpt lat="44.71713991611583" lon="10.073049749368671"><ele>210.33333333333331</ele><time>2026-05-02T12:25:48.002Z</time></trkpt><trkpt lat="44.71722283007565" lon="10.072990037760054"><ele>204.66666666666666</ele><time>2026-05-02T12:25:50.002Z</time></trkpt><trkpt lat="44.7173002730975" lon="10.073016009480346"><ele>199.0</ele><time>2026-05-02T12:25:52.002Z</time></trkpt><trkpt lat="44.71733002653144" lon="10.073125946753983"><ele>199.0</ele><time>2026-05-02T12:25:54.002Z</time></trkpt><trkpt lat="44.717340561636135" lon="10.073249902094322"><ele>199.0</ele><time>2026-05-02T12:25:56.002Z</time></trkpt><trkpt lat="44.717285324120226" lon="10.07336595086512"><ele>199.0</ele><time>2026-05-02T12:25:58.002Z</time></trkpt><trkpt lat="44.7172452305419" lon="10.073477843923543"><ele>199.0</ele><time>2026-05-02T12:26:00.002Z</time></trkpt><trkpt lat="44.71718212107848" lon="10.073581084740404"><ele>199.0</ele><time>2026-05-02T12:26:02.002Z</time></trkpt><trkpt lat="44.71716521033647" lon="10.073702245841114"><ele>198.49999999999997</ele><time>2026-05-02T12:26:04.002Z</time></trkpt><trkpt lat="44.717154310566386" lon="10.0738058737058"><ele>198.0</ele><time>2026-05-02T12:26:06.002Z</time></trkpt><trkpt lat="44.7171735346402" lon="10.073933594798008"><ele>197.5</ele><time>2026-05-02T12:26:08.002Z</time></trkpt><trkpt lat="44.71721012027278" lon="10.07403907798567"><ele>197.0</ele><time>2026-05-02T12:26:10.002Z</time></trkpt><trkpt lat="44.71729852239868" lon="10.07406625183846"><ele>196.49999999999997</ele><time>2026-05-02T12:26:12.002Z</time></trkpt><trkpt lat="44.717390313530274" lon="10.074093993501801"><ele>196.0</ele><time>2026-05-02T12:26:14.002Z</time></trkpt><trkpt lat="44.717443217376534" lon="10.07418201441119"><ele>196.0</ele><time>2026-05-02T12:26:16.002Z</time></trkpt><trkpt lat="44.717458269434466" lon="10.074296189875072"><ele>196.0</ele><time>2026-05-02T12:26:18.002Z</time></trkpt><trkpt lat="44.717467670561106" lon="10.074424215763404"><ele>196.0</ele><time>2026-05-02T12:26:20.002Z</time></trkpt><trkpt lat="44.717476464656606" lon="10.074556251444283"><ele>196.0</ele><time>2026-05-02T12:26:22.002Z</time></trkpt><trkpt lat="44.71749844859692" lon="10.074696820755037"><ele>196.0</ele><time>2026-05-02T12:26:24.002Z</time></trkpt><trkpt lat="44.71752000281582" lon="10.074818783309885"><ele>195.99999999999997</ele><time>2026-05-02T12:26:26.002Z</time></trkpt><trkpt lat="44.71754372731223" lon="10.074932086433822"><ele>196.0</ele><time>2026-05-02T12:26:28.002Z</time></trkpt><trkpt lat="44.7175762034113" lon="10.075038953903977"><ele>196.0</ele><time>2026-05-02T12:26:30.002Z</time></trkpt><trkpt lat="44.7176362348169" lon="10.075140891022732"><ele>196.0</ele><time>2026-05-02T12:26:32Z</time></trkpt><trkpt lat="44.71770281912051" lon="10.075210271820293"><ele>195.99999999999997</ele><time>2026-05-02T12:26:34Z</time></trkpt><trkpt lat="44.717772697538855" lon="10.075274618960611"><ele>196.0</ele><time>2026-05-02T12:26:36Z</time></trkpt><trkpt lat="44.71786046231258" lon="10.07531078489083"><ele>192.83333333333331</ele><time>2026-05-02T12:26:38Z</time></trkpt><trkpt lat="44.717946389542085" lon="10.07534634698651"><ele>189.66666666666666</ele><time>2026-05-02T12:26:41Z</time></trkpt><trkpt lat="44.71801026057588" lon="10.075355179514265"><ele>186.5</ele><time>2026-05-02T12:26:43Z</time></trkpt><trkpt lat="44.71809985095556" lon="10.075301284066288"><ele>183.33333333333331</ele><time>2026-05-02T12:26:46Z</time></trkpt><trkpt lat="44.7181773851876" lon="10.07526928832008"><ele>180.16666666666666</ele><time>2026-05-02T12:26:49Z</time></trkpt><trkpt lat="44.71825128654578" lon="10.075265974589446"><ele>177.0</ele><time>2026-05-02T12:26:52Z</time></trkpt><trkpt lat="44.718315762705416" lon="10.07525463974649"><ele>177.0</ele><time>2026-05-02T12:27:00.001Z</time></trkpt><trkpt lat="44.718374474080406" lon="10.075208568553222"><ele>177.0</ele><time>2026-05-02T12:27:02.001Z</time></trkpt><trkpt lat="44.718425088446594" lon="10.075136996741884"><ele>177.0</ele><time>2026-05-02T12:27:04.001Z</time></trkpt><trkpt lat="44.71846470882986" lon="10.075030882159624"><ele>177.0</ele><time>2026-05-02T12:27:06.001Z</time></trkpt><trkpt lat="44.718482083024604" lon="10.074889929549068"><ele>177.0</ele><time>2026-05-02T12:27:08.001Z</time></trkpt><trkpt lat="44.71850533923453" lon="10.074711765364679"><ele>177.0</ele><time>2026-05-02T12:27:10.001Z</time></trkpt><trkpt lat="44.71850887643882" lon="10.074605453272047"><ele>177.0</ele><time>2026-05-02T12:27:11.001Z</time></trkpt><trkpt lat="44.71851287830989" lon="10.07449068855869"><ele>177.0</ele><time>2026-05-02T12:27:12.001Z</time></trkpt><trkpt lat="44.71851721053428" lon="10.074391650902733"><ele>177.0</ele><time>2026-05-02T12:27:13.001Z</time></trkpt><trkpt lat="44.71852889120702" lon="10.074299708338454"><ele>177.0</ele><time>2026-05-02T12:27:14.001Z</time></trkpt><trkpt lat="44.718534652738974" lon="10.074145052801295"><ele>177.0</ele><time>2026-05-02T12:27:16.001Z</time></trkpt><trkpt lat="44.71854797246497" lon="10.074058054833943"><ele>177.33333333333334</ele><time>2026-05-02T12:27:17.001Z</time></trkpt><trkpt lat="44.71857568501651" lon="10.073933859795302"><ele>177.66666666666666</ele><time>2026-05-02T12:27:19.001Z</time></trkpt><trkpt lat="44.71861521110002" lon="10.073832371708377"><ele>178.0</ele><time>2026-05-02T12:27:21.001Z</time></trkpt><trkpt lat="44.71867174937422" lon="10.07378771860991"><ele>178.33333333333331</ele><time>2026-05-02T12:27:43.001Z</time></trkpt><trkpt lat="44.71873627117647" lon="10.073751158685615"><ele>178.66666666666666</ele><time>2026-05-02T12:31:05Z</time></trkpt><trkpt lat="44.71881191224199" lon="10.073755420558033"><ele>179.0</ele><time>2026-05-02T12:31:08Z</time></trkpt><trkpt lat="44.71888654573694" lon="10.073758443842342"><ele>179.0</ele><time>2026-05-02T12:31:10Z</time></trkpt><trkpt lat="44.71895369293973" lon="10.073744215985098"><ele>179.0</ele><time>2026-05-02T12:31:12Z</time></trkpt><trkpt lat="44.71903005603681" lon="10.073736789701243"><ele>179.0</ele><time>2026-05-02T12:31:14Z</time></trkpt><trkpt lat="44.71911142450771" lon="10.073722975199598"><ele>179.0</ele><time>2026-05-02T12:31:16Z</time></trkpt><trkpt lat="44.71921251608167" lon="10.073709615145757"><ele>179.0</ele><time>2026-05-02T12:31:18Z</time></trkpt><trkpt lat="44.71933702873744" lon="10.073712200002356"><ele>180.66666666666666</ele><time>2026-05-02T12:31:20Z</time></trkpt><trkpt lat="44.71944936611381" lon="10.073698033262804"><ele>182.33333333333331</ele><time>2026-05-02T12:31:22Z</time></trkpt><trkpt lat="44.71954519607705" lon="10.07368648293967"><ele>184.0</ele><time>2026-05-02T12:31:24Z</time></trkpt><trkpt lat="44.71959317849061" lon="10.073767216768953"><ele>185.66666666666666</ele><time>2026-05-02T12:31:31Z</time></trkpt><trkpt lat="44.71961369519139" lon="10.073858762309696"><ele>187.33333333333334</ele><time>2026-05-02T12:31:33.001Z</time></trkpt><trkpt lat="44.719686020682325" lon="10.073926473276263"><ele>189.0</ele><time>2026-05-02T12:31:36.001Z</time></trkpt><trkpt lat="44.719780033988485" lon="10.073975508400462"><ele>189.0</ele><time>2026-05-02T12:31:38.001Z</time></trkpt><trkpt lat="44.7198936529899" lon="10.074001092653285"><ele>189.0</ele><time>2026-05-02T12:31:40.001Z</time></trkpt><trkpt lat="44.72000709925527" lon="10.074029787582754"><ele>189.0</ele><time>2026-05-02T12:31:42.001Z</time></trkpt><trkpt lat="44.72013042227506" lon="10.074060574480162"><ele>189.0</ele><time>2026-05-02T12:31:44.001Z</time></trkpt><trkpt lat="44.72025092773498" lon="10.07408268198538"><ele>191.6</ele><time>2026-05-02T12:31:46.001Z</time></trkpt><trkpt lat="44.72038192618561" lon="10.074114891059207"><ele>194.2</ele><time>2026-05-02T12:31:48.001Z</time></trkpt><trkpt lat="44.72044944965508" lon="10.074129235420006"><ele>196.79999999999998</ele><time>2026-05-02T12:31:49.001Z</time></trkpt><trkpt lat="44.72054608866948" lon="10.074149466730049"><ele>199.39999999999998</ele><time>2026-05-02T12:31:51.001Z</time></trkpt><trkpt lat="44.72064056549699" lon="10.074136150763259"><ele>202.0</ele><time>2026-05-02T12:31:53.001Z</time></trkpt><trkpt lat="44.720706808473686" lon="10.07409723539451"><ele>202.14285714285714</ele><time>2026-05-02T12:31:54.001Z</time></trkpt><trkpt lat="44.72076869058414" lon="10.074060259151336"><ele>202.28571428571428</ele><time>2026-05-02T12:31:55.001Z</time></trkpt><trkpt lat="44.720841477160114" lon="10.074022585245007"><ele>202.42857142857144</ele><time>2026-05-02T12:31:56.001Z</time></trkpt><trkpt lat="44.720908205727966" lon="10.073993823565123"><ele>202.57142857142856</ele><time>2026-05-02T12:31:57.001Z</time></trkpt><trkpt lat="44.72097824795376" lon="10.073984531361722"><ele>202.71428571428572</ele><time>2026-05-02T12:31:58.001Z</time></trkpt><trkpt lat="44.72105869214641" lon="10.073966755181967"><ele>202.85714285714286</ele><time>2026-05-02T12:31:59.001Z</time></trkpt><trkpt lat="44.721140236032646" lon="10.073951820111303"><ele>203.0</ele><time>2026-05-02T12:32:00.001Z</time></trkpt><trkpt lat="44.72120773166675" lon="10.07393662832974"><ele>205.16666666666669</ele><time>2026-05-02T12:32:01.001Z</time></trkpt><trkpt lat="44.72128538499665" lon="10.073918115995353"><ele>207.33333333333334</ele><time>2026-05-02T12:32:02.001Z</time></trkpt><trkpt lat="44.72136771856915" lon="10.073896028805988"><ele>209.5</ele><time>2026-05-02T12:32:03.001Z</time></trkpt><trkpt lat="44.721444759682626" lon="10.073880047240374"><ele>211.66666666666669</ele><time>2026-05-02T12:32:04.001Z</time></trkpt><trkpt lat="44.72153009967911" lon="10.073873533352076"><ele>213.83333333333334</ele><time>2026-05-02T12:32:05.001Z</time></trkpt><trkpt lat="44.721604762095865" lon="10.07387714569381"><ele>216.0</ele><time>2026-05-02T12:32:06.001Z</time></trkpt><trkpt lat="44.72170063267542" lon="10.073897787460544"><ele>216.0</ele><time>2026-05-02T12:32:07.001Z</time></trkpt><trkpt lat="44.72177657357535" lon="10.073912847426298"><ele>216.0</ele><time>2026-05-02T12:32:08.001Z</time></trkpt><trkpt lat="44.721852307973656" lon="10.073922829578907"><ele>216.0</ele><time>2026-05-02T12:32:09.001Z</time></trkpt><trkpt lat="44.721927564888944" lon="10.073913611463698"><ele>216.0</ele><time>2026-05-02T12:32:10.001Z</time></trkpt><trkpt lat="44.72199448773881" lon="10.073880566498131"><ele>216.0</ele><time>2026-05-02T12:32:11.001Z</time></trkpt><trkpt lat="44.72208647357919" lon="10.07378895728987"><ele>216.0</ele><time>2026-05-02T12:32:13.001Z</time></trkpt><trkpt lat="44.7221648372105" lon="10.07375473457035"><ele>217.0</ele><time>2026-05-02T12:32:15.001Z</time></trkpt><trkpt lat="44.72227718590583" lon="10.073722352278493"><ele>218.0</ele><time>2026-05-02T12:32:17.002Z</time></trkpt><trkpt lat="44.72234090481215" lon="10.073699179588827"><ele>219.0</ele><time>2026-05-02T12:32:18.002Z</time></trkpt><trkpt lat="44.72240393465013" lon="10.07368992753711"><ele>220.0</ele><time>2026-05-02T12:32:19.002Z</time></trkpt><trkpt lat="44.722472989594756" lon="10.073679956665037"><ele>221.0</ele><time>2026-05-02T12:32:20.002Z</time></trkpt><trkpt lat="44.7225362131169" lon="10.073668166930585"><ele>222.0</ele><time>2026-05-02T12:32:21.002Z</time></trkpt><trkpt lat="44.72259644693862" lon="10.073634169781844"><ele>223.0</ele><time>2026-05-02T12:32:22.002Z</time></trkpt><trkpt lat="44.72270219091837" lon="10.07356142519757"><ele>224.83333333333331</ele><time>2026-05-02T12:32:24.002Z</time></trkpt><trkpt lat="44.722753650259264" lon="10.07350933892337"><ele>226.66666666666666</ele><time>2026-05-02T12:32:25.002Z</time></trkpt><trkpt lat="44.72279867029177" lon="10.073447211433447"><ele>228.5</ele><time>2026-05-02T12:32:26.002Z</time></trkpt><trkpt lat="44.72284504138332" lon="10.073381859063604"><ele>230.33333333333331</ele><time>2026-05-02T12:32:27.002Z</time></trkpt><trkpt lat="44.72293534178441" lon="10.07326841052451"><ele>232.16666666666666</ele><time>2026-05-02T12:32:29.002Z</time></trkpt><trkpt lat="44.72303655439982" lon="10.0731604913565"><ele>234.0</ele><time>2026-05-02T12:32:31.002Z</time></trkpt><trkpt lat="44.72309466676095" lon="10.073106605941"><ele>234.0</ele><time>2026-05-02T12:32:32.002Z</time></trkpt><trkpt lat="44.7231968503395" lon="10.073026679230493"><ele>233.99999999999997</ele><time>2026-05-02T12:32:34.002Z</time></trkpt><trkpt lat="44.72330973459522" lon="10.0729705336896"><ele>233.99999999999997</ele><time>2026-05-02T12:32:36.002Z</time></trkpt><trkpt lat="44.723418115358044" lon="10.072926475704243"><ele>234.0</ele><time>2026-05-02T12:32:38.002Z</time></trkpt><trkpt lat="44.723480946022995" lon="10.072910014862327"><ele>234.0</ele><time>2026-05-02T12:32:39.002Z</time></trkpt><trkpt lat="44.72361336764806" lon="10.072900999243465"><ele>236.39999999999998</ele><time>2026-05-02T12:32:41.002Z</time></trkpt><trkpt lat="44.723733220098545" lon="10.07287925555299"><ele>238.79999999999998</ele><time>2026-05-02T12:32:43.002Z</time></trkpt><trkpt lat="44.72379648881362" lon="10.07287092216966"><ele>241.20000000000002</ele><time>2026-05-02T12:32:44.002Z</time></trkpt><trkpt lat="44.723859588985896" lon="10.072860640743166"><ele>243.60000000000002</ele><time>2026-05-02T12:32:45.002Z</time></trkpt><trkpt lat="44.72397760005047" lon="10.072841070631373"><ele>246.0</ele><time>2026-05-02T12:32:47.002Z</time></trkpt><trkpt lat="44.72408916083332" lon="10.07279654881574"><ele>246.0</ele><time>2026-05-02T12:32:49.002Z</time></trkpt><trkpt lat="44.72419118494928" lon="10.072721425302682"><ele>246.00000000000003</ele><time>2026-05-02T12:32:50.999Z</time></trkpt><trkpt lat="44.724303460888" lon="10.072666286422459"><ele>246.00000000000003</ele><time>2026-05-02T12:32:52.999Z</time></trkpt><trkpt lat="44.72436175781437" lon="10.072631566595216"><ele>246.0</ele><time>2026-05-02T12:32:53.999Z</time></trkpt><trkpt lat="44.724424556719505" lon="10.072587391453212"><ele>246.0</ele><time>2026-05-02T12:32:54.999Z</time></trkpt><trkpt lat="44.72452725637092" lon="10.072500985962646"><ele>247.5</ele><time>2026-05-02T12:32:56.999Z</time></trkpt><trkpt lat="44.72462983944186" lon="10.072412873442149"><ele>249.0</ele><time>2026-05-02T12:32:58.999Z</time></trkpt><trkpt lat="44.724683667633585" lon="10.072365305691942"><ele>250.5</ele><time>2026-05-02T12:32:59.999Z</time></trkpt><trkpt lat="44.72474729532654" lon="10.072306129391965"><ele>252.0</ele><time>2026-05-02T12:33:00.999Z</time></trkpt><trkpt lat="44.72482462364154" lon="10.072231043648442"><ele>253.5</ele><time>2026-05-02T12:33:01.999Z</time></trkpt><trkpt lat="44.72490097236945" lon="10.072165817723707"><ele>255.0</ele><time>2026-05-02T12:33:02.999Z</time></trkpt><trkpt lat="44.72499510650798" lon="10.072095299953496"><ele>255.0</ele><time>2026-05-02T12:33:03.999Z</time></trkpt><trkpt lat="44.72506869433852" lon="10.072050915921544"><ele>255.0</ele><time>2026-05-02T12:33:04.999Z</time></trkpt><trkpt lat="44.72513558811813" lon="10.072010319839448"><ele>255.0</ele><time>2026-05-02T12:33:05.999Z</time></trkpt><trkpt lat="44.725212925943055" lon="10.071973864333192"><ele>255.0</ele><time>2026-05-02T12:33:07Z</time></trkpt><trkpt lat="44.72528709379756" lon="10.071915296836844"><ele>255.0</ele><time>2026-05-02T12:33:08Z</time></trkpt><trkpt lat="44.72535463831684" lon="10.07183386609851"><ele>255.0</ele><time>2026-05-02T12:33:09Z</time></trkpt><trkpt lat="44.725402767878435" lon="10.07173759938517"><ele>257.0</ele><time>2026-05-02T12:33:10Z</time></trkpt><trkpt lat="44.725457855824146" lon="10.071639345802163"><ele>259.0</ele><time>2026-05-02T12:33:11Z</time></trkpt><trkpt lat="44.72550470340697" lon="10.071558970699506"><ele>261.0</ele><time>2026-05-02T12:33:12Z</time></trkpt><trkpt lat="44.72555528826702" lon="10.071466047760978"><ele>263.0</ele><time>2026-05-02T12:33:13Z</time></trkpt><trkpt lat="44.725606817558344" lon="10.071366875801013"><ele>265.0</ele><time>2026-05-02T12:33:14Z</time></trkpt><trkpt lat="44.72566388893823" lon="10.071276030057804"><ele>267.0</ele><time>2026-05-02T12:33:15Z</time></trkpt><trkpt lat="44.72571780170592" lon="10.071194907794526"><ele>267.6666666666667</ele><time>2026-05-02T12:33:16Z</time></trkpt><trkpt lat="44.72577833361094" lon="10.071099673164172"><ele>268.3333333333333</ele><time>2026-05-02T12:33:17Z</time></trkpt><trkpt lat="44.72583112852035" lon="10.071018326895043"><ele>269.0</ele><time>2026-05-02T12:33:18Z</time></trkpt><trkpt lat="44.725880518796146" lon="10.070938984256609"><ele>269.66666666666663</ele><time>2026-05-02T12:33:19Z</time></trkpt><trkpt lat="44.72593353236369" lon="10.0708716788555"><ele>270.3333333333333</ele><time>2026-05-02T12:33:20Z</time></trkpt><trkpt lat="44.725997344388304" lon="10.070801721022425"><ele>271.0</ele><time>2026-05-02T12:33:21Z</time></trkpt><trkpt lat="44.72606004784314" lon="10.070724617703581"><ele>273.16666666666663</ele><time>2026-05-02T12:33:22Z</time></trkpt><trkpt lat="44.726117851466405" lon="10.070639763989156"><ele>275.3333333333333</ele><time>2026-05-02T12:33:23Z</time></trkpt><trkpt lat="44.72617156826825" lon="10.070545168328973"><ele>277.5</ele><time>2026-05-02T12:33:24Z</time></trkpt><trkpt lat="44.726224138321875" lon="10.070485269388218"><ele>279.6666666666667</ele><time>2026-05-02T12:33:25Z</time></trkpt><trkpt lat="44.72629048542117" lon="10.070420898636383"><ele>281.83333333333337</ele><time>2026-05-02T12:33:26Z</time></trkpt><trkpt lat="44.726346404574144" lon="10.070339858298976"><ele>284.0</ele><time>2026-05-02T12:33:27Z</time></trkpt><trkpt lat="44.72640851848586" lon="10.070261200964408"><ele>284.0</ele><time>2026-05-02T12:33:28Z</time></trkpt><trkpt lat="44.72646811120703" lon="10.070187911390951"><ele>284.0</ele><time>2026-05-02T12:33:29Z</time></trkpt><trkpt lat="44.7265339448899" lon="10.07012359883037"><ele>284.0</ele><time>2026-05-02T12:33:30Z</time></trkpt><trkpt lat="44.726601352844874" lon="10.070073962517299"><ele>284.0</ele><time>2026-05-02T12:33:31Z</time></trkpt><trkpt lat="44.72666953722687" lon="10.070048521890229"><ele>284.0</ele><time>2026-05-02T12:33:32Z</time></trkpt><trkpt lat="44.72674016838219" lon="10.070047493450579"><ele>284.0</ele><time>2026-05-02T12:33:33Z</time></trkpt><trkpt lat="44.72682026033785" lon="10.070057398002803"><ele>284.0</ele><time>2026-05-02T12:33:34Z</time></trkpt><trkpt lat="44.72689048282377" lon="10.070098004481714"><ele>284.0</ele><time>2026-05-02T12:33:35Z</time></trkpt><trkpt lat="44.72696037151062" lon="10.070141484906188"><ele>284.0</ele><time>2026-05-02T12:33:36Z</time></trkpt><trkpt lat="44.72707274860278" lon="10.070180977853461"><ele>284.0</ele><time>2026-05-02T12:33:38Z</time></trkpt><trkpt lat="44.727149957780355" lon="10.070211958073545"><ele>284.0</ele><time>2026-05-02T12:33:45.001Z</time></trkpt><trkpt lat="44.72725599311767" lon="10.070246773307304"><ele>285.8</ele><time>2026-05-02T12:33:47.001Z</time></trkpt><trkpt lat="44.72736667121503" lon="10.07028071537096"><ele>287.59999999999997</ele><time>2026-05-02T12:33:49.001Z</time></trkpt><trkpt lat="44.727491320379045" lon="10.07028043793112"><ele>289.4</ele><time>2026-05-02T12:33:51.001Z</time></trkpt><trkpt lat="44.72756836218128" lon="10.070281409040557"><ele>291.2</ele><time>2026-05-02T12:33:52.001Z</time></trkpt><trkpt lat="44.72766348690981" lon="10.07029226823984"><ele>293.0</ele><time>2026-05-02T12:33:53.001Z</time></trkpt><trkpt lat="44.72775358373553" lon="10.070322935934259"><ele>295.1666666666667</ele><time>2026-05-02T12:33:54.001Z</time></trkpt><trkpt lat="44.72783762525036" lon="10.070355804097511"><ele>297.33333333333337</ele><time>2026-05-02T12:33:55.001Z</time></trkpt><trkpt lat="44.72791250277834" lon="10.07039843114064"><ele>299.5</ele><time>2026-05-02T12:33:56.001Z</time></trkpt><trkpt lat="44.727971739191126" lon="10.070472077500948"><ele>301.6666666666667</ele><time>2026-05-02T12:33:57.001Z</time></trkpt><trkpt lat="44.728018285619605" lon="10.07055474986729"><ele>303.8333333333333</ele><time>2026-05-02T12:33:58.001Z</time></trkpt><trkpt lat="44.728047582020416" lon="10.070639276330626"><ele>306.0</ele><time>2026-05-02T12:33:59.001Z</time></trkpt><trkpt lat="44.72808859452483" lon="10.070799146876203"><ele>306.0</ele><time>2026-05-02T12:34:01.001Z</time></trkpt><trkpt lat="44.72811140781926" lon="10.070948621888569"><ele>306.0</ele><time>2026-05-02T12:34:03.001Z</time></trkpt><trkpt lat="44.72808053683781" lon="10.07084582105673"><ele>306.0</ele><time>2026-05-02T12:34:14.001Z</time></trkpt><trkpt lat="44.72804834415983" lon="10.070695927890974"><ele>306.0</ele><time>2026-05-02T12:34:16.001Z</time></trkpt><trkpt lat="44.728009471789534" lon="10.070564049018222"><ele>306.0</ele><time>2026-05-02T12:34:17.001Z</time></trkpt><trkpt lat="44.72794522531255" lon="10.07043434422268"><ele>306.0</ele><time>2026-05-02T12:34:19.001Z</time></trkpt><trkpt lat="44.72784792537518" lon="10.070354201436546"><ele>306.0</ele><time>2026-05-02T12:34:21.002Z</time></trkpt><trkpt lat="44.72777923845203" lon="10.070321300676149"><ele>306.0</ele><time>2026-05-02T12:34:22.002Z</time></trkpt><trkpt lat="44.727707113859275" lon="10.07029561568"><ele>306.0</ele><time>2026-05-02T12:34:23.002Z</time></trkpt><trkpt lat="44.72763084379489" lon="10.070284132307362"><ele>306.0</ele><time>2026-05-02T12:34:24.002Z</time></trkpt><trkpt lat="44.72755378612532" lon="10.070280299701519"><ele>306.0</ele><time>2026-05-02T12:34:25.002Z</time></trkpt><trkpt lat="44.72748277013311" lon="10.070274887638554"><ele>303.40000000000003</ele><time>2026-05-02T12:34:26.002Z</time></trkpt><trkpt lat="44.727369687916344" lon="10.070257817314538"><ele>300.8</ele><time>2026-05-02T12:34:28.002Z</time></trkpt><trkpt lat="44.72728022169121" lon="10.070233108547104"><ele>298.20000000000005</ele><time>2026-05-02T12:34:30.002Z</time></trkpt><trkpt lat="44.72721776368081" lon="10.070201695266322"><ele>295.6</ele><time>2026-05-02T12:34:32.002Z</time></trkpt><trkpt lat="44.727202097562326" lon="10.070085722749765"><ele>293.0</ele><time>2026-05-02T12:34:35.002Z</time></trkpt><trkpt lat="44.72729515541064" lon="10.069980851707484"><ele>293.0</ele><time>2026-05-02T12:34:37.002Z</time></trkpt><trkpt lat="44.727358388517864" lon="10.069929701591484"><ele>293.0</ele><time>2026-05-02T12:34:38.002Z</time></trkpt><trkpt lat="44.72744374112755" lon="10.069867802639934"><ele>293.0</ele><time>2026-05-02T12:34:39.002Z</time></trkpt><trkpt lat="44.727554920820296" lon="10.06979532733252"><ele>293.0</ele><time>2026-05-02T12:34:40.002Z</time></trkpt><trkpt lat="44.72768162190102" lon="10.06971978875576"><ele>293.0</ele><time>2026-05-02T12:34:41.002Z</time></trkpt><trkpt lat="44.72779509771939" lon="10.069644729462572"><ele>295.75</ele><time>2026-05-02T12:34:42.002Z</time></trkpt><trkpt lat="44.72790859776437" lon="10.069543231472796"><ele>298.5</ele><time>2026-05-02T12:34:43.002Z</time></trkpt><trkpt lat="44.72800421183763" lon="10.069434251144198"><ele>301.25</ele><time>2026-05-02T12:34:44.002Z</time></trkpt><trkpt lat="44.72808672961304" lon="10.069318384670993"><ele>304.0</ele><time>2026-05-02T12:34:45.002Z</time></trkpt><trkpt lat="44.72815271041403" lon="10.069191146581701"><ele>304.4</ele><time>2026-05-02T12:34:46.002Z</time></trkpt><trkpt lat="44.728198846356925" lon="10.069056793351303"><ele>304.79999999999995</ele><time>2026-05-02T12:34:47.002Z</time></trkpt><trkpt lat="44.72824753572133" lon="10.068926395211173"><ele>305.20000000000005</ele><time>2026-05-02T12:34:48.002Z</time></trkpt><trkpt lat="44.72829628214007" lon="10.068806608390618"><ele>305.6</ele><time>2026-05-02T12:34:49.002Z</time></trkpt><trkpt lat="44.72834119179049" lon="10.068693096506054"><ele>306.0</ele><time>2026-05-02T12:34:50.002Z</time></trkpt><trkpt lat="44.72838028033656" lon="10.068580634089615"><ele>306.0</ele><time>2026-05-02T12:34:51.002Z</time></trkpt><trkpt lat="44.7284228933706" lon="10.06846889447738"><ele>306.0</ele><time>2026-05-02T12:34:52.002Z</time></trkpt><trkpt lat="44.7285133748189" lon="10.068260399006308"><ele>306.0</ele><time>2026-05-02T12:34:54.002Z</time></trkpt><trkpt lat="44.728563904032654" lon="10.06815451918556"><ele>306.0</ele><time>2026-05-02T12:34:55.002Z</time></trkpt><trkpt lat="44.72861226429737" lon="10.068052545489584"><ele>306.0</ele><time>2026-05-02T12:34:55.998Z</time></trkpt><trkpt lat="44.72865888537588" lon="10.067947304364184"><ele>307.5</ele><time>2026-05-02T12:34:56.998Z</time></trkpt><trkpt lat="44.728704803763385" lon="10.067845497050104"><ele>309.0</ele><time>2026-05-02T12:34:57.998Z</time></trkpt><trkpt lat="44.72874637303234" lon="10.067747814834256"><ele>310.5</ele><time>2026-05-02T12:34:58.998Z</time></trkpt><trkpt lat="44.72878847331064" lon="10.067646281187734"><ele>312.0</ele><time>2026-05-02T12:34:59.998Z</time></trkpt><trkpt lat="44.72883398912485" lon="10.067543545417191"><ele>313.5</ele><time>2026-05-02T12:35:00.998Z</time></trkpt><trkpt lat="44.728883255450874" lon="10.067440447183635"><ele>315.0</ele><time>2026-05-02T12:35:01.998Z</time></trkpt><trkpt lat="44.7289338875522" lon="10.067330546789997"><ele>315.6</ele><time>2026-05-02T12:35:02.998Z</time></trkpt><trkpt lat="44.72898430705372" lon="10.067217400572702"><ele>316.2</ele><time>2026-05-02T12:35:03.998Z</time></trkpt><trkpt lat="44.72903686640059" lon="10.067098313323616"><ele>316.8</ele><time>2026-05-02T12:35:04.998Z</time></trkpt><trkpt lat="44.72908511911764" lon="10.06697776719318"><ele>317.4</ele><time>2026-05-02T12:35:05.998Z</time></trkpt><trkpt lat="44.72913449312196" lon="10.066852956444295"><ele>318.0</ele><time>2026-05-02T12:35:06.998Z</time></trkpt><trkpt lat="44.72919231028233" lon="10.066740199755065"><ele>318.0</ele><time>2026-05-02T12:35:07.998Z</time></trkpt><trkpt lat="44.729245802358015" lon="10.066642270004637"><ele>318.0</ele><time>2026-05-02T12:35:08.998Z</time></trkpt><trkpt lat="44.72929484665142" lon="10.066552254000847"><ele>318.0</ele><time>2026-05-02T12:35:09.999Z</time></trkpt><trkpt lat="44.72934208017968" lon="10.06645645338703"><ele>318.0</ele><time>2026-05-02T12:35:10.999Z</time></trkpt><trkpt lat="44.72939274350786" lon="10.066354396289082"><ele>318.0</ele><time>2026-05-02T12:35:11.999Z</time></trkpt><trkpt lat="44.729441805827946" lon="10.06625310321653"><ele>318.0</ele><time>2026-05-02T12:35:12.999Z</time></trkpt><trkpt lat="44.72948675821893" lon="10.066152477156306"><ele>319.6666666666667</ele><time>2026-05-02T12:35:13.999Z</time></trkpt><trkpt lat="44.72953165475125" lon="10.066052549869868"><ele>321.3333333333333</ele><time>2026-05-02T12:35:14.999Z</time></trkpt><trkpt lat="44.72957715900587" lon="10.065957913637448"><ele>323.0</ele><time>2026-05-02T12:35:15.999Z</time></trkpt><trkpt lat="44.72961808811255" lon="10.065866742771219"><ele>324.66666666666663</ele><time>2026-05-02T12:35:16.999Z</time></trkpt><trkpt lat="44.72965364850575" lon="10.06578523257066"><ele>326.3333333333333</ele><time>2026-05-02T12:35:17.999Z</time></trkpt><trkpt lat="44.72970973132184" lon="10.065673308787256"><ele>328.0</ele><time>2026-05-02T12:35:19.999Z</time></trkpt><trkpt lat="44.729618517168625" lon="10.065726668627791"><ele>328.2</ele><time>2026-05-02T12:35:25.999Z</time></trkpt><trkpt lat="44.7296054681073" lon="10.065866201069781"><ele>328.4</ele><time>2026-05-02T12:35:27Z</time></trkpt><trkpt lat="44.729542468480325" lon="10.065991109197581"><ele>328.59999999999997</ele><time>2026-05-02T12:35:28Z</time></trkpt><trkpt lat="44.72947970566756" lon="10.066126314528404"><ele>328.79999999999995</ele><time>2026-05-02T12:35:29Z</time></trkpt><trkpt lat="44.729413512064745" lon="10.066271044641006"><ele>329.0</ele><time>2026-05-02T12:35:30Z</time></trkpt><trkpt lat="44.7293509057851" lon="10.066406304022674"><ele>326.8</ele><time>2026-05-02T12:35:31Z</time></trkpt><trkpt lat="44.7292933934969" lon="10.066528487479335"><ele>324.59999999999997</ele><time>2026-05-02T12:35:32Z</time></trkpt><trkpt lat="44.72924182753296" lon="10.066643046662005"><ele>322.4</ele><time>2026-05-02T12:35:33Z</time></trkpt><trkpt lat="44.72919032359971" lon="10.066748304914277"><ele>320.2</ele><time>2026-05-02T12:35:34Z</time></trkpt><trkpt lat="44.72914168027766" lon="10.06685191816683"><ele>318.0</ele><time>2026-05-02T12:35:35Z</time></trkpt><trkpt lat="44.72909174121713" lon="10.06695787443395"><ele>318.0</ele><time>2026-05-02T12:35:36Z</time></trkpt><trkpt lat="44.72904025574587" lon="10.067062904555284"><ele>318.0</ele><time>2026-05-02T12:35:37Z</time></trkpt><trkpt lat="44.728990737691106" lon="10.06716507374017"><ele>318.0</ele><time>2026-05-02T12:35:38Z</time></trkpt><trkpt lat="44.728943127726374" lon="10.067264722634865"><ele>318.0</ele><time>2026-05-02T12:35:39Z</time></trkpt><trkpt lat="44.728894133322044" lon="10.067368011280244"><ele>318.0</ele><time>2026-05-02T12:35:40Z</time></trkpt><trkpt lat="44.72884357542016" lon="10.067476908664872"><ele>318.0</ele><time>2026-05-02T12:35:41Z</time></trkpt><trkpt lat="44.72879860661231" lon="10.067582981731386"><ele>317.4</ele><time>2026-05-02T12:35:42Z</time></trkpt><trkpt lat="44.728754071347375" lon="10.067693381188993"><ele>316.8</ele><time>2026-05-02T12:35:43Z</time></trkpt><trkpt lat="44.728705976010765" lon="10.067814985639867"><ele>316.2</ele><time>2026-05-02T12:35:44Z</time></trkpt><trkpt lat="44.728653161719386" lon="10.06793504659567"><ele>315.6</ele><time>2026-05-02T12:35:45Z</time></trkpt><trkpt lat="44.72860184217694" lon="10.068043255079582"><ele>315.0</ele><time>2026-05-02T12:35:46Z</time></trkpt><trkpt lat="44.72855539345727" lon="10.06814964532565"><ele>313.4</ele><time>2026-05-02T12:35:47Z</time></trkpt><trkpt lat="44.728512564783074" lon="10.068250000698693"><ele>311.8</ele><time>2026-05-02T12:35:48Z</time></trkpt><trkpt lat="44.7284742063186" lon="10.068351534368965"><ele>310.2</ele><time>2026-05-02T12:35:49Z</time></trkpt><trkpt lat="44.72843028891209" lon="10.068471696052923"><ele>308.6</ele><time>2026-05-02T12:35:50Z</time></trkpt><trkpt lat="44.72839419949707" lon="10.06859114720712"><ele>307.0</ele><time>2026-05-02T12:35:51Z</time></trkpt><trkpt lat="44.728348357022206" lon="10.068719678300404"><ele>306.8</ele><time>2026-05-02T12:35:52Z</time></trkpt><trkpt lat="44.72829357445688" lon="10.068847441897429"><ele>306.6</ele><time>2026-05-02T12:35:53Z</time></trkpt><trkpt lat="44.72822993198569" lon="10.068980010976546"><ele>306.40000000000003</ele><time>2026-05-02T12:35:54.001Z</time></trkpt><trkpt lat="44.728173260539165" lon="10.069109032969108"><ele>306.2</ele><time>2026-05-02T12:35:55.001Z</time></trkpt><trkpt lat="44.72812485024624" lon="10.069223044100214"><ele>306.0</ele><time>2026-05-02T12:35:56.001Z</time></trkpt><trkpt lat="44.72807209153333" lon="10.069328679012592"><ele>305.6666666666667</ele><time>2026-05-02T12:35:57.001Z</time></trkpt><trkpt lat="44.72801236223651" lon="10.069422370480344"><ele>305.3333333333333</ele><time>2026-05-02T12:35:58.001Z</time></trkpt><trkpt lat="44.727944981331156" lon="10.069502351467992"><ele>305.0</ele><time>2026-05-02T12:35:59.001Z</time></trkpt><trkpt lat="44.72787382709746" lon="10.069570673823899"><ele>304.66666666666663</ele><time>2026-05-02T12:36:00.001Z</time></trkpt><trkpt lat="44.72780346254186" lon="10.069631558014175"><ele>304.3333333333333</ele><time>2026-05-02T12:36:01.001Z</time></trkpt><trkpt lat="44.72773101653269" lon="10.069688383057493"><ele>304.0</ele><time>2026-05-02T12:36:02.001Z</time></trkpt><trkpt lat="44.72765278354724" lon="10.06973561406695"><ele>302.16666666666663</ele><time>2026-05-02T12:36:03.001Z</time></trkpt><trkpt lat="44.72756897085243" lon="10.069783565778813"><ele>300.3333333333333</ele><time>2026-05-02T12:36:04.001Z</time></trkpt><trkpt lat="44.72749257381807" lon="10.069818538477607"><ele>298.5</ele><time>2026-05-02T12:36:05.001Z</time></trkpt><trkpt lat="44.727426380305765" lon="10.069856705128924"><ele>296.6666666666667</ele><time>2026-05-02T12:36:06.001Z</time></trkpt><trkpt lat="44.72736508944759" lon="10.069896525240793"><ele>294.83333333333337</ele><time>2026-05-02T12:36:07.001Z</time></trkpt><trkpt lat="44.72726246594024" lon="10.06998603296151"><ele>293.0</ele><time>2026-05-02T12:36:09.001Z</time></trkpt><trkpt lat="44.727214928928724" lon="10.07004557600879"><ele>293.0</ele><time>2026-05-02T12:36:10.001Z</time></trkpt><trkpt lat="44.727172900426496" lon="10.070156689349744"><ele>293.0</ele><time>2026-05-02T12:36:12.001Z</time></trkpt><trkpt lat="44.72724112995009" lon="10.070261476945944"><ele>293.0</ele><time>2026-05-02T12:36:14.001Z</time></trkpt><trkpt lat="44.72730825704071" lon="10.070278071894677"><ele>293.0</ele><time>2026-05-02T12:36:15.001Z</time></trkpt><trkpt lat="44.72738387411182" lon="10.070289703639645"><ele>293.0</ele><time>2026-05-02T12:36:16.001Z</time></trkpt><trkpt lat="44.727465259464616" lon="10.070291075981704"><ele>293.0</ele><time>2026-05-02T12:36:17.001Z</time></trkpt><trkpt lat="44.72755275988505" lon="10.070286160753545"><ele>293.0</ele><time>2026-05-02T12:36:18.001Z</time></trkpt><trkpt lat="44.72764684107465" lon="10.070291070298953"><ele>293.0</ele><time>2026-05-02T12:36:19.001Z</time></trkpt><trkpt lat="44.727750703838886" lon="10.070307776938282"><ele>293.0</ele><time>2026-05-02T12:36:20.001Z</time></trkpt><trkpt lat="44.72785367399477" lon="10.070345428731345"><ele>293.0</ele><time>2026-05-02T12:36:21.001Z</time></trkpt><trkpt lat="44.72794103365946" lon="10.070418815706756"><ele>293.0</ele><time>2026-05-02T12:36:22.001Z</time></trkpt><trkpt lat="44.72801344975171" lon="10.070514400160476"><ele>295.6</ele><time>2026-05-02T12:36:23.001Z</time></trkpt><trkpt lat="44.72806792402172" lon="10.070641003425024"><ele>298.20000000000005</ele><time>2026-05-02T12:36:24.001Z</time></trkpt><trkpt lat="44.72809883070665" lon="10.070779415105488"><ele>300.8</ele><time>2026-05-02T12:36:25.001Z</time></trkpt><trkpt lat="44.728117393885626" lon="10.070922499036065"><ele>303.40000000000003</ele><time>2026-05-02T12:36:26.001Z</time></trkpt><trkpt lat="44.72811615970973" lon="10.071067628720508"><ele>306.0</ele><time>2026-05-02T12:36:27.002Z</time></trkpt><trkpt lat="44.72807537012766" lon="10.071213710230895"><ele>307.2</ele><time>2026-05-02T12:36:28.002Z</time></trkpt><trkpt lat="44.72803345922992" lon="10.071352579519262"><ele>308.40000000000003</ele><time>2026-05-02T12:36:29.002Z</time></trkpt><trkpt lat="44.72799434807072" lon="10.071498408549362"><ele>309.6</ele><time>2026-05-02T12:36:30.002Z</time></trkpt><trkpt lat="44.72795246990565" lon="10.07164910228618"><ele>310.8</ele><time>2026-05-02T12:36:31.002Z</time></trkpt><trkpt lat="44.72791040396536" lon="10.07179852371092"><ele>312.0</ele><time>2026-05-02T12:36:32.002Z</time></trkpt><trkpt lat="44.72786343600888" lon="10.07194445558276"><ele>311.1666666666667</ele><time>2026-05-02T12:36:33.002Z</time></trkpt><trkpt lat="44.72781523689086" lon="10.072080329101146"><ele>310.3333333333333</ele><time>2026-05-02T12:36:34.002Z</time></trkpt><trkpt lat="44.72776135667034" lon="10.072214589964661"><ele>309.5</ele><time>2026-05-02T12:36:35.002Z</time></trkpt><trkpt lat="44.72771146176719" lon="10.07231986933992"><ele>308.66666666666663</ele><time>2026-05-02T12:36:36.002Z</time></trkpt><trkpt lat="44.72768756021805" lon="10.072404700887965"><ele>307.8333333333333</ele><time>2026-05-02T12:36:37.002Z</time></trkpt><trkpt lat="44.727681604425804" lon="10.072506368955482"><ele>307.0</ele><time>2026-05-02T12:36:38.002Z</time></trkpt><trkpt lat="44.72774035449344" lon="10.072579343210714"><ele>309.6</ele><time>2026-05-02T12:36:40.002Z</time></trkpt><trkpt lat="44.727808545775076" lon="10.07251384980447"><ele>312.2</ele><time>2026-05-02T12:36:42.002Z</time></trkpt><trkpt lat="44.727835052366295" lon="10.072352588422396"><ele>314.8</ele><time>2026-05-02T12:36:44.002Z</time></trkpt><trkpt lat="44.7278961680712" lon="10.072235903684332"><ele>317.4</ele><time>2026-05-02T12:36:46.002Z</time></trkpt><trkpt lat="44.72797264664088" lon="10.072168816603376"><ele>320.0</ele><time>2026-05-02T12:36:48.002Z</time></trkpt><trkpt lat="44.728049742380655" lon="10.072149628726926"><ele>320.0</ele><time>2026-05-02T12:36:50.002Z</time></trkpt><trkpt lat="44.72814612623157" lon="10.072175070508356"><ele>320.0</ele><time>2026-05-02T12:36:52.002Z</time></trkpt><trkpt lat="44.72820942866023" lon="10.072213747962053"><ele>320.0</ele><time>2026-05-02T12:36:54.002Z</time></trkpt><trkpt lat="44.72819659543073" lon="10.072302766311918"><ele>320.0</ele><time>2026-05-02T12:36:58.002Z</time></trkpt><trkpt lat="44.72816251377222" lon="10.07240277618599"><ele>320.0</ele><time>2026-05-02T12:37:03.998Z</time></trkpt><trkpt lat="44.728139530089656" lon="10.072511424591147"><ele>320.0</ele><time>2026-05-02T12:37:05.998Z</time></trkpt><trkpt lat="44.72811749446369" lon="10.07266461531582"><ele>322.5</ele><time>2026-05-02T12:37:07.998Z</time></trkpt><trkpt lat="44.72814568965394" lon="10.072821618613496"><ele>325.0</ele><time>2026-05-02T12:37:09.999Z</time></trkpt><trkpt lat="44.72818365793742" lon="10.072978908323767"><ele>327.5</ele><time>2026-05-02T12:37:11.999Z</time></trkpt><trkpt lat="44.72823404061178" lon="10.073122244692552"><ele>330.0</ele><time>2026-05-02T12:37:13.999Z</time></trkpt><trkpt lat="44.72830135827363" lon="10.073242990414784"><ele>329.6666666666667</ele><time>2026-05-02T12:37:15.999Z</time></trkpt><trkpt lat="44.728384638421645" lon="10.073338971332905"><ele>329.3333333333333</ele><time>2026-05-02T12:37:17.999Z</time></trkpt><trkpt lat="44.72847144352109" lon="10.073369661714832"><ele>329.0</ele><time>2026-05-02T12:37:19.999Z</time></trkpt><trkpt lat="44.72853569079894" lon="10.073357383781351"><ele>328.66666666666663</ele><time>2026-05-02T12:37:21.999Z</time></trkpt><trkpt lat="44.728602660598696" lon="10.073308006475806"><ele>328.3333333333333</ele><time>2026-05-02T12:38:24.002Z</time></trkpt><trkpt lat="44.728678270309274" lon="10.073258141810765"><ele>328.0</ele><time>2026-05-02T12:38:26.002Z</time></trkpt><trkpt lat="44.72874958474589" lon="10.073168452151329"><ele>329.3333333333333</ele><time>2026-05-02T12:38:28.002Z</time></trkpt><trkpt lat="44.728814174333856" lon="10.073078286764018"><ele>330.66666666666663</ele><time>2026-05-02T12:38:30.002Z</time></trkpt><trkpt lat="44.72887619944151" lon="10.072983244696038"><ele>332.0</ele><time>2026-05-02T12:38:32.002Z</time></trkpt><trkpt lat="44.728914691916884" lon="10.072885205409163"><ele>333.3333333333333</ele><time>2026-05-02T12:38:34.002Z</time></trkpt><trkpt lat="44.72891795865585" lon="10.072773731181751"><ele>334.6666666666667</ele><time>2026-05-02T12:38:36.002Z</time></trkpt><trkpt lat="44.72893192250771" lon="10.072661648288356"><ele>336.0</ele><time>2026-05-02T12:38:38.002Z</time></trkpt><trkpt lat="44.72895209354462" lon="10.07254236914703"><ele>337.1666666666667</ele><time>2026-05-02T12:38:40.002Z</time></trkpt><trkpt lat="44.728973645686274" lon="10.072424765506403"><ele>338.3333333333333</ele><time>2026-05-02T12:38:42.002Z</time></trkpt><trkpt lat="44.72900484691274" lon="10.072313703417821"><ele>339.5</ele><time>2026-05-02T12:38:44.002Z</time></trkpt><trkpt lat="44.72905507016764" lon="10.07222905279313"><ele>340.66666666666663</ele><time>2026-05-02T12:38:46.002Z</time></trkpt><trkpt lat="44.72912590813557" lon="10.072178086015631"><ele>341.8333333333333</ele><time>2026-05-02T12:38:53.002Z</time></trkpt><trkpt lat="44.729202210076615" lon="10.072078545513726"><ele>343.0</ele><time>2026-05-02T12:38:55.003Z</time></trkpt><trkpt lat="44.729254389814265" lon="10.071938571974428"><ele>343.0</ele><time>2026-05-02T12:38:57.003Z</time></trkpt><trkpt lat="44.72927913395906" lon="10.071854766943629"><ele>343.0</ele><time>2026-05-02T12:38:58.003Z</time></trkpt><trkpt lat="44.72930310057671" lon="10.071704571791187"><ele>343.0</ele><time>2026-05-02T12:39:00.003Z</time></trkpt><trkpt lat="44.7293121758585" lon="10.071551408651633"><ele>343.0</ele><time>2026-05-02T12:39:02.003Z</time></trkpt><trkpt lat="44.72934015933874" lon="10.07145372905446"><ele>343.0</ele><time>2026-05-02T12:39:03.003Z</time></trkpt><trkpt lat="44.729397122201206" lon="10.071297257445574"><ele>344.2</ele><time>2026-05-02T12:39:05.003Z</time></trkpt><trkpt lat="44.72944954593384" lon="10.071123390394915"><ele>345.4</ele><time>2026-05-02T12:39:07.003Z</time></trkpt><trkpt lat="44.72949420646076" lon="10.070997850228618"><ele>346.59999999999997</ele><time>2026-05-02T12:39:09Z</time></trkpt><trkpt lat="44.72959548952147" lon="10.070900637652814"><ele>347.79999999999995</ele><time>2026-05-02T12:39:11Z</time></trkpt><trkpt lat="44.729641135249544" lon="10.070834308740404"><ele>349.0</ele><time>2026-05-02T12:39:12Z</time></trkpt><trkpt lat="44.729684502860934" lon="10.070766560595144"><ele>348.99999999999994</ele><time>2026-05-02T12:39:13Z</time></trkpt><trkpt lat="44.72972816095946" lon="10.070698503319479"><ele>349.0</ele><time>2026-05-02T12:39:14Z</time></trkpt><trkpt lat="44.729814395801796" lon="10.070600191080441"><ele>349.0</ele><time>2026-05-02T12:39:16Z</time></trkpt><trkpt lat="44.72986819431484" lon="10.07055333122255"><ele>349.0</ele><time>2026-05-02T12:39:17Z</time></trkpt><trkpt lat="44.729936395937514" lon="10.070528306877183"><ele>349.0</ele><time>2026-05-02T12:39:18Z</time></trkpt><trkpt lat="44.72999774770272" lon="10.070488972452923"><ele>348.99999999999994</ele><time>2026-05-02T12:39:19Z</time></trkpt><trkpt lat="44.73005680491245" lon="10.070452592280231"><ele>349.0</ele><time>2026-05-02T12:39:20Z</time></trkpt><trkpt lat="44.73015336540709" lon="10.070393448199773"><ele>348.0</ele><time>2026-05-02T12:39:22Z</time></trkpt><trkpt lat="44.73025507705574" lon="10.07031308051739"><ele>347.0</ele><time>2026-05-02T12:39:24Z</time></trkpt><trkpt lat="44.73034654300266" lon="10.070198420533876"><ele>346.0</ele><time>2026-05-02T12:39:26Z</time></trkpt><trkpt lat="44.73044654459745" lon="10.0700946958424"><ele>345.0</ele><time>2026-05-02T12:39:28Z</time></trkpt><trkpt lat="44.73052015424372" lon="10.069984903636032"><ele>348.25</ele><time>2026-05-02T12:39:30Z</time></trkpt><trkpt lat="44.730602543795" lon="10.069858554965977"><ele>351.5</ele><time>2026-05-02T12:39:32Z</time></trkpt><trkpt lat="44.730686929274086" lon="10.06973724281057"><ele>354.75</ele><time>2026-05-02T12:39:34Z</time></trkpt><trkpt lat="44.730749182688264" lon="10.069592247118672"><ele>358.0</ele><time>2026-05-02T12:39:36Z</time></trkpt><trkpt lat="44.73077220977745" lon="10.069452879976458"><ele>358.0</ele><time>2026-05-02T12:39:38Z</time></trkpt><trkpt lat="44.730793962151346" lon="10.069302553800474"><ele>358.0</ele><time>2026-05-02T12:39:40Z</time></trkpt><trkpt lat="44.73082811499187" lon="10.069171731180377"><ele>358.0</ele><time>2026-05-02T12:39:42.001Z</time></trkpt><trkpt lat="44.730888709835284" lon="10.06905279183613"><ele>358.0</ele><time>2026-05-02T12:39:44.001Z</time></trkpt><trkpt lat="44.730938078128354" lon="10.06899606059756"><ele>358.0</ele><time>2026-05-02T12:39:46.001Z</time></trkpt><trkpt lat="44.731026382258435" lon="10.068916986581984"><ele>357.5</ele><time>2026-05-02T12:39:48.001Z</time></trkpt><trkpt lat="44.73110354755307" lon="10.068825630757456"><ele>357.0</ele><time>2026-05-02T12:39:50.001Z</time></trkpt><trkpt lat="44.73116091723893" lon="10.068716024856"><ele>356.5</ele><time>2026-05-02T12:39:52.001Z</time></trkpt><trkpt lat="44.731204310155796" lon="10.06861148413341"><ele>356.0</ele><time>2026-05-02T12:39:54.001Z</time></trkpt><trkpt lat="44.73121530716481" lon="10.06851595036234"><ele>355.5</ele><time>2026-05-02T12:39:57.001Z</time></trkpt><trkpt lat="44.73122258221823" lon="10.068419525710974"><ele>355.0</ele><time>2026-05-02T12:40:02.001Z</time></trkpt><trkpt lat="44.73124419125279" lon="10.06831582507081"><ele>356.16666666666663</ele><time>2026-05-02T12:40:04.001Z</time></trkpt><trkpt lat="44.731280089989866" lon="10.068224713531885"><ele>357.3333333333333</ele><time>2026-05-02T12:40:06.001Z</time></trkpt><trkpt lat="44.731312600587636" lon="10.06813673897595"><ele>358.5</ele><time>2026-05-02T12:40:08.001Z</time></trkpt><trkpt lat="44.73139206913414" lon="10.068103636154639"><ele>359.6666666666667</ele><time>2026-05-02T12:40:11.001Z</time></trkpt><trkpt lat="44.731506747268206" lon="10.068146697829986"><ele>360.83333333333337</ele><time>2026-05-02T12:40:13.002Z</time></trkpt><trkpt lat="44.73160243984256" lon="10.068155258545488"><ele>362.0</ele><time>2026-05-02T12:40:16.002Z</time></trkpt><trkpt lat="44.731694761427256" lon="10.068169674179856"><ele>362.0</ele><time>2026-05-02T12:40:18.002Z</time></trkpt><trkpt lat="44.73176143439092" lon="10.068169449970657"><ele>362.0</ele><time>2026-05-02T12:40:19.002Z</time></trkpt><trkpt lat="44.731863648866685" lon="10.068168292476791"><ele>362.0</ele><time>2026-05-02T12:40:22.002Z</time></trkpt><trkpt lat="44.73196524555691" lon="10.068205940575169"><ele>362.0</ele><time>2026-05-02T12:40:24.002Z</time></trkpt><trkpt lat="44.73206282507172" lon="10.068207854843546"><ele>362.0</ele><time>2026-05-02T12:40:26.002Z</time></trkpt><trkpt lat="44.732133172178095" lon="10.068286928672208"><ele>365.0</ele><time>2026-05-02T12:40:28.002Z</time></trkpt><trkpt lat="44.732134956278166" lon="10.068468954066947"><ele>368.0</ele><time>2026-05-02T12:40:30.002Z</time></trkpt><trkpt lat="44.73212758632042" lon="10.068557401613461"><ele>371.0</ele><time>2026-05-02T12:40:31.002Z</time></trkpt><trkpt lat="44.73211379599591" lon="10.06867033393803"><ele>374.0</ele><time>2026-05-02T12:40:32.002Z</time></trkpt><trkpt lat="44.73214992257966" lon="10.068840781896021"><ele>377.0</ele><time>2026-05-02T12:40:34.002Z</time></trkpt><trkpt lat="44.73217448398403" lon="10.068935248854322"><ele>377.0</ele><time>2026-05-02T12:40:35.002Z</time></trkpt><trkpt lat="44.73220096537586" lon="10.069031489677032"><ele>377.0</ele><time>2026-05-02T12:40:36.002Z</time></trkpt><trkpt lat="44.732214217374484" lon="10.069124608175066"><ele>377.0</ele><time>2026-05-02T12:40:37.002Z</time></trkpt><trkpt lat="44.732240780121685" lon="10.06923498917694"><ele>377.0</ele><time>2026-05-02T12:40:38.002Z</time></trkpt><trkpt lat="44.73226289739438" lon="10.069328948290728"><ele>377.0</ele><time>2026-05-02T12:40:39.002Z</time></trkpt><trkpt lat="44.73233291235069" lon="10.069445283500635"><ele>377.0</ele><time>2026-05-02T12:40:41.002Z</time></trkpt><trkpt lat="44.73242594613959" lon="10.069542673863353"><ele>375.85714285714283</ele><time>2026-05-02T12:40:43.002Z</time></trkpt><trkpt lat="44.73247222466425" lon="10.069611150695724"><ele>374.7142857142857</ele><time>2026-05-02T12:40:44.002Z</time></trkpt><trkpt lat="44.73251242406597" lon="10.06968371705968"><ele>373.57142857142856</ele><time>2026-05-02T12:40:45.002Z</time></trkpt><trkpt lat="44.7325650255855" lon="10.06974079922886"><ele>372.42857142857144</ele><time>2026-05-02T12:40:46.003Z</time></trkpt><trkpt lat="44.73260494673106" lon="10.069653105543518"><ele>371.2857142857143</ele><time>2026-05-02T12:41:15Z</time></trkpt><trkpt lat="44.73259660874481" lon="10.06953548072748"><ele>370.1428571428571</ele><time>2026-05-02T12:41:17Z</time></trkpt><trkpt lat="44.732584115402005" lon="10.069423441942263"><ele>369.0</ele><time>2026-05-02T12:41:19Z</time></trkpt><trkpt lat="44.73257117225448" lon="10.069300476121468"><ele>369.0</ele><time>2026-05-02T12:41:22Z</time></trkpt><trkpt lat="44.73260465584151" lon="10.069217162215162"><ele>369.0</ele><time>2026-05-02T12:41:25Z</time></trkpt><trkpt lat="44.732679545243656" lon="10.0691960398925"><ele>369.0</ele><time>2026-05-02T12:41:28Z</time></trkpt><trkpt lat="44.7326833823692" lon="10.069097879564662"><ele>369.0</ele><time>2026-05-02T12:41:30Z</time></trkpt><trkpt lat="44.73266752239946" lon="10.06899512001083"><ele>369.0</ele><time>2026-05-02T12:41:32Z</time></trkpt><trkpt lat="44.7326620007669" lon="10.068887987345121"><ele>369.0</ele><time>2026-05-02T12:41:34Z</time></trkpt><trkpt lat="44.732653292501645" lon="10.068775929189417"><ele>369.0</ele><time>2026-05-02T12:41:36Z</time></trkpt><trkpt lat="44.73266083868281" lon="10.06867925811676"><ele>370.3333333333333</ele><time>2026-05-02T12:41:38Z</time></trkpt><trkpt lat="44.732652923650456" lon="10.06856287027114"><ele>371.6666666666667</ele><time>2026-05-02T12:41:40.001Z</time></trkpt><trkpt lat="44.73263975271557" lon="10.068453088972923"><ele>373.0</ele><time>2026-05-02T12:41:42.001Z</time></trkpt><trkpt lat="44.732627870958744" lon="10.068337627975575"><ele>374.33333333333337</ele><time>2026-05-02T12:41:45.001Z</time></trkpt><trkpt lat="44.73264348991372" lon="10.068250648239886"><ele>375.6666666666667</ele><time>2026-05-02T12:41:47.001Z</time></trkpt><trkpt lat="44.732663624817825" lon="10.068147897842431"><ele>377.0</ele><time>2026-05-02T12:41:50.001Z</time></trkpt><trkpt lat="44.732681358367955" lon="10.068050536073272"><ele>382.5</ele><time>2026-05-02T12:41:52.001Z</time></trkpt><trkpt lat="44.732735105627576" lon="10.067996780567356"><ele>388.0</ele><time>2026-05-02T12:41:54.001Z</time></trkpt><trkpt lat="44.732800293481056" lon="10.067897240189936"><ele>393.5</ele><time>2026-05-02T12:41:57.001Z</time></trkpt><trkpt lat="44.73284970975561" lon="10.06799895554603"><ele>399.0</ele><time>2026-05-02T12:42:00.001Z</time></trkpt><trkpt lat="44.73291606019082" lon="10.068022481342284"><ele>404.49999999999994</ele><time>2026-05-02T12:42:03.001Z</time></trkpt><trkpt lat="44.732930841368066" lon="10.06792949742937"><ele>410.0</ele><time>2026-05-02T12:42:05.001Z</time></trkpt><trkpt lat="44.73290618075183" lon="10.067838385810381"><ele>410.0</ele><time>2026-05-02T12:42:07.001Z</time></trkpt><trkpt lat="44.73298292021431" lon="10.067881296843314"><ele>410.0</ele><time>2026-05-02T12:42:10.001Z</time></trkpt><trkpt lat="44.732998115498155" lon="10.067995333608007"><ele>410.0</ele><time>2026-05-02T12:42:12.001Z</time></trkpt><trkpt lat="44.73306522704927" lon="10.068126491149991"><ele>410.0</ele><time>2026-05-02T12:42:14.001Z</time></trkpt><trkpt lat="44.733122764890076" lon="10.068271329107565"><ele>410.0</ele><time>2026-05-02T12:42:16.001Z</time></trkpt><trkpt lat="44.73315542259979" lon="10.068422437352659"><ele>409.8</ele><time>2026-05-02T12:42:18.001Z</time></trkpt><trkpt lat="44.73319606348619" lon="10.068540090081195"><ele>409.6</ele><time>2026-05-02T12:42:20.001Z</time></trkpt><trkpt lat="44.73323337274264" lon="10.068655011803656"><ele>409.4</ele><time>2026-05-02T12:42:22.002Z</time></trkpt><trkpt lat="44.73327741199143" lon="10.06877119442869"><ele>409.2</ele><time>2026-05-02T12:42:24.002Z</time></trkpt><trkpt lat="44.73331253098676" lon="10.068877216611059"><ele>409.0</ele><time>2026-05-02T12:42:26.002Z</time></trkpt><trkpt lat="44.73337259088925" lon="10.06898972573321"><ele>409.00000000000006</ele><time>2026-05-02T12:42:28.002Z</time></trkpt><trkpt lat="44.73341839107596" lon="10.069077329922271"><ele>409.0</ele><time>2026-05-02T12:42:30.002Z</time></trkpt><trkpt lat="44.733451853742885" lon="10.069205279818917"><ele>409.0</ele><time>2026-05-02T12:42:32.002Z</time></trkpt><trkpt lat="44.73352732895628" lon="10.069217916310848"><ele>409.0</ele><time>2026-05-02T12:42:34.002Z</time></trkpt><trkpt lat="44.73360717634423" lon="10.06919898489973"><ele>409.00000000000006</ele><time>2026-05-02T12:42:36.002Z</time></trkpt><trkpt lat="44.73367681937412" lon="10.069178635069822"><ele>409.0</ele><time>2026-05-02T12:42:38.002Z</time></trkpt><trkpt lat="44.73375228017091" lon="10.069159288002597"><ele>412.0</ele><time>2026-05-02T12:42:40.002Z</time></trkpt><trkpt lat="44.73383829342517" lon="10.069203740672116"><ele>415.0</ele><time>2026-05-02T12:42:45.002Z</time></trkpt><trkpt lat="44.73397531117176" lon="10.069255026032495"><ele>418.0</ele><time>2026-05-02T12:42:47.002Z</time></trkpt><trkpt lat="44.73406009997872" lon="10.069276645950396"><ele>421.0</ele><time>2026-05-02T12:42:48.002Z</time></trkpt><trkpt lat="44.73416570596892" lon="10.069307114156706"><ele>424.0</ele><time>2026-05-02T12:42:49.002Z</time></trkpt><trkpt lat="44.73424828511236" lon="10.069342403504494"><ele>424.00000000000006</ele><time>2026-05-02T12:42:50.002Z</time></trkpt><trkpt lat="44.734313722985426" lon="10.069380666174629"><ele>424.0</ele><time>2026-05-02T12:42:51.002Z</time></trkpt><trkpt lat="44.73438328561124" lon="10.069430759481458"><ele>424.0</ele><time>2026-05-02T12:42:52.002Z</time></trkpt><trkpt lat="44.73448627980977" lon="10.069504814519377"><ele>424.0</ele><time>2026-05-02T12:42:54.002Z</time></trkpt><trkpt lat="44.7345464046772" lon="10.069557497774358"><ele>424.00000000000006</ele><time>2026-05-02T12:42:55.002Z</time></trkpt><trkpt lat="44.73461763565587" lon="10.06958471014314"><ele>424.0</ele><time>2026-05-02T12:42:56.002Z</time></trkpt><trkpt lat="44.73470607525004" lon="10.069609483606305"><ele>423.0</ele><time>2026-05-02T12:42:57.002Z</time></trkpt><trkpt lat="44.734812853959916" lon="10.069622273282478"><ele>422.0</ele><time>2026-05-02T12:42:58.002Z</time></trkpt><trkpt lat="44.73494124809357" lon="10.069640625142231"><ele>421.0</ele><time>2026-05-02T12:42:59.002Z</time></trkpt><trkpt lat="44.735051922688534" lon="10.069671590139201"><ele>420.0</ele><time>2026-05-02T12:43:00.002Z</time></trkpt><trkpt lat="44.735160042707605" lon="10.069700525998545"><ele>415.4</ele><time>2026-05-02T12:43:01.002Z</time></trkpt><trkpt lat="44.73525883895126" lon="10.069716409403192"><ele>410.8</ele><time>2026-05-02T12:43:02.002Z</time></trkpt><trkpt lat="44.73533366660583" lon="10.069754398682637"><ele>406.20000000000005</ele><time>2026-05-02T12:43:03.003Z</time></trkpt><trkpt lat="44.735415962744064" lon="10.06979601379505"><ele>401.6</ele><time>2026-05-02T12:43:05.003Z</time></trkpt><trkpt lat="44.735517040352" lon="10.069824167062166"><ele>397.0</ele><time>2026-05-02T12:43:07.003Z</time></trkpt><trkpt lat="44.73562938117668" lon="10.06990739418447"><ele>399.42857142857144</ele><time>2026-05-02T12:43:09.003Z</time></trkpt><trkpt lat="44.735702404774905" lon="10.069976697802792"><ele>401.85714285714283</ele><time>2026-05-02T12:43:10.003Z</time></trkpt><trkpt lat="44.73575522479937" lon="10.070034164774551"><ele>404.28571428571433</ele><time>2026-05-02T12:43:11.003Z</time></trkpt><trkpt lat="44.73580989303785" lon="10.070082234486192"><ele>406.7142857142857</ele><time>2026-05-02T12:43:12.003Z</time></trkpt><trkpt lat="44.73585647536726" lon="10.070147816666667"><ele>409.14285714285717</ele><time>2026-05-02T12:43:13.003Z</time></trkpt><trkpt lat="44.73589822989233" lon="10.07022997243294"><ele>411.5714285714286</ele><time>2026-05-02T12:43:14.003Z</time></trkpt><trkpt lat="44.735953221469686" lon="10.070310436974765"><ele>414.0</ele><time>2026-05-02T12:43:15.003Z</time></trkpt><trkpt lat="44.736012121122265" lon="10.070389254224025"><ele>411.8333333333333</ele><time>2026-05-02T12:43:16.003Z</time></trkpt><trkpt lat="44.736072125642245" lon="10.070444574105167"><ele>409.66666666666663</ele><time>2026-05-02T12:43:17.003Z</time></trkpt><trkpt lat="44.7361313320343" lon="10.070511975175748"><ele>407.5</ele><time>2026-05-02T12:43:18.003Z</time></trkpt><trkpt lat="44.736215216164524" lon="10.070574917763949"><ele>405.3333333333333</ele><time>2026-05-02T12:43:19.003Z</time></trkpt><trkpt lat="44.73629197141891" lon="10.070611352744613"><ele>403.16666666666663</ele><time>2026-05-02T12:43:19.999Z</time></trkpt><trkpt lat="44.73637099483262" lon="10.07065075133343"><ele>401.0</ele><time>2026-05-02T12:43:20.999Z</time></trkpt><trkpt lat="44.736436284872035" lon="10.070672461784882"><ele>401.0</ele><time>2026-05-02T12:43:21.999Z</time></trkpt><trkpt lat="44.736506928355446" lon="10.070709106962461"><ele>401.0</ele><time>2026-05-02T12:43:22.999Z</time></trkpt><trkpt lat="44.73659399518995" lon="10.070767373430678"><ele>401.0</ele><time>2026-05-02T12:43:23.999Z</time></trkpt><trkpt lat="44.73670824250361" lon="10.070866567456148"><ele>401.0</ele><time>2026-05-02T12:43:25Z</time></trkpt><trkpt lat="44.73680700578119" lon="10.070974085301604"><ele>401.0</ele><time>2026-05-02T12:43:26Z</time></trkpt><trkpt lat="44.73690630417551" lon="10.071084312776309"><ele>402.6</ele><time>2026-05-02T12:43:27Z</time></trkpt><trkpt lat="44.737003784767886" lon="10.071158921384608"><ele>404.20000000000005</ele><time>2026-05-02T12:43:28Z</time></trkpt><trkpt lat="44.73709297699057" lon="10.071236952864778"><ele>405.79999999999995</ele><time>2026-05-02T12:43:29Z</time></trkpt><trkpt lat="44.73715978910628" lon="10.071311847157231"><ele>407.4</ele><time>2026-05-02T12:43:30Z</time></trkpt><trkpt lat="44.73722960137889" lon="10.071356775820721"><ele>409.0</ele><time>2026-05-02T12:43:31Z</time></trkpt><trkpt lat="44.7373076226784" lon="10.071385780599407"><ele>409.0</ele><time>2026-05-02T12:43:32Z</time></trkpt><trkpt lat="44.73740476549044" lon="10.071426292675316"><ele>409.0</ele><time>2026-05-02T12:43:34Z</time></trkpt><trkpt lat="44.737473374708436" lon="10.071440853104363"><ele>409.0</ele><time>2026-05-02T12:43:37Z</time></trkpt><trkpt lat="44.737597252954444" lon="10.071404653600123"><ele>409.0</ele><time>2026-05-02T12:43:39Z</time></trkpt><trkpt lat="44.737669859774996" lon="10.071389123299234"><ele>409.0</ele><time>2026-05-02T12:43:40Z</time></trkpt><trkpt lat="44.73775099353008" lon="10.071366629552418"><ele>410.83333333333337</ele><time>2026-05-02T12:43:41Z</time></trkpt><trkpt lat="44.737815886472305" lon="10.071333550364706"><ele>412.6666666666667</ele><time>2026-05-02T12:43:42Z</time></trkpt><trkpt lat="44.73788153178372" lon="10.071290292348623"><ele>414.5</ele><time>2026-05-02T12:43:43Z</time></trkpt><trkpt lat="44.73794542748946" lon="10.071239235803061"><ele>416.33333333333337</ele><time>2026-05-02T12:43:44Z</time></trkpt><trkpt lat="44.73799851438462" lon="10.071174214698326"><ele>418.1666666666667</ele><time>2026-05-02T12:43:45Z</time></trkpt><trkpt lat="44.73805312263959" lon="10.070998248601637"><ele>420.0</ele><time>2026-05-02T12:43:47Z</time></trkpt><trkpt lat="44.73807710143741" lon="10.070854825525847"><ele>416.2</ele><time>2026-05-02T12:43:48Z</time></trkpt><trkpt lat="44.73808825398722" lon="10.070745862420408"><ele>412.4</ele><time>2026-05-02T12:43:49Z</time></trkpt><trkpt lat="44.73812309640787" lon="10.070589213826443"><ele>408.6</ele><time>2026-05-02T12:43:51Z</time></trkpt><trkpt lat="44.73822089115671" lon="10.070496909330911"><ele>404.8</ele><time>2026-05-02T12:43:53.001Z</time></trkpt><trkpt lat="44.73830503399982" lon="10.070487350803921"><ele>401.0</ele><time>2026-05-02T12:43:54.001Z</time></trkpt><trkpt lat="44.73840575928738" lon="10.070494722428332"><ele>400.99999999999994</ele><time>2026-05-02T12:43:55.001Z</time></trkpt><trkpt lat="44.73849091658005" lon="10.070468874973834"><ele>401.0</ele><time>2026-05-02T12:43:56.001Z</time></trkpt><trkpt lat="44.738560546268204" lon="10.070406370403292"><ele>401.0</ele><time>2026-05-02T12:43:57.001Z</time></trkpt><trkpt lat="44.73861546443276" lon="10.070335577160995"><ele>401.0</ele><time>2026-05-02T12:43:58.001Z</time></trkpt><trkpt lat="44.73865916577191" lon="10.070242811088583"><ele>400.99999999999994</ele><time>2026-05-02T12:43:59.001Z</time></trkpt><trkpt lat="44.73869562301493" lon="10.070163173733178"><ele>401.0</ele><time>2026-05-02T12:44:00.001Z</time></trkpt><trkpt lat="44.73871910717385" lon="10.07004932076038"><ele>402.49999999999994</ele><time>2026-05-02T12:44:01.001Z</time></trkpt><trkpt lat="44.73874517484898" lon="10.069955704619904"><ele>404.0</ele><time>2026-05-02T12:44:02.001Z</time></trkpt><trkpt lat="44.73878835543888" lon="10.069866171786005"><ele>405.5</ele><time>2026-05-02T12:44:03.001Z</time></trkpt><trkpt lat="44.73883485204399" lon="10.069787000839222"><ele>407.0</ele><time>2026-05-02T12:44:04.001Z</time></trkpt><trkpt lat="44.73887917596339" lon="10.069720332918846"><ele>408.49999999999994</ele><time>2026-05-02T12:44:05.001Z</time></trkpt><trkpt lat="44.738954473229626" lon="10.069609929580396"><ele>410.0</ele><time>2026-05-02T12:44:07.001Z</time></trkpt><trkpt lat="44.73901592417927" lon="10.069545843227376"><ele>406.8333333333333</ele><time>2026-05-02T12:44:09.001Z</time></trkpt><trkpt lat="44.73911511169032" lon="10.069554727979881"><ele>403.66666666666663</ele><time>2026-05-02T12:44:11.001Z</time></trkpt><trkpt lat="44.739189208714436" lon="10.069591022043179"><ele>400.5</ele><time>2026-05-02T12:44:12.001Z</time></trkpt><trkpt lat="44.73926259491726" lon="10.069647154089893"><ele>397.33333333333337</ele><time>2026-05-02T12:44:13.001Z</time></trkpt><trkpt lat="44.73932794466332" lon="10.069698740308391"><ele>394.1666666666667</ele><time>2026-05-02T12:44:14.001Z</time></trkpt><trkpt lat="44.73942255123408" lon="10.069767781070029"><ele>391.0</ele><time>2026-05-02T12:44:15.001Z</time></trkpt><trkpt lat="44.73947751111007" lon="10.069821919463498"><ele>391.00000000000006</ele><time>2026-05-02T12:44:16.001Z</time></trkpt><trkpt lat="44.7395436514728" lon="10.06989728417672"><ele>391.0</ele><time>2026-05-02T12:44:17.001Z</time></trkpt><trkpt lat="44.73958996673676" lon="10.069971785770926"><ele>391.0</ele><time>2026-05-02T12:44:18.001Z</time></trkpt><trkpt lat="44.73962888158372" lon="10.070046754016765"><ele>391.0</ele><time>2026-05-02T12:44:19.001Z</time></trkpt><trkpt lat="44.73969890691161" lon="10.07015255033376"><ele>391.00000000000006</ele><time>2026-05-02T12:44:21.001Z</time></trkpt><trkpt lat="44.7398125393784" lon="10.070125334445159"><ele>391.0</ele><time>2026-05-02T12:44:23.002Z</time></trkpt><trkpt lat="44.739897924126474" lon="10.069973064497738"><ele>391.0</ele><time>2026-05-02T12:44:25.002Z</time></trkpt><trkpt lat="44.73993168066466" lon="10.069878253792208"><ele>391.0</ele><time>2026-05-02T12:44:26.002Z</time></trkpt><trkpt lat="44.74001833006303" lon="10.069794690850896"><ele>391.0</ele><time>2026-05-02T12:44:28.002Z</time></trkpt><trkpt lat="44.7401407710688" lon="10.069785048763322"><ele>391.0</ele><time>2026-05-02T12:44:30.002Z</time></trkpt><trkpt lat="44.740250307860435" lon="10.069827072234403"><ele>391.0</ele><time>2026-05-02T12:44:32.002Z</time></trkpt><trkpt lat="44.74030706484576" lon="10.069885362220692"><ele>389.0</ele><time>2026-05-02T12:44:33.002Z</time></trkpt><trkpt lat="44.74034363739807" lon="10.069982258894756"><ele>387.0</ele><time>2026-05-02T12:44:34.002Z</time></trkpt><trkpt lat="44.740384589392136" lon="10.070099595930294"><ele>385.0</ele><time>2026-05-02T12:44:35.002Z</time></trkpt><trkpt lat="44.74045944243491" lon="10.070251889409146"><ele>383.0</ele><time>2026-05-02T12:44:36.002Z</time></trkpt><trkpt lat="44.74047833147838" lon="10.070409065108331"><ele>381.0</ele><time>2026-05-02T12:44:37.002Z</time></trkpt><trkpt lat="44.74051896965276" lon="10.070526700685162"><ele>381.0</ele><time>2026-05-02T12:44:38.002Z</time></trkpt><trkpt lat="44.74053172006941" lon="10.070622761267213"><ele>381.0</ele><time>2026-05-02T12:44:39.002Z</time></trkpt><trkpt lat="44.74060354718802" lon="10.070749600102385"><ele>381.0</ele><time>2026-05-02T12:44:41.002Z</time></trkpt><trkpt lat="44.740660896311205" lon="10.070797941402775"><ele>381.0</ele><time>2026-05-02T12:44:42.002Z</time></trkpt><trkpt lat="44.740749035387104" lon="10.070834400715793"><ele>381.0</ele><time>2026-05-02T12:44:43.002Z</time></trkpt><trkpt lat="44.74084695795747" lon="10.070855853111746"><ele>381.0</ele><time>2026-05-02T12:44:44.002Z</time></trkpt><trkpt lat="44.74094589637083" lon="10.070906373161701"><ele>380.0</ele><time>2026-05-02T12:44:45.002Z</time></trkpt><trkpt lat="44.74101811389591" lon="10.070926934946016"><ele>379.0</ele><time>2026-05-02T12:44:46.002Z</time></trkpt><trkpt lat="44.741093279140436" lon="10.070994495151316"><ele>378.0</ele><time>2026-05-02T12:44:47.002Z</time></trkpt><trkpt lat="44.74115586544996" lon="10.071026106629231"><ele>377.0</ele><time>2026-05-02T12:44:48.002Z</time></trkpt><trkpt lat="44.74124383144703" lon="10.071144641182407"><ele>376.0</ele><time>2026-05-02T12:44:50.002Z</time></trkpt><trkpt lat="44.741280616832135" lon="10.071237516262888"><ele>375.0</ele><time>2026-05-02T12:44:51.002Z</time></trkpt><trkpt lat="44.741319773208986" lon="10.071334778982537"><ele>375.0</ele><time>2026-05-02T12:44:52.002Z</time></trkpt><trkpt lat="44.74136965581919" lon="10.071416643911032"><ele>375.0</ele><time>2026-05-02T12:44:53.002Z</time></trkpt><trkpt lat="44.741425194883455" lon="10.071492653835948"><ele>375.0</ele><time>2026-05-02T12:44:54.002Z</time></trkpt><trkpt lat="44.74147826410582" lon="10.071557135287819"><ele>375.0</ele><time>2026-05-02T12:44:55.002Z</time></trkpt><trkpt lat="44.74156310557015" lon="10.071602438007313"><ele>375.0</ele><time>2026-05-02T12:44:56.003Z</time></trkpt><trkpt lat="44.74168808653646" lon="10.071665072226034"><ele>375.0</ele><time>2026-05-02T12:44:58.003Z</time></trkpt><trkpt lat="44.7417563570304" lon="10.07170238218075"><ele>376.8</ele><time>2026-05-02T12:44:59.003Z</time></trkpt><trkpt lat="44.74179979873688" lon="10.071766671604031"><ele>378.6</ele><time>2026-05-02T12:45:00.003Z</time></trkpt><trkpt lat="44.74185183506825" lon="10.071867564273221"><ele>380.4</ele><time>2026-05-02T12:45:02.003Z</time></trkpt><trkpt lat="44.741928059234176" lon="10.071945665008345"><ele>382.2</ele><time>2026-05-02T12:45:04.003Z</time></trkpt><trkpt lat="44.74200923339514" lon="10.072050955173411"><ele>384.0</ele><time>2026-05-02T12:45:06.003Z</time></trkpt><trkpt lat="44.74209448649005" lon="10.072141857530616"><ele>381.5</ele><time>2026-05-02T12:45:08.003Z</time></trkpt><trkpt lat="44.74216584911152" lon="10.072246389411445"><ele>379.0</ele><time>2026-05-02T12:45:10.003Z</time></trkpt><trkpt lat="44.742230654966654" lon="10.072380958316563"><ele>376.5</ele><time>2026-05-02T12:45:12.003Z</time></trkpt><trkpt lat="44.74228318188554" lon="10.072451689859607"><ele>374.0</ele><time>2026-05-02T12:45:13.003Z</time></trkpt><trkpt lat="44.74233077932644" lon="10.072527830953694"><ele>371.5</ele><time>2026-05-02T12:45:14.003Z</time></trkpt><trkpt lat="44.74236340536961" lon="10.072617295053796"><ele>369.0</ele><time>2026-05-02T12:45:15.003Z</time></trkpt><trkpt lat="44.742391808428906" lon="10.07270227585688"><ele>369.0</ele><time>2026-05-02T12:45:16.003Z</time></trkpt><trkpt lat="44.74241828923153" lon="10.072797917620246"><ele>369.0</ele><time>2026-05-02T12:45:17.003Z</time></trkpt><trkpt lat="44.7424536048649" lon="10.072916733007336"><ele>369.0</ele><time>2026-05-02T12:45:18.003Z</time></trkpt><trkpt lat="44.74247401885543" lon="10.07304115473526"><ele>369.0</ele><time>2026-05-02T12:45:19.003Z</time></trkpt><trkpt lat="44.742498398776796" lon="10.073145736175912"><ele>369.0</ele><time>2026-05-02T12:45:20.003Z</time></trkpt><trkpt lat="44.74257564892534" lon="10.073305761027436"><ele>369.0</ele><time>2026-05-02T12:45:22.003Z</time></trkpt><trkpt lat="44.7426424651922" lon="10.073402605007164"><ele>369.0</ele><time>2026-05-02T12:45:23.003Z</time></trkpt><trkpt lat="44.74272191867684" lon="10.073498143985265"><ele>369.0</ele><time>2026-05-02T12:45:24.003Z</time></trkpt><trkpt lat="44.74280801282223" lon="10.073626660118855"><ele>369.0</ele><time>2026-05-02T12:45:25.003Z</time></trkpt><trkpt lat="44.742882651076336" lon="10.073764170450405"><ele>369.0</ele><time>2026-05-02T12:45:26Z</time></trkpt><trkpt lat="44.74293071885458" lon="10.073865863507514"><ele>367.2</ele><time>2026-05-02T12:45:27Z</time></trkpt><trkpt lat="44.742964946987485" lon="10.073954183469276"><ele>365.4</ele><time>2026-05-02T12:45:28Z</time></trkpt><trkpt lat="44.743073487345015" lon="10.074048626887379"><ele>363.6</ele><time>2026-05-02T12:45:30Z</time></trkpt><trkpt lat="44.74315712515587" lon="10.074063171480594"><ele>361.8</ele><time>2026-05-02T12:45:31Z</time></trkpt><trkpt lat="44.74324389979196" lon="10.07404883039523"><ele>360.0</ele><time>2026-05-02T12:45:32Z</time></trkpt><trkpt lat="44.74334904878796" lon="10.074023355530791"><ele>360.0</ele><time>2026-05-02T12:45:33Z</time></trkpt><trkpt lat="44.743450696436604" lon="10.073995750677538"><ele>360.0</ele><time>2026-05-02T12:45:34Z</time></trkpt><trkpt lat="44.743563485388854" lon="10.073962842891415"><ele>360.0</ele><time>2026-05-02T12:45:35Z</time></trkpt><trkpt lat="44.743663102163765" lon="10.073922735590704"><ele>360.0</ele><time>2026-05-02T12:45:36Z</time></trkpt><trkpt lat="44.743757417890926" lon="10.073901709596091"><ele>360.0</ele><time>2026-05-02T12:45:37Z</time></trkpt><trkpt lat="44.743848603654584" lon="10.073901782620545"><ele>360.2</ele><time>2026-05-02T12:45:38Z</time></trkpt><trkpt lat="44.743944365786135" lon="10.073928984669953"><ele>360.4</ele><time>2026-05-02T12:45:39Z</time></trkpt><trkpt lat="44.74403626094878" lon="10.07396347175391"><ele>360.6</ele><time>2026-05-02T12:45:40Z</time></trkpt><trkpt lat="44.74412574117517" lon="10.073975015387985"><ele>360.8</ele><time>2026-05-02T12:45:41Z</time></trkpt><trkpt lat="44.74420430897165" lon="10.073956151835398"><ele>361.0</ele><time>2026-05-02T12:45:42Z</time></trkpt><trkpt lat="44.744289957166735" lon="10.073919269091023"><ele>361.0</ele><time>2026-05-02T12:45:43Z</time></trkpt><trkpt lat="44.74434944114251" lon="10.073846133795659"><ele>361.0</ele><time>2026-05-02T12:45:44Z</time></trkpt><trkpt lat="44.74443502345682" lon="10.073770187236908"><ele>361.0</ele><time>2026-05-02T12:45:45Z</time></trkpt><trkpt lat="44.74449722699964" lon="10.073690665318045"><ele>361.0</ele><time>2026-05-02T12:45:46Z</time></trkpt><trkpt lat="44.74455765089106" lon="10.073645082237121"><ele>361.0</ele><time>2026-05-02T12:45:47Z</time></trkpt><trkpt lat="44.744681169010164" lon="10.0736411677114"><ele>362.6</ele><time>2026-05-02T12:45:49Z</time></trkpt><trkpt lat="44.74479665519543" lon="10.073749328126873"><ele>364.20000000000005</ele><time>2026-05-02T12:45:51Z</time></trkpt><trkpt lat="44.744867744058865" lon="10.073814020247754"><ele>365.79999999999995</ele><time>2026-05-02T12:45:52Z</time></trkpt><trkpt lat="44.74494655864414" lon="10.073852704631646"><ele>367.4</ele><time>2026-05-02T12:45:53Z</time></trkpt><trkpt lat="44.74504427312212" lon="10.073897701122668"><ele>369.0</ele><time>2026-05-02T12:45:54Z</time></trkpt><trkpt lat="44.745140765773805" lon="10.073920229054952"><ele>370.79999999999995</ele><time>2026-05-02T12:45:55.001Z</time></trkpt><trkpt lat="44.745237990531336" lon="10.073956144373051"><ele>372.59999999999997</ele><time>2026-05-02T12:45:56.001Z</time></trkpt><trkpt lat="44.74533412985314" lon="10.07398713043144"><ele>374.4</ele><time>2026-05-02T12:45:57.001Z</time></trkpt><trkpt lat="44.74542597871872" lon="10.073990759649703"><ele>376.2</ele><time>2026-05-02T12:45:58.001Z</time></trkpt><trkpt lat="44.74550778736609" lon="10.074005559345284"><ele>378.0</ele><time>2026-05-02T12:45:59.001Z</time></trkpt><trkpt lat="44.745583125812466" lon="10.074032597003997"><ele>380.59999999999997</ele><time>2026-05-02T12:46:00.001Z</time></trkpt><trkpt lat="44.745688525676684" lon="10.074110884694678"><ele>383.2</ele><time>2026-05-02T12:46:02.001Z</time></trkpt><trkpt lat="44.74578147314341" lon="10.07416414116014"><ele>385.8</ele><time>2026-05-02T12:46:04.001Z</time></trkpt><trkpt lat="44.7458684623415" lon="10.074269704394037"><ele>388.4</ele><time>2026-05-02T12:46:06.001Z</time></trkpt><trkpt lat="44.74594249107206" lon="10.074325518044043"><ele>391.0</ele><time>2026-05-02T12:46:07.001Z</time></trkpt><trkpt lat="44.74603692642082" lon="10.074393138981511"><ele>394.0</ele><time>2026-05-02T12:46:08.001Z</time></trkpt><trkpt lat="44.746151191843964" lon="10.074469935407985"><ele>397.0</ele><time>2026-05-02T12:46:09.001Z</time></trkpt><trkpt lat="44.74627943621866" lon="10.074554148433426"><ele>400.0</ele><time>2026-05-02T12:46:10.001Z</time></trkpt><trkpt lat="44.74639228845226" lon="10.074622334170384"><ele>403.0</ele><time>2026-05-02T12:46:11.001Z</time></trkpt><trkpt lat="44.74648415937465" lon="10.07468080806513"><ele>403.0</ele><time>2026-05-02T12:46:12.001Z</time></trkpt><trkpt lat="44.74658535212696" lon="10.074718329032192"><ele>403.0</ele><time>2026-05-02T12:46:13.001Z</time></trkpt><trkpt lat="44.7466950305476" lon="10.074742614583933"><ele>403.0</ele><time>2026-05-02T12:46:14.001Z</time></trkpt><trkpt lat="44.746809066509776" lon="10.074754335406205"><ele>403.0</ele><time>2026-05-02T12:46:15.001Z</time></trkpt><trkpt lat="44.74690175281299" lon="10.074782123941866"><ele>403.0</ele><time>2026-05-02T12:46:16.001Z</time></trkpt><trkpt lat="44.74700031233159" lon="10.074799890897225"><ele>400.83333333333337</ele><time>2026-05-02T12:46:17.001Z</time></trkpt><trkpt lat="44.74709321940391" lon="10.074814950583482"><ele>398.6666666666667</ele><time>2026-05-02T12:46:18.001Z</time></trkpt><trkpt lat="44.747177700008834" lon="10.074824197044599"><ele>396.5</ele><time>2026-05-02T12:46:19.001Z</time></trkpt><trkpt lat="44.74725845571816" lon="10.074816620517241"><ele>394.33333333333337</ele><time>2026-05-02T12:46:20.001Z</time></trkpt><trkpt lat="44.7473329017075" lon="10.07479700479133"><ele>392.1666666666667</ele><time>2026-05-02T12:46:21.001Z</time></trkpt><trkpt lat="44.747404343739404" lon="10.074744951681408"><ele>390.0</ele><time>2026-05-02T12:46:22.001Z</time></trkpt><trkpt lat="44.747472037136895" lon="10.074666875605663"><ele>390.0</ele><time>2026-05-02T12:46:23.001Z</time></trkpt><trkpt lat="44.74753331955825" lon="10.074581745864462"><ele>390.0</ele><time>2026-05-02T12:46:24.001Z</time></trkpt><trkpt lat="44.74757274037508" lon="10.074500663717892"><ele>390.0</ele><time>2026-05-02T12:46:25.001Z</time></trkpt><trkpt lat="44.7476461218023" lon="10.074409856183602"><ele>390.0</ele><time>2026-05-02T12:46:27.002Z</time></trkpt><trkpt lat="44.747749551035064" lon="10.074439697851435"><ele>390.0</ele><time>2026-05-02T12:46:29.002Z</time></trkpt><trkpt lat="44.747807026873105" lon="10.074488258132673"><ele>390.0</ele><time>2026-05-02T12:46:30.002Z</time></trkpt><trkpt lat="44.74785775686568" lon="10.074560165481213"><ele>387.5</ele><time>2026-05-02T12:46:31.002Z</time></trkpt><trkpt lat="44.74792000345134" lon="10.074641215801131"><ele>385.0</ele><time>2026-05-02T12:46:32.002Z</time></trkpt><trkpt lat="44.747989122684864" lon="10.074724257627638"><ele>382.5</ele><time>2026-05-02T12:46:33.002Z</time></trkpt><trkpt lat="44.74805319187988" lon="10.07479968266019"><ele>380.0</ele><time>2026-05-02T12:46:34.002Z</time></trkpt><trkpt lat="44.74811765841645" lon="10.074881396785237"><ele>377.5</ele><time>2026-05-02T12:46:35.002Z</time></trkpt><trkpt lat="44.748169717081645" lon="10.074958017741045"><ele>375.0</ele><time>2026-05-02T12:46:36.002Z</time></trkpt><trkpt lat="44.74821493909426" lon="10.075050150339738"><ele>374.1666666666667</ele><time>2026-05-02T12:46:37.002Z</time></trkpt><trkpt lat="44.748244429237246" lon="10.075156276640465"><ele>373.3333333333333</ele><time>2026-05-02T12:46:38.002Z</time></trkpt><trkpt lat="44.748266203569784" lon="10.07526351795011"><ele>372.5</ele><time>2026-05-02T12:46:39.002Z</time></trkpt><trkpt lat="44.74828310973145" lon="10.075383782668723"><ele>371.66666666666663</ele><time>2026-05-02T12:46:40.002Z</time></trkpt><trkpt lat="44.74829032597109" lon="10.075505208839134"><ele>370.8333333333333</ele><time>2026-05-02T12:46:41.002Z</time></trkpt><trkpt lat="44.7482893707828" lon="10.07562951852196"><ele>370.0</ele><time>2026-05-02T12:46:42.002Z</time></trkpt><trkpt lat="44.74828314013438" lon="10.075739874445787"><ele>369.4285714285714</ele><time>2026-05-02T12:46:43.002Z</time></trkpt><trkpt lat="44.748280532197604" lon="10.075843735586458"><ele>368.85714285714283</ele><time>2026-05-02T12:46:44.002Z</time></trkpt><trkpt lat="44.74827669544787" lon="10.075940511090817"><ele>368.2857142857143</ele><time>2026-05-02T12:46:45.002Z</time></trkpt><trkpt lat="44.74826809154595" lon="10.076036054914175"><ele>367.71428571428567</ele><time>2026-05-02T12:46:46.002Z</time></trkpt><trkpt lat="44.74825483644696" lon="10.076129136963441"><ele>367.14285714285717</ele><time>2026-05-02T12:46:47.002Z</time></trkpt><trkpt lat="44.74823612372865" lon="10.076220497125393"><ele>366.57142857142856</ele><time>2026-05-02T12:46:48.002Z</time></trkpt><trkpt lat="44.7482088918007" lon="10.076310821613331"><ele>366.0</ele><time>2026-05-02T12:46:49.002Z</time></trkpt><trkpt lat="44.74816789856753" lon="10.076394417851402"><ele>366.0</ele><time>2026-05-02T12:46:50.002Z</time></trkpt><trkpt lat="44.74811852595604" lon="10.076471133443167"><ele>366.0</ele><time>2026-05-02T12:46:51.002Z</time></trkpt><trkpt lat="44.74806784926686" lon="10.07653208596219"><ele>366.0</ele><time>2026-05-02T12:46:52.002Z</time></trkpt><trkpt lat="44.74799273901224" lon="10.076650006515276"><ele>366.0</ele><time>2026-05-02T12:46:54.002Z</time></trkpt><trkpt lat="44.74796448448265" lon="10.076811035019148"><ele>366.0</ele><time>2026-05-02T12:46:56.002Z</time></trkpt><trkpt lat="44.747991656636465" lon="10.076976229090425"><ele>363.6</ele><time>2026-05-02T12:46:58.002Z</time></trkpt><trkpt lat="44.74802729552245" lon="10.077124671038963"><ele>361.20000000000005</ele><time>2026-05-02T12:47:00.003Z</time></trkpt><trkpt lat="44.74805059576704" lon="10.077262691173216"><ele>358.79999999999995</ele><time>2026-05-02T12:47:02.003Z</time></trkpt><trkpt lat="44.7480753773378" lon="10.077370064760858"><ele>356.4</ele><time>2026-05-02T12:47:04.003Z</time></trkpt><trkpt lat="44.7480996151905" lon="10.077482351583898"><ele>354.0</ele><time>2026-05-02T12:47:06.003Z</time></trkpt><trkpt lat="44.748118911822516" lon="10.077595540055738"><ele>354.0</ele><time>2026-05-02T12:47:08.003Z</time></trkpt><trkpt lat="44.74809683343802" lon="10.077435878038704"><ele>354.0</ele><time>2026-05-02T12:47:30.003Z</time></trkpt><trkpt lat="44.74805199939888" lon="10.077277384932358"><ele>354.0</ele><time>2026-05-02T12:47:31.003Z</time></trkpt><trkpt lat="44.74803560637742" lon="10.077131076749955"><ele>354.0</ele><time>2026-05-02T12:47:32Z</time></trkpt><trkpt lat="44.748006111196624" lon="10.077003355818794"><ele>354.0</ele><time>2026-05-02T12:47:33Z</time></trkpt><trkpt lat="44.74797996702731" lon="10.076875734413065"><ele>354.0</ele><time>2026-05-02T12:47:34Z</time></trkpt><trkpt lat="44.74797138625727" lon="10.076761229806978"><ele>354.0</ele><time>2026-05-02T12:47:35Z</time></trkpt><trkpt lat="44.74799390594701" lon="10.076647488960955"><ele>354.0</ele><time>2026-05-02T12:47:36Z</time></trkpt><trkpt lat="44.748049153570975" lon="10.076542118068026"><ele>354.0</ele><time>2026-05-02T12:47:37Z</time></trkpt><trkpt lat="44.74811987246872" lon="10.076443897024912"><ele>354.0</ele><time>2026-05-02T12:47:38Z</time></trkpt><trkpt lat="44.74819238483187" lon="10.076345527886225"><ele>356.4</ele><time>2026-05-02T12:47:39Z</time></trkpt><trkpt lat="44.748246591645945" lon="10.076231432816389"><ele>358.79999999999995</ele><time>2026-05-02T12:47:40Z</time></trkpt><trkpt lat="44.74827704096385" lon="10.076105275012377"><ele>361.20000000000005</ele><time>2026-05-02T12:47:41Z</time></trkpt><trkpt lat="44.74828923802109" lon="10.075954408073848"><ele>363.6</ele><time>2026-05-02T12:47:42Z</time></trkpt><trkpt lat="44.74829588585796" lon="10.075797760638148"><ele>366.0</ele><time>2026-05-02T12:47:43Z</time></trkpt><trkpt lat="44.748296539117185" lon="10.075645214908207"><ele>366.6666666666667</ele><time>2026-05-02T12:47:44Z</time></trkpt><trkpt lat="44.748295603994244" lon="10.075503955444573"><ele>367.3333333333333</ele><time>2026-05-02T12:47:45Z</time></trkpt><trkpt lat="44.74828883425027" lon="10.075364885146575"><ele>368.0</ele><time>2026-05-02T12:47:46Z</time></trkpt><trkpt lat="44.748268721058906" lon="10.07525289408722"><ele>368.66666666666663</ele><time>2026-05-02T12:47:47Z</time></trkpt><trkpt lat="44.74825003746936" lon="10.075153684115103"><ele>369.3333333333333</ele><time>2026-05-02T12:47:48Z</time></trkpt><trkpt lat="44.748217497253435" lon="10.075053824361131"><ele>370.0</ele><time>2026-05-02T12:47:49Z</time></trkpt><trkpt lat="44.748174134275125" lon="10.074953784061593"><ele>370.8333333333333</ele><time>2026-05-02T12:47:50Z</time></trkpt><trkpt lat="44.74812903380751" lon="10.074866557788264"><ele>371.66666666666663</ele><time>2026-05-02T12:47:51Z</time></trkpt><trkpt lat="44.74806053843791" lon="10.07478780067194"><ele>372.5</ele><time>2026-05-02T12:47:52Z</time></trkpt><trkpt lat="44.74799326896511" lon="10.07470646867774"><ele>373.3333333333333</ele><time>2026-05-02T12:47:53Z</time></trkpt><trkpt lat="44.74792908466596" lon="10.074629524212718"><ele>374.1666666666667</ele><time>2026-05-02T12:47:54Z</time></trkpt><trkpt lat="44.74786265538535" lon="10.074539409208551"><ele>375.0</ele><time>2026-05-02T12:47:55Z</time></trkpt><trkpt lat="44.74780869831051" lon="10.074458717402312"><ele>375.0</ele><time>2026-05-02T12:47:56Z</time></trkpt><trkpt lat="44.74775459198758" lon="10.074387376322534"><ele>375.0</ele><time>2026-05-02T12:47:57Z</time></trkpt><trkpt lat="44.74768962041925" lon="10.074365524506497"><ele>375.0</ele><time>2026-05-02T12:47:58Z</time></trkpt><trkpt lat="44.74762109598959" lon="10.07439102122076"><ele>375.0</ele><time>2026-05-02T12:47:59Z</time></trkpt><trkpt lat="44.747563588440556" lon="10.074453537803402"><ele>375.0</ele><time>2026-05-02T12:48:00Z</time></trkpt><trkpt lat="44.74751200912662" lon="10.074567894838099"><ele>375.0</ele><time>2026-05-02T12:48:01Z</time></trkpt><trkpt lat="44.747466655169724" lon="10.074656689131828"><ele>377.14285714285717</ele><time>2026-05-02T12:48:02Z</time></trkpt><trkpt lat="44.74742097316456" lon="10.074723954363472"><ele>379.2857142857143</ele><time>2026-05-02T12:48:03Z</time></trkpt><trkpt lat="44.747362776810384" lon="10.074767641123415"><ele>381.42857142857144</ele><time>2026-05-02T12:48:04Z</time></trkpt><trkpt lat="44.74729953685294" lon="10.074801844066792"><ele>383.57142857142856</ele><time>2026-05-02T12:48:05.001Z</time></trkpt><trkpt lat="44.74722569848142" lon="10.074822347091777"><ele>385.71428571428567</ele><time>2026-05-02T12:48:06.001Z</time></trkpt><trkpt lat="44.747137958977675" lon="10.074818575645809"><ele>387.85714285714283</ele><time>2026-05-02T12:48:07.001Z</time></trkpt><trkpt lat="44.74705558613569" lon="10.074796662856366"><ele>390.0</ele><time>2026-05-02T12:48:08.001Z</time></trkpt><trkpt lat="44.74698995461251" lon="10.07478521900061"><ele>390.0</ele><time>2026-05-02T12:48:09.001Z</time></trkpt><trkpt lat="44.746923008326675" lon="10.074774700889126"><ele>390.0</ele><time>2026-05-02T12:48:10.001Z</time></trkpt><trkpt lat="44.746851272581786" lon="10.074763454416741"><ele>390.0</ele><time>2026-05-02T12:48:11.001Z</time></trkpt><trkpt lat="44.74677354746381" lon="10.074749782851963"><ele>390.0</ele><time>2026-05-02T12:48:12.001Z</time></trkpt><trkpt lat="44.74668958296404" lon="10.074739911151658"><ele>390.0</ele><time>2026-05-02T12:48:13.001Z</time></trkpt><trkpt lat="44.74661474244051" lon="10.074733443029482"><ele>390.0</ele><time>2026-05-02T12:48:14.001Z</time></trkpt><trkpt lat="44.74649915374232" lon="10.074704150379915"><ele>392.1666666666667</ele><time>2026-05-02T12:48:16.001Z</time></trkpt><trkpt lat="44.74642465919598" lon="10.074664518979118"><ele>394.33333333333337</ele><time>2026-05-02T12:48:18.001Z</time></trkpt><trkpt lat="44.74649171230558" lon="10.074666557386204"><ele>396.5</ele><time>2026-05-02T12:48:30.001Z</time></trkpt><trkpt lat="44.74659440745465" lon="10.074704920239741"><ele>398.6666666666667</ele><time>2026-05-02T12:48:32.001Z</time></trkpt><trkpt lat="44.74668225779785" lon="10.074719827448396"><ele>400.83333333333337</ele><time>2026-05-02T12:48:34.001Z</time></trkpt><trkpt lat="44.746775406018216" lon="10.074748713004634"><ele>403.0</ele><time>2026-05-02T12:48:36.001Z</time></trkpt><trkpt lat="44.74686435015113" lon="10.074761914831878"><ele>400.4</ele><time>2026-05-02T12:48:38.002Z</time></trkpt><trkpt lat="44.74695570166147" lon="10.074779582833466"><ele>397.79999999999995</ele><time>2026-05-02T12:48:40.002Z</time></trkpt><trkpt lat="44.747039901265076" lon="10.074818481984467"><ele>395.2</ele><time>2026-05-02T12:48:42.002Z</time></trkpt><trkpt lat="44.74714309013886" lon="10.074800583741869"><ele>392.6</ele><time>2026-05-02T12:48:44.002Z</time></trkpt><trkpt lat="44.7472387705764" lon="10.074812288026889"><ele>390.0</ele><time>2026-05-02T12:48:46.002Z</time></trkpt><trkpt lat="44.74732625755385" lon="10.074786392964869"><ele>390.0</ele><time>2026-05-02T12:48:48.002Z</time></trkpt><trkpt lat="44.74739922770755" lon="10.074731246508119"><ele>390.0</ele><time>2026-05-02T12:48:50.002Z</time></trkpt><trkpt lat="44.74746253788111" lon="10.074657667530692"><ele>390.0</ele><time>2026-05-02T12:48:52.002Z</time></trkpt><trkpt lat="44.74751830371234" lon="10.074568414646622"><ele>390.0</ele><time>2026-05-02T12:48:54.002Z</time></trkpt><trkpt lat="44.747567764622346" lon="10.074488016245866"><ele>390.0</ele><time>2026-05-02T12:48:56.002Z</time></trkpt><trkpt lat="44.747632996402686" lon="10.074410582360722"><ele>390.0</ele><time>2026-05-02T12:49:00.002Z</time></trkpt><trkpt lat="44.747699236017056" lon="10.074378452903215"><ele>388.3333333333333</ele><time>2026-05-02T12:49:04.002Z</time></trkpt><trkpt lat="44.74775588523165" lon="10.074317341380102"><ele>386.6666666666667</ele><time>2026-05-02T12:49:55Z</time></trkpt><trkpt lat="44.74782153880776" lon="10.074245708851395"><ele>385.0</ele><time>2026-05-02T12:49:58Z</time></trkpt><trkpt lat="44.7478763869242" lon="10.07419150872254"><ele>383.33333333333337</ele><time>2026-05-02T12:50:00Z</time></trkpt><trkpt lat="44.747932046403164" lon="10.074082673464295"><ele>381.6666666666667</ele><time>2026-05-02T12:50:02Z</time></trkpt><trkpt lat="44.74797860312" lon="10.073992962575707"><ele>380.0</ele><time>2026-05-02T12:50:04Z</time></trkpt><trkpt lat="44.74803033010095" lon="10.073909975817294"><ele>380.0</ele><time>2026-05-02T12:50:06Z</time></trkpt><trkpt lat="44.748097972719194" lon="10.07382795615314"><ele>380.0</ele><time>2026-05-02T12:50:09.001Z</time></trkpt><trkpt lat="44.74815161949949" lon="10.07378034214521"><ele>380.0</ele><time>2026-05-02T12:50:11.001Z</time></trkpt><trkpt lat="44.74821913526155" lon="10.07372076839074"><ele>380.0</ele><time>2026-05-02T12:50:13.001Z</time></trkpt><trkpt lat="44.7483004154899" lon="10.07368692811577"><ele>380.0</ele><time>2026-05-02T12:50:15.001Z</time></trkpt><trkpt lat="44.74837028155522" lon="10.073641031087341"><ele>380.0</ele><time>2026-05-02T12:50:17.001Z</time></trkpt><trkpt lat="44.74843370402338" lon="10.07358571828358"><ele>380.0</ele><time>2026-05-02T12:50:20.001Z</time></trkpt><trkpt lat="44.748494304489945" lon="10.07352685984251"><ele>380.0</ele><time>2026-05-02T12:50:22.001Z</time></trkpt><trkpt lat="44.748548495383346" lon="10.073463662271061"><ele>380.0</ele><time>2026-05-02T12:50:24.001Z</time></trkpt><trkpt lat="44.748601766320775" lon="10.073397015036468"><ele>380.0</ele><time>2026-05-02T12:50:26.001Z</time></trkpt><trkpt lat="44.74868849799084" lon="10.073385241576164"><ele>380.0</ele><time>2026-05-02T12:50:32.001Z</time></trkpt><trkpt lat="44.74874735846834" lon="10.073428842943565"><ele>380.0</ele><time>2026-05-02T12:50:34.001Z</time></trkpt><trkpt lat="44.74882417481176" lon="10.07348393377352"><ele>377.7142857142857</ele><time>2026-05-02T12:50:36.001Z</time></trkpt><trkpt lat="44.74887256381731" lon="10.073553779323744"><ele>375.42857142857144</ele><time>2026-05-02T12:50:38.001Z</time></trkpt><trkpt lat="44.748913260574234" lon="10.073458154982337"><ele>373.1428571428571</ele><time>2026-05-02T12:50:41.002Z</time></trkpt><trkpt lat="44.748915065615584" lon="10.073348730965098"><ele>370.8571428571429</ele><time>2026-05-02T12:50:44.002Z</time></trkpt><trkpt lat="44.74892134528454" lon="10.073256647338813"><ele>368.57142857142856</ele><time>2026-05-02T12:50:47.002Z</time></trkpt><trkpt lat="44.74895605392067" lon="10.07317866754003"><ele>366.2857142857143</ele><time>2026-05-02T12:50:51.002Z</time></trkpt><trkpt lat="44.74901411847887" lon="10.073087829600915"><ele>364.0</ele><time>2026-05-02T12:50:58.002Z</time></trkpt><trkpt lat="44.749036461144385" lon="10.072998138676514"><ele>364.0</ele><time>2026-05-02T12:51:01.002Z</time></trkpt><trkpt lat="44.74908434500671" lon="10.072918030661214"><ele>364.0</ele><time>2026-05-02T12:51:05.002Z</time></trkpt><trkpt lat="44.74914751711857" lon="10.072836225644336"><ele>364.0</ele><time>2026-05-02T12:51:08.002Z</time></trkpt><trkpt lat="44.749198116751714" lon="10.07277407195075"><ele>364.0</ele><time>2026-05-02T12:51:11.002Z</time></trkpt><trkpt lat="44.749249988303134" lon="10.072711564293305"><ele>364.0</ele><time>2026-05-02T12:51:34.003Z</time></trkpt><trkpt lat="44.7492962730793" lon="10.072643615027674"><ele>364.0</ele><time>2026-05-02T12:52:29.001Z</time></trkpt><trkpt lat="44.74935741400587" lon="10.072615611603359"><ele>364.0</ele><time>2026-05-02T12:52:42.001Z</time></trkpt><trkpt lat="44.74942629506936" lon="10.072560353606633"><ele>362.57142857142856</ele><time>2026-05-02T12:52:50.002Z</time></trkpt><trkpt lat="44.74949206127409" lon="10.072541227957418"><ele>361.1428571428571</ele><time>2026-05-02T12:52:55.002Z</time></trkpt><trkpt lat="44.74955467983566" lon="10.072502738543257"><ele>359.7142857142857</ele><time>2026-05-02T12:53:02.002Z</time></trkpt><trkpt lat="44.7496230353401" lon="10.072447447241503"><ele>358.2857142857143</ele><time>2026-05-02T12:53:30.003Z</time></trkpt><trkpt lat="44.74968743237823" lon="10.072392464259865"><ele>356.85714285714283</ele><time>2026-05-02T12:53:44.003Z</time></trkpt><trkpt lat="44.74974581671182" lon="10.072346796195065"><ele>355.42857142857144</ele><time>2026-05-02T12:53:55Z</time></trkpt><trkpt lat="44.7498088271242" lon="10.072302719849592"><ele>354.0</ele><time>2026-05-02T12:54:01Z</time></trkpt><trkpt lat="44.74985745277265" lon="10.072227381898998"><ele>354.0</ele><time>2026-05-02T12:54:08Z</time></trkpt><trkpt lat="44.749907091469" lon="10.072167702654399"><ele>354.0</ele><time>2026-05-02T12:54:16.001Z</time></trkpt><trkpt lat="44.74996039781246" lon="10.072116187523953"><ele>354.0</ele><time>2026-05-02T12:54:20.001Z</time></trkpt><trkpt lat="44.75001904602726" lon="10.0720585109953"><ele>354.0</ele><time>2026-05-02T12:54:24.001Z</time></trkpt><trkpt lat="44.7500942464214" lon="10.071995836756967"><ele>354.0</ele><time>2026-05-02T12:54:28.001Z</time></trkpt><trkpt lat="44.7501550768977" lon="10.07194237360175"><ele>354.0</ele><time>2026-05-02T12:54:31.001Z</time></trkpt><trkpt lat="44.75022712253082" lon="10.071909865950634"><ele>354.0</ele><time>2026-05-02T12:54:34.001Z</time></trkpt><trkpt lat="44.75033056113563" lon="10.07185206903985"><ele>350.4</ele><time>2026-05-02T12:54:52.002Z</time></trkpt><trkpt lat="44.75040091033512" lon="10.07184421311708"><ele>346.79999999999995</ele><time>2026-05-02T12:54:54.002Z</time></trkpt><trkpt lat="44.75046686353899" lon="10.071822438037398"><ele>343.20000000000005</ele><time>2026-05-02T12:54:56.002Z</time></trkpt><trkpt lat="44.750557282755516" lon="10.071781994551623"><ele>339.6</ele><time>2026-05-02T12:54:59.002Z</time></trkpt><trkpt lat="44.750735783763176" lon="10.071699446408932"><ele>336.0</ele><time>2026-05-02T12:55:04.002Z</time></trkpt><trkpt lat="44.7508162324346" lon="10.071721000073614"><ele>336.0</ele><time>2026-05-02T12:55:05.002Z</time></trkpt><trkpt lat="44.75090335058418" lon="10.071771248421577"><ele>336.0</ele><time>2026-05-02T12:55:07.002Z</time></trkpt><trkpt lat="44.7509716330509" lon="10.071793768513038"><ele>336.0</ele><time>2026-05-02T12:55:08.002Z</time></trkpt><trkpt lat="44.75110586336358" lon="10.071825820339187"><ele>336.0</ele><time>2026-05-02T12:55:10.002Z</time></trkpt><trkpt lat="44.75118655772967" lon="10.071841381236304"><ele>336.0</ele><time>2026-05-02T12:55:11.002Z</time></trkpt><trkpt lat="44.75126503836353" lon="10.071844122882604"><ele>334.1666666666667</ele><time>2026-05-02T12:55:12.002Z</time></trkpt><trkpt lat="44.75135667358179" lon="10.071843870546454"><ele>332.3333333333333</ele><time>2026-05-02T12:55:13.002Z</time></trkpt><trkpt lat="44.75143602639844" lon="10.07185185314684"><ele>330.5</ele><time>2026-05-02T12:55:14.002Z</time></trkpt><trkpt lat="44.75150586417228" lon="10.071854006572801"><ele>328.66666666666663</ele><time>2026-05-02T12:55:15.002Z</time></trkpt><trkpt lat="44.75162000152716" lon="10.071857109908919"><ele>326.8333333333333</ele><time>2026-05-02T12:55:17.002Z</time></trkpt><trkpt lat="44.751708772842036" lon="10.071863562441985"><ele>325.0</ele><time>2026-05-02T12:55:19.002Z</time></trkpt><trkpt lat="44.75181224349616" lon="10.071868969403159"><ele>324.0</ele><time>2026-05-02T12:55:21.002Z</time></trkpt><trkpt lat="44.75192702548188" lon="10.071889196915812"><ele>323.0</ele><time>2026-05-02T12:55:23.002Z</time></trkpt><trkpt lat="44.752030348945105" lon="10.0719024573556"><ele>322.0</ele><time>2026-05-02T12:55:25.002Z</time></trkpt><trkpt lat="44.75210424772456" lon="10.071920774174862"><ele>321.0</ele><time>2026-05-02T12:55:27.003Z</time></trkpt><trkpt lat="44.75217445112644" lon="10.071930077272022"><ele>320.0</ele><time>2026-05-02T12:55:31.003Z</time></trkpt><trkpt lat="44.752238559298334" lon="10.071952550201422"><ele>319.0</ele><time>2026-05-02T12:55:51.003Z</time></trkpt><trkpt lat="44.75232091905433" lon="10.071971606469743"><ele>319.0</ele><time>2026-05-02T12:56:03Z</time></trkpt><trkpt lat="44.752383475943184" lon="10.07193602977635"><ele>319.0</ele><time>2026-05-02T12:56:06Z</time></trkpt><trkpt lat="44.75244383280442" lon="10.071889138906176"><ele>319.0</ele><time>2026-05-02T12:56:09Z</time></trkpt><trkpt lat="44.75249503307461" lon="10.0718073239072"><ele>319.0</ele><time>2026-05-02T12:56:12Z</time></trkpt><trkpt lat="44.75252808065618" lon="10.0717067221347"><ele>319.0</ele><time>2026-05-02T12:56:15Z</time></trkpt><trkpt lat="44.752589524823" lon="10.071620000699362"><ele>319.0</ele><time>2026-05-02T12:56:18Z</time></trkpt><trkpt lat="44.75266985336614" lon="10.071570351020059"><ele>313.3333333333333</ele><time>2026-05-02T12:56:20Z</time></trkpt><trkpt lat="44.75273658434986" lon="10.071529286699338"><ele>307.66666666666663</ele><time>2026-05-02T12:56:22Z</time></trkpt><trkpt lat="44.752820470086114" lon="10.07150437861279"><ele>302.0</ele><time>2026-05-02T12:56:25Z</time></trkpt><trkpt lat="44.752888297890486" lon="10.071468522911518"><ele>296.3333333333333</ele><time>2026-05-02T12:56:28Z</time></trkpt><trkpt lat="44.7529380505892" lon="10.071410571317063"><ele>290.6666666666667</ele><time>2026-05-02T12:56:31Z</time></trkpt><trkpt lat="44.75298647206812" lon="10.071339910764925"><ele>285.0</ele><time>2026-05-02T12:56:34.001Z</time></trkpt><trkpt lat="44.753075750503896" lon="10.071376391433544"><ele>285.0</ele><time>2026-05-02T12:56:37.001Z</time></trkpt><trkpt lat="44.753157306338366" lon="10.071482495296465"><ele>285.0</ele><time>2026-05-02T12:56:39.001Z</time></trkpt><trkpt lat="44.753201903235926" lon="10.071612877318787"><ele>285.0</ele><time>2026-05-02T12:56:41.001Z</time></trkpt><trkpt lat="44.75321644762961" lon="10.07174298658268"><ele>285.0</ele><time>2026-05-02T12:56:43.001Z</time></trkpt><trkpt lat="44.75320293862883" lon="10.071839174641223"><ele>285.0</ele><time>2026-05-02T12:56:45.001Z</time></trkpt><trkpt lat="44.753195417724825" lon="10.071928606323194"><ele>285.0</ele><time>2026-05-02T12:56:47.001Z</time></trkpt><trkpt lat="44.75318943949443" lon="10.072019854492833"><ele>286.6666666666667</ele><time>2026-05-02T12:56:49.001Z</time></trkpt><trkpt lat="44.75315875789453" lon="10.072142225575854"><ele>288.3333333333333</ele><time>2026-05-02T12:56:52.001Z</time></trkpt><trkpt lat="44.75313889294666" lon="10.072255800719718"><ele>290.0</ele><time>2026-05-02T12:56:56.001Z</time></trkpt><trkpt lat="44.753137068281404" lon="10.072360759267742"><ele>291.66666666666663</ele><time>2026-05-02T12:56:59.001Z</time></trkpt><trkpt lat="44.753131526706234" lon="10.07246329245381"><ele>293.3333333333333</ele><time>2026-05-02T12:57:02.001Z</time></trkpt><trkpt lat="44.753134548872744" lon="10.072561251371177"><ele>295.0</ele><time>2026-05-02T12:57:07.002Z</time></trkpt><trkpt lat="44.753137957813024" lon="10.072659072195151"><ele>295.16666666666663</ele><time>2026-05-02T12:57:13.002Z</time></trkpt><trkpt lat="44.75320506462327" lon="10.07270737595635"><ele>295.3333333333333</ele><time>2026-05-02T12:57:24.002Z</time></trkpt><trkpt lat="44.75326883033609" lon="10.07270540730743"><ele>295.5</ele><time>2026-05-02T12:57:26.002Z</time></trkpt><trkpt lat="44.7533474420355" lon="10.072711952705273"><ele>295.6666666666667</ele><time>2026-05-02T12:57:28.002Z</time></trkpt><trkpt lat="44.753455885617875" lon="10.072770418550325"><ele>295.83333333333337</ele><time>2026-05-02T12:57:30.002Z</time></trkpt><trkpt lat="44.7535465180424" lon="10.072834531929832"><ele>296.0</ele><time>2026-05-02T12:57:32.002Z</time></trkpt><trkpt lat="44.753645123707734" lon="10.072893907161221"><ele>293.0</ele><time>2026-05-02T12:57:34.002Z</time></trkpt><trkpt lat="44.75375444746295" lon="10.072959319844957"><ele>290.0</ele><time>2026-05-02T12:57:36.002Z</time></trkpt><trkpt lat="44.75385876131054" lon="10.073008023657442"><ele>287.0</ele><time>2026-05-02T12:57:38.002Z</time></trkpt><trkpt lat="44.75395417064371" lon="10.073059919043848"><ele>284.0</ele><time>2026-05-02T12:57:40.002Z</time></trkpt><trkpt lat="44.754049817058096" lon="10.073115058112096"><ele>281.0</ele><time>2026-05-02T12:57:42.003Z</time></trkpt><trkpt lat="44.754132330705154" lon="10.07320073031376"><ele>281.0</ele><time>2026-05-02T12:57:44.003Z</time></trkpt><trkpt lat="44.75419858758281" lon="10.073253262672607"><ele>281.0</ele><time>2026-05-02T12:57:46.003Z</time></trkpt><trkpt lat="44.75426844790547" lon="10.073291299900156"><ele>281.0</ele><time>2026-05-02T12:57:49.003Z</time></trkpt><trkpt lat="44.75433732035445" lon="10.073317531665019"><ele>281.0</ele><time>2026-05-02T12:57:51.003Z</time></trkpt><trkpt lat="44.75439818665011" lon="10.073353846526391"><ele>281.0</ele><time>2026-05-02T12:57:53.003Z</time></trkpt><trkpt lat="44.754320879872836" lon="10.07336950462633"><ele>281.0</ele><time>2026-05-02T12:58:00.003Z</time></trkpt><trkpt lat="44.754230977101" lon="10.073287586929771"><ele>281.0</ele><time>2026-05-02T12:58:01.999Z</time></trkpt><trkpt lat="44.75416176471409" lon="10.07321601886075"><ele>281.0</ele><time>2026-05-02T12:58:03.999Z</time></trkpt><trkpt lat="44.75408917214468" lon="10.073153213178992"><ele>281.0</ele><time>2026-05-02T12:58:05.999Z</time></trkpt><trkpt lat="44.75400548266301" lon="10.073091271419008"><ele>281.0</ele><time>2026-05-02T12:58:07.999Z</time></trkpt><trkpt lat="44.753898605562995" lon="10.073035545938051"><ele>281.0</ele><time>2026-05-02T12:58:09.999Z</time></trkpt><trkpt lat="44.75378794737332" lon="10.07297343407013"><ele>281.0</ele><time>2026-05-02T12:58:11.999Z</time></trkpt><trkpt lat="44.75367068534123" lon="10.072908541044223"><ele>281.0</ele><time>2026-05-02T12:58:13.999Z</time></trkpt><trkpt lat="44.75356195361818" lon="10.072843744356181"><ele>281.0</ele><time>2026-05-02T12:58:15.999Z</time></trkpt><trkpt lat="44.753498061350506" lon="10.07280806580104"><ele>281.0</ele><time>2026-05-02T12:58:16.999Z</time></trkpt><trkpt lat="44.75338376019053" lon="10.072737056528688"><ele>281.0</ele><time>2026-05-02T12:58:18.999Z</time></trkpt><trkpt lat="44.75328609659375" lon="10.072699436479462"><ele>283.33333333333337</ele><time>2026-05-02T12:58:20.999Z</time></trkpt><trkpt lat="44.75322614527913" lon="10.072746535743903"><ele>285.6666666666667</ele><time>2026-05-02T12:58:23Z</time></trkpt><trkpt lat="44.7531856156063" lon="10.072828636284338"><ele>288.0</ele><time>2026-05-02T12:58:26Z</time></trkpt><trkpt lat="44.75321768557032" lon="10.072735881675616"><ele>290.3333333333333</ele><time>2026-05-02T12:59:52.003Z</time></trkpt><trkpt lat="44.75323763047137" lon="10.07263883902091"><ele>292.66666666666663</ele><time>2026-05-02T12:59:55.003Z</time></trkpt><trkpt lat="44.75323463697813" lon="10.07252606498349"><ele>295.0</ele><time>2026-05-02T13:00:28Z</time></trkpt><trkpt lat="44.75323440670887" lon="10.072397337423848"><ele>295.0</ele><time>2026-05-02T13:00:30Z</time></trkpt><trkpt lat="44.75324919117041" lon="10.072246385635461"><ele>295.0</ele><time>2026-05-02T13:00:32Z</time></trkpt><trkpt lat="44.75326698984599" lon="10.072153284740246"><ele>295.0</ele><time>2026-05-02T13:00:33Z</time></trkpt><trkpt lat="44.753311574843835" lon="10.071953376553823"><ele>295.0</ele><time>2026-05-02T13:00:35Z</time></trkpt><trkpt lat="44.75333911732529" lon="10.071796054582002"><ele>295.0</ele><time>2026-05-02T13:00:37Z</time></trkpt><trkpt lat="44.753357224305034" lon="10.071671661959623"><ele>293.3333333333333</ele><time>2026-05-02T13:00:39Z</time></trkpt><trkpt lat="44.753355068427" lon="10.071568126460129"><ele>291.66666666666663</ele><time>2026-05-02T13:00:41Z</time></trkpt><trkpt lat="44.75335106928306" lon="10.071466007817683"><ele>290.0</ele><time>2026-05-02T13:00:43.001Z</time></trkpt><trkpt lat="44.753324138998686" lon="10.07136455456608"><ele>288.3333333333333</ele><time>2026-05-02T13:00:59.001Z</time></trkpt><trkpt lat="44.75328396481892" lon="10.071290702085744"><ele>286.6666666666667</ele><time>2026-05-02T13:01:01.001Z</time></trkpt><trkpt lat="44.75322451367996" lon="10.07121991102439"><ele>285.0</ele><time>2026-05-02T13:01:03.001Z</time></trkpt><trkpt lat="44.75315501136575" lon="10.071141369534901"><ele>285.0</ele><time>2026-05-02T13:01:05.001Z</time></trkpt><trkpt lat="44.75309878351218" lon="10.0710763948438"><ele>285.0</ele><time>2026-05-02T13:01:07.001Z</time></trkpt><trkpt lat="44.753031524509886" lon="10.071007643873648"><ele>285.0</ele><time>2026-05-02T13:01:09.001Z</time></trkpt><trkpt lat="44.752976301230255" lon="10.070953474746393"><ele>285.0</ele><time>2026-05-02T13:01:10.001Z</time></trkpt><trkpt lat="44.75292176607885" lon="10.07089885235432"><ele>285.0</ele><time>2026-05-02T13:01:11.001Z</time></trkpt><trkpt lat="44.7529800111979" lon="10.070932799887544"><ele>285.0</ele><time>2026-05-02T13:01:25.002Z</time></trkpt><trkpt lat="44.753043311486486" lon="10.071020019171197"><ele>285.0</ele><time>2026-05-02T13:01:26.002Z</time></trkpt><trkpt lat="44.753098208961866" lon="10.071080215988506"><ele>285.0</ele><time>2026-05-02T13:01:27.002Z</time></trkpt><trkpt lat="44.75316304002457" lon="10.071160624823845"><ele>285.0</ele><time>2026-05-02T13:01:28.002Z</time></trkpt><trkpt lat="44.753235856941124" lon="10.071252860354127"><ele>285.0</ele><time>2026-05-02T13:01:29.002Z</time></trkpt><trkpt lat="44.753296226911" lon="10.07134002426737"><ele>285.0</ele><time>2026-05-02T13:01:30.002Z</time></trkpt><trkpt lat="44.753331783330985" lon="10.071420754141771"><ele>285.0</ele><time>2026-05-02T13:01:31.002Z</time></trkpt><trkpt lat="44.75335137412181" lon="10.07151209682218"><ele>285.0</ele><time>2026-05-02T13:01:32.002Z</time></trkpt><trkpt lat="44.7533582168316" lon="10.071608941222522"><ele>287.0</ele><time>2026-05-02T13:01:33.002Z</time></trkpt><trkpt lat="44.75334292257077" lon="10.071773566799552"><ele>289.0</ele><time>2026-05-02T13:01:35.002Z</time></trkpt><trkpt lat="44.75331107760461" lon="10.071948715628531"><ele>291.0</ele><time>2026-05-02T13:01:37.002Z</time></trkpt><trkpt lat="44.753288113366956" lon="10.072038694731507"><ele>293.0</ele><time>2026-05-02T13:01:38.002Z</time></trkpt><trkpt lat="44.75326636058071" lon="10.072126617257219"><ele>295.0</ele><time>2026-05-02T13:01:39.002Z</time></trkpt><trkpt lat="44.7532406673544" lon="10.072280932583574"><ele>295.0</ele><time>2026-05-02T13:01:41.002Z</time></trkpt><trkpt lat="44.753229456523485" lon="10.07241010240664"><ele>295.0</ele><time>2026-05-02T13:01:43.002Z</time></trkpt><trkpt lat="44.75323407602387" lon="10.072529001886522"><ele>295.0</ele><time>2026-05-02T13:01:45.003Z</time></trkpt><trkpt lat="44.75323542375686" lon="10.072627370904298"><ele>295.0</ele><time>2026-05-02T13:01:47.003Z</time></trkpt><trkpt lat="44.75324539046867" lon="10.072732557216673"><ele>295.0</ele><time>2026-05-02T13:04:30Z</time></trkpt><trkpt lat="44.7531809305359" lon="10.07283999303127"><ele>295.0</ele><time>2026-05-02T13:04:32Z</time></trkpt><trkpt lat="44.75307589651197" lon="10.07304719921339"><ele>295.14285714285717</ele><time>2026-05-02T13:04:34Z</time></trkpt><trkpt lat="44.75303828895579" lon="10.073129568545124"><ele>295.2857142857143</ele><time>2026-05-02T13:04:35Z</time></trkpt><trkpt lat="44.75299971159586" lon="10.073204867470896"><ele>295.42857142857144</ele><time>2026-05-02T13:04:36Z</time></trkpt><trkpt lat="44.752950389430666" lon="10.073275237939043"><ele>295.57142857142856</ele><time>2026-05-02T13:04:37Z</time></trkpt><trkpt lat="44.752905082946675" lon="10.073367481588223"><ele>295.7142857142857</ele><time>2026-05-02T13:04:38Z</time></trkpt><trkpt lat="44.75286007140147" lon="10.073444186578882"><ele>295.8571428571429</ele><time>2026-05-02T13:04:39Z</time></trkpt><trkpt lat="44.75281248704742" lon="10.073517067419223"><ele>296.0</ele><time>2026-05-02T13:04:40Z</time></trkpt><trkpt lat="44.75276345987806" lon="10.073578235453988"><ele>296.8</ele><time>2026-05-02T13:04:41Z</time></trkpt><trkpt lat="44.752679246653585" lon="10.073702185378723"><ele>297.6</ele><time>2026-05-02T13:04:43Z</time></trkpt><trkpt lat="44.752621835698335" lon="10.073788326440168"><ele>298.4</ele><time>2026-05-02T13:04:44Z</time></trkpt><trkpt lat="44.752544256416535" lon="10.073890304387453"><ele>299.2</ele><time>2026-05-02T13:04:46Z</time></trkpt><trkpt lat="44.752469265533314" lon="10.073959069712632"><ele>300.0</ele><time>2026-05-02T13:04:48Z</time></trkpt><trkpt lat="44.75239174285788" lon="10.074002957136956"><ele>300.0</ele><time>2026-05-02T13:04:50.001Z</time></trkpt><trkpt lat="44.752294986035864" lon="10.073996163915805"><ele>300.0</ele><time>2026-05-02T13:04:52.001Z</time></trkpt><trkpt lat="44.752219124262986" lon="10.073932218804622"><ele>300.0</ele><time>2026-05-02T13:04:54.001Z</time></trkpt><trkpt lat="44.75215190546675" lon="10.073855722611157"><ele>300.0</ele><time>2026-05-02T13:04:56.001Z</time></trkpt><trkpt lat="44.75208532840812" lon="10.073793655729332"><ele>300.0</ele><time>2026-05-02T13:04:58.001Z</time></trkpt><trkpt lat="44.75198408285933" lon="10.073695373159445"><ele>300.0</ele><time>2026-05-02T13:05:00.001Z</time></trkpt><trkpt lat="44.75187768084643" lon="10.07360880891754"><ele>300.0</ele><time>2026-05-02T13:05:02.001Z</time></trkpt><trkpt lat="44.75181663771859" lon="10.073582563468463"><ele>300.0</ele><time>2026-05-02T13:05:03.001Z</time></trkpt><trkpt lat="44.75175354964524" lon="10.073561051810909"><ele>300.0</ele><time>2026-05-02T13:05:04.001Z</time></trkpt><trkpt lat="44.751665993116156" lon="10.073529656732614"><ele>300.0</ele><time>2026-05-02T13:05:05.001Z</time></trkpt><trkpt lat="44.75159547619515" lon="10.073487741435637"><ele>300.0</ele><time>2026-05-02T13:05:06.001Z</time></trkpt><trkpt lat="44.75152806861162" lon="10.073433196553864"><ele>300.4</ele><time>2026-05-02T13:05:07.001Z</time></trkpt><trkpt lat="44.75147115822767" lon="10.073393985861422"><ele>300.8</ele><time>2026-05-02T13:05:08.001Z</time></trkpt><trkpt lat="44.75137097717878" lon="10.073402834280715"><ele>301.2</ele><time>2026-05-02T13:05:10.001Z</time></trkpt><trkpt lat="44.75126974327875" lon="10.073507035041573"><ele>301.6</ele><time>2026-05-02T13:05:12.001Z</time></trkpt><trkpt lat="44.75119562974876" lon="10.073601725691535"><ele>302.0</ele><time>2026-05-02T13:05:13.001Z</time></trkpt><trkpt lat="44.75111493027363" lon="10.07370116637289"><ele>302.0</ele><time>2026-05-02T13:05:14.001Z</time></trkpt><trkpt lat="44.75104702032824" lon="10.073776387876446"><ele>302.0</ele><time>2026-05-02T13:05:15.001Z</time></trkpt><trkpt lat="44.75099624204359" lon="10.073836264538539"><ele>302.0</ele><time>2026-05-02T13:05:16.001Z</time></trkpt><trkpt lat="44.75095370452674" lon="10.073979480092099"><ele>302.0</ele><time>2026-05-02T13:05:18.001Z</time></trkpt><trkpt lat="44.75101079800057" lon="10.074087700525498"><ele>302.0</ele><time>2026-05-02T13:05:20.001Z</time></trkpt><trkpt lat="44.751066177558585" lon="10.074132092577598"><ele>302.0</ele><time>2026-05-02T13:05:21.002Z</time></trkpt><trkpt lat="44.75116442615698" lon="10.074185544638356"><ele>298.8</ele><time>2026-05-02T13:05:23.002Z</time></trkpt><trkpt lat="44.751232058911846" lon="10.07426737917125"><ele>295.6</ele><time>2026-05-02T13:05:26.002Z</time></trkpt><trkpt lat="44.751329653056494" lon="10.074424961732912"><ele>292.40000000000003</ele><time>2026-05-02T13:05:28.002Z</time></trkpt><trkpt lat="44.75138965234227" lon="10.074540744142626"><ele>289.2</ele><time>2026-05-02T13:05:29.002Z</time></trkpt><trkpt lat="44.75144927444096" lon="10.07464856766436"><ele>286.0</ele><time>2026-05-02T13:05:30.002Z</time></trkpt><trkpt lat="44.75150368672823" lon="10.074753219411809"><ele>286.0</ele><time>2026-05-02T13:05:31.002Z</time></trkpt><trkpt lat="44.751542669121115" lon="10.074864135725203"><ele>286.0</ele><time>2026-05-02T13:05:32.002Z</time></trkpt><trkpt lat="44.751573086282214" lon="10.074982257282562"><ele>286.0</ele><time>2026-05-02T13:05:33.002Z</time></trkpt><trkpt lat="44.75157336287044" lon="10.075086481824833"><ele>286.0</ele><time>2026-05-02T13:05:34.002Z</time></trkpt><trkpt lat="44.75157158252292" lon="10.075186598434906"><ele>286.0</ele><time>2026-05-02T13:05:35.002Z</time></trkpt><trkpt lat="44.75154719096545" lon="10.075270495931717"><ele>286.0</ele><time>2026-05-02T13:05:36.002Z</time></trkpt><trkpt lat="44.75150674018575" lon="10.075435489462176"><ele>286.0</ele><time>2026-05-02T13:05:38.002Z</time></trkpt><trkpt lat="44.75146694936223" lon="10.075563548178469"><ele>286.0</ele><time>2026-05-02T13:05:39.002Z</time></trkpt><trkpt lat="44.75141493356771" lon="10.075665436305655"><ele>286.0</ele><time>2026-05-02T13:05:40.002Z</time></trkpt><trkpt lat="44.751366753921786" lon="10.07574113285325"><ele>286.0</ele><time>2026-05-02T13:05:41.002Z</time></trkpt><trkpt lat="44.75131238399541" lon="10.075841105202437"><ele>286.0</ele><time>2026-05-02T13:05:42.002Z</time></trkpt><trkpt lat="44.75126168634032" lon="10.075949660304817"><ele>286.0</ele><time>2026-05-02T13:05:43.002Z</time></trkpt><trkpt lat="44.75121607716748" lon="10.07605656221226"><ele>286.0</ele><time>2026-05-02T13:05:44.002Z</time></trkpt><trkpt lat="44.75117452498155" lon="10.076172366232653"><ele>286.0</ele><time>2026-05-02T13:05:45.002Z</time></trkpt><trkpt lat="44.75112195537267" lon="10.076301682935068"><ele>286.0</ele><time>2026-05-02T13:05:46.002Z</time></trkpt><trkpt lat="44.75107765977924" lon="10.076425070924941"><ele>286.0</ele><time>2026-05-02T13:05:47.002Z</time></trkpt><trkpt lat="44.75103322178968" lon="10.076535513112828"><ele>286.0</ele><time>2026-05-02T13:05:48.002Z</time></trkpt><trkpt lat="44.7509914911058" lon="10.076623172155763"><ele>287.71428571428567</ele><time>2026-05-02T13:05:49.002Z</time></trkpt><trkpt lat="44.750940537740156" lon="10.076701292420713"><ele>289.42857142857144</ele><time>2026-05-02T13:05:50.002Z</time></trkpt><trkpt lat="44.75088374357169" lon="10.07675531036512"><ele>291.1428571428571</ele><time>2026-05-02T13:05:51.002Z</time></trkpt><trkpt lat="44.75082080674967" lon="10.076809240859173"><ele>292.85714285714283</ele><time>2026-05-02T13:05:52.002Z</time></trkpt><trkpt lat="44.75075826369737" lon="10.076856344522607"><ele>294.57142857142856</ele><time>2026-05-02T13:05:53.003Z</time></trkpt><trkpt lat="44.750686354360134" lon="10.076900204130656"><ele>296.2857142857143</ele><time>2026-05-02T13:05:54.003Z</time></trkpt><trkpt lat="44.75061972529872" lon="10.076961115811082"><ele>298.0</ele><time>2026-05-02T13:05:55.003Z</time></trkpt><trkpt lat="44.75056426352243" lon="10.077023589258044"><ele>298.0</ele><time>2026-05-02T13:05:56.003Z</time></trkpt><trkpt lat="44.75050051167148" lon="10.077126429700517"><ele>298.0</ele><time>2026-05-02T13:05:57.003Z</time></trkpt><trkpt lat="44.7504461733449" lon="10.07722701914904"><ele>298.0</ele><time>2026-05-02T13:05:58.003Z</time></trkpt><trkpt lat="44.750383755881444" lon="10.077299726580558"><ele>298.0</ele><time>2026-05-02T13:05:59.003Z</time></trkpt><trkpt lat="44.75032815760297" lon="10.0773748550329"><ele>298.0</ele><time>2026-05-02T13:06:00.003Z</time></trkpt><trkpt lat="44.75028527460279" lon="10.077439961200017"><ele>298.0</ele><time>2026-05-02T13:06:01.003Z</time></trkpt><trkpt lat="44.75018117978551" lon="10.077549388780795"><ele>299.66666666666663</ele><time>2026-05-02T13:06:03.003Z</time></trkpt><trkpt lat="44.75012879545304" lon="10.077603217262974"><ele>301.3333333333333</ele><time>2026-05-02T13:06:04.003Z</time></trkpt><trkpt lat="44.75008733359007" lon="10.07767175191197"><ele>303.0</ele><time>2026-05-02T13:06:05.003Z</time></trkpt><trkpt lat="44.75003741058217" lon="10.077813661540416"><ele>304.6666666666667</ele><time>2026-05-02T13:06:07.003Z</time></trkpt><trkpt lat="44.75004306247326" lon="10.077919135552984"><ele>306.33333333333337</ele><time>2026-05-02T13:06:09.003Z</time></trkpt><trkpt lat="44.75009017832538" lon="10.078035187254658"><ele>308.0</ele><time>2026-05-02T13:06:11.003Z</time></trkpt><trkpt lat="44.750149882584104" lon="10.078148190780508"><ele>305.8</ele><time>2026-05-02T13:06:13.003Z</time></trkpt><trkpt lat="44.75021159679025" lon="10.078248443014907"><ele>303.6</ele><time>2026-05-02T13:06:15.003Z</time></trkpt><trkpt lat="44.7502615433485" lon="10.078342955113516"><ele>301.4</ele><time>2026-05-02T13:06:17.003Z</time></trkpt><trkpt lat="44.75028876113537" lon="10.078469017123156"><ele>299.2</ele><time>2026-05-02T13:06:19.003Z</time></trkpt><trkpt lat="44.75029324794952" lon="10.078609953849893"><ele>297.0</ele><time>2026-05-02T13:06:21.003Z</time></trkpt><trkpt lat="44.750318414273636" lon="10.0787173870492"><ele>297.0</ele><time>2026-05-02T13:06:23.003Z</time></trkpt><trkpt lat="44.75037595200531" lon="10.078807582747787"><ele>297.0</ele><time>2026-05-02T13:07:49.002Z</time></trkpt><trkpt lat="44.75049838126547" lon="10.078807097135032"><ele>297.0</ele><time>2026-05-02T13:07:51.002Z</time></trkpt><trkpt lat="44.75059896522822" lon="10.078805159117557"><ele>297.0</ele><time>2026-05-02T13:07:52.002Z</time></trkpt><trkpt lat="44.750691076226005" lon="10.078815343418256"><ele>297.0</ele><time>2026-05-02T13:07:53.002Z</time></trkpt><trkpt lat="44.750796144178885" lon="10.078817461913111"><ele>297.0</ele><time>2026-05-02T13:07:54.002Z</time></trkpt><trkpt lat="44.75092667063719" lon="10.078832242976649"><ele>297.0</ele><time>2026-05-02T13:07:55.002Z</time></trkpt><trkpt lat="44.75104926721967" lon="10.07886207134918"><ele>297.0</ele><time>2026-05-02T13:07:56.002Z</time></trkpt><trkpt lat="44.75117383877023" lon="10.07890739264636"><ele>297.0</ele><time>2026-05-02T13:07:57.002Z</time></trkpt><trkpt lat="44.75129836916575" lon="10.078966648053854"><ele>296.25</ele><time>2026-05-02T13:07:58.002Z</time></trkpt><trkpt lat="44.751406490615715" lon="10.079047057915414"><ele>295.5</ele><time>2026-05-02T13:07:59.002Z</time></trkpt><trkpt lat="44.75150838138603" lon="10.0791368489214"><ele>294.75</ele><time>2026-05-02T13:08:00.002Z</time></trkpt><trkpt lat="44.75160726111938" lon="10.07923493290175"><ele>294.0</ele><time>2026-05-02T13:08:01.002Z</time></trkpt><trkpt lat="44.751707720187696" lon="10.079351080839269"><ele>294.5</ele><time>2026-05-02T13:08:02.003Z</time></trkpt><trkpt lat="44.75179711931023" lon="10.079479843769263"><ele>295.0</ele><time>2026-05-02T13:08:03.003Z</time></trkpt><trkpt lat="44.75188128838873" lon="10.079625906997572"><ele>295.5</ele><time>2026-05-02T13:08:04.003Z</time></trkpt><trkpt lat="44.75195694227669" lon="10.079782512900445"><ele>296.0</ele><time>2026-05-02T13:08:05.003Z</time></trkpt><trkpt lat="44.75202255175343" lon="10.07994120419254"><ele>296.0</ele><time>2026-05-02T13:08:06.003Z</time></trkpt><trkpt lat="44.75208209699528" lon="10.080111457270856"><ele>296.0</ele><time>2026-05-02T13:08:07.003Z</time></trkpt><trkpt lat="44.75216494887143" lon="10.08042652384293"><ele>296.0</ele><time>2026-05-02T13:08:09.003Z</time></trkpt><trkpt lat="44.752202727190806" lon="10.080564799579482"><ele>298.75</ele><time>2026-05-02T13:08:10.003Z</time></trkpt><trkpt lat="44.75226509608398" lon="10.08091654077895"><ele>301.5</ele><time>2026-05-02T13:08:13.003Z</time></trkpt><trkpt lat="44.752266718186824" lon="10.081016541418817"><ele>304.25</ele><time>2026-05-02T13:08:14.003Z</time></trkpt><trkpt lat="44.752246400291725" lon="10.081140158820677"><ele>307.0</ele><time>2026-05-02T13:08:16.003Z</time></trkpt><trkpt lat="44.75228999406028" lon="10.081062582357449"><ele>307.0</ele><time>2026-05-02T13:08:20.003Z</time></trkpt><trkpt lat="44.752276527537504" lon="10.080874356629236"><ele>307.0</ele><time>2026-05-02T13:08:22.003Z</time></trkpt><trkpt lat="44.75225742314587" lon="10.080757600312712"><ele>307.0</ele><time>2026-05-02T13:08:23.003Z</time></trkpt><trkpt lat="44.75223583942772" lon="10.080636199630883"><ele>307.0</ele><time>2026-05-02T13:08:25.003Z</time></trkpt><trkpt lat="44.752244310107066" lon="10.08053499834566"><ele>307.0</ele><time>2026-05-02T13:08:28.003Z</time></trkpt><trkpt lat="44.75230034170813" lon="10.080470602387916"><ele>307.0</ele><time>2026-05-02T13:08:31.003Z</time></trkpt><trkpt lat="44.752358994783236" lon="10.080433580850146"><ele>307.0</ele><time>2026-05-02T13:08:57Z</time></trkpt><trkpt lat="44.75228970202761" lon="10.080448702130603"><ele>307.0</ele><time>2026-05-02T13:09:00Z</time></trkpt><trkpt lat="44.752229347275424" lon="10.080560381526112"><ele>307.0</ele><time>2026-05-02T13:09:02.001Z</time></trkpt><trkpt lat="44.75222756466043" lon="10.08072184872102"><ele>307.0</ele><time>2026-05-02T13:09:04.001Z</time></trkpt><trkpt lat="44.752247577626456" lon="10.08085728710257"><ele>307.0</ele><time>2026-05-02T13:09:05.001Z</time></trkpt><trkpt lat="44.752261689446385" lon="10.08098718166645"><ele>307.0</ele><time>2026-05-02T13:09:06.001Z</time></trkpt><trkpt lat="44.75226445229514" lon="10.08114029344179"><ele>307.0</ele><time>2026-05-02T13:09:07.001Z</time></trkpt><trkpt lat="44.75225202065674" lon="10.081316099391696"><ele>307.0</ele><time>2026-05-02T13:09:08.001Z</time></trkpt><trkpt lat="44.75223287023251" lon="10.081503987774797"><ele>307.0</ele><time>2026-05-02T13:09:09.001Z</time></trkpt><trkpt lat="44.75220501725848" lon="10.0816901828877"><ele>306.75</ele><time>2026-05-02T13:09:10.001Z</time></trkpt><trkpt lat="44.75217980122307" lon="10.081874578803522"><ele>306.5</ele><time>2026-05-02T13:09:11.001Z</time></trkpt><trkpt lat="44.75216001891376" lon="10.082069510755533"><ele>306.25</ele><time>2026-05-02T13:09:12.001Z</time></trkpt><trkpt lat="44.75213609923597" lon="10.082253698060857"><ele>306.0</ele><time>2026-05-02T13:09:13.001Z</time></trkpt><trkpt lat="44.752107939358005" lon="10.082458940983155"><ele>306.0</ele><time>2026-05-02T13:09:14.001Z</time></trkpt><trkpt lat="44.75208694827988" lon="10.082642013050002"><ele>306.0</ele><time>2026-05-02T13:09:15.001Z</time></trkpt><trkpt lat="44.752072524321036" lon="10.082794586205932"><ele>306.0</ele><time>2026-05-02T13:09:16.001Z</time></trkpt><trkpt lat="44.7520560760583" lon="10.082972345647741"><ele>306.0</ele><time>2026-05-02T13:09:17.001Z</time></trkpt><trkpt lat="44.75206531346366" lon="10.08311516968318"><ele>306.0</ele><time>2026-05-02T13:09:18.001Z</time></trkpt><trkpt lat="44.752102512650175" lon="10.083259363754165"><ele>306.0</ele><time>2026-05-02T13:09:19.001Z</time></trkpt><trkpt lat="44.752159101112255" lon="10.083428453256591"><ele>306.0</ele><time>2026-05-02T13:09:20.001Z</time></trkpt><trkpt lat="44.75222753799157" lon="10.08360494341519"><ele>306.0</ele><time>2026-05-02T13:09:21.001Z</time></trkpt><trkpt lat="44.752283505968805" lon="10.08373762677723"><ele>306.5</ele><time>2026-05-02T13:09:22.001Z</time></trkpt><trkpt lat="44.7523350863172" lon="10.083851875296594"><ele>307.0</ele><time>2026-05-02T13:09:23.001Z</time></trkpt><trkpt lat="44.7524030067191" lon="10.083951372406492"><ele>307.5</ele><time>2026-05-02T13:09:24.001Z</time></trkpt><trkpt lat="44.75246762649185" lon="10.084022645472942"><ele>308.0</ele><time>2026-05-02T13:09:25.001Z</time></trkpt><trkpt lat="44.752519674002585" lon="10.084104899789622"><ele>308.5</ele><time>2026-05-02T13:09:26.001Z</time></trkpt><trkpt lat="44.75257256645233" lon="10.084196903269648"><ele>309.0</ele><time>2026-05-02T13:09:27.001Z</time></trkpt><trkpt lat="44.75259659432256" lon="10.084302799657998"><ele>309.59999999999997</ele><time>2026-05-02T13:09:28.001Z</time></trkpt><trkpt lat="44.752617207728996" lon="10.084426280218008"><ele>310.2</ele><time>2026-05-02T13:09:29.001Z</time></trkpt><trkpt lat="44.75261873365025" lon="10.084561390318857"><ele>310.79999999999995</ele><time>2026-05-02T13:09:30.001Z</time></trkpt><trkpt lat="44.75260850451864" lon="10.084696084523978"><ele>311.4</ele><time>2026-05-02T13:09:31.001Z</time></trkpt><trkpt lat="44.75261591390903" lon="10.084820835761368"><ele>312.0</ele><time>2026-05-02T13:09:32.001Z</time></trkpt><trkpt lat="44.75264130886782" lon="10.084940865039172"><ele>312.0</ele><time>2026-05-02T13:09:33.001Z</time></trkpt><trkpt lat="44.75267464701712" lon="10.085063793552244"><ele>312.0</ele><time>2026-05-02T13:09:34.001Z</time></trkpt><trkpt lat="44.752708528897635" lon="10.085185450943937"><ele>312.0</ele><time>2026-05-02T13:09:35.001Z</time></trkpt><trkpt lat="44.75274828009185" lon="10.085298868209998"><ele>312.0</ele><time>2026-05-02T13:09:36.001Z</time></trkpt><trkpt lat="44.752784276806025" lon="10.085404112183015"><ele>312.0</ele><time>2026-05-02T13:09:37.001Z</time></trkpt><trkpt lat="44.75281799340969" lon="10.085503687250187"><ele>312.0</ele><time>2026-05-02T13:09:38.001Z</time></trkpt><trkpt lat="44.75284631186035" lon="10.085593794954494"><ele>308.3333333333333</ele><time>2026-05-02T13:09:39.002Z</time></trkpt><trkpt lat="44.752869308771736" lon="10.085683132167508"><ele>304.6666666666667</ele><time>2026-05-02T13:09:40.002Z</time></trkpt><trkpt lat="44.752881265888455" lon="10.085776114019849"><ele>301.0</ele><time>2026-05-02T13:09:41.002Z</time></trkpt><trkpt lat="44.75288861513637" lon="10.085875448860465"><ele>297.33333333333337</ele><time>2026-05-02T13:09:42.002Z</time></trkpt><trkpt lat="44.752899835815505" lon="10.085990126764187"><ele>293.6666666666667</ele><time>2026-05-02T13:09:43.002Z</time></trkpt><trkpt lat="44.75291071255342" lon="10.086109419530821"><ele>290.0</ele><time>2026-05-02T13:09:44.002Z</time></trkpt><trkpt lat="44.75292397542163" lon="10.08621763882264"><ele>289.1666666666667</ele><time>2026-05-02T13:09:45.002Z</time></trkpt><trkpt lat="44.75293627505253" lon="10.086319482758826"><ele>288.33333333333337</ele><time>2026-05-02T13:09:46.002Z</time></trkpt><trkpt lat="44.75295503346456" lon="10.086420044303054"><ele>287.5</ele><time>2026-05-02T13:09:47.002Z</time></trkpt><trkpt lat="44.75299292376115" lon="10.08652963242902"><ele>286.6666666666667</ele><time>2026-05-02T13:09:48.002Z</time></trkpt><trkpt lat="44.753039848984145" lon="10.08663588003385"><ele>285.8333333333333</ele><time>2026-05-02T13:09:49.002Z</time></trkpt><trkpt lat="44.75309292447238" lon="10.086734016863884"><ele>285.0</ele><time>2026-05-02T13:09:50.002Z</time></trkpt><trkpt lat="44.753142026518645" lon="10.086829618092722"><ele>284.75</ele><time>2026-05-02T13:09:51.002Z</time></trkpt><trkpt lat="44.75318906617757" lon="10.08693535929542"><ele>284.5</ele><time>2026-05-02T13:09:52.002Z</time></trkpt><trkpt lat="44.753242098357305" lon="10.087056971742841"><ele>284.25</ele><time>2026-05-02T13:09:53.002Z</time></trkpt><trkpt lat="44.75330583837879" lon="10.087219529937558"><ele>284.0</ele><time>2026-05-02T13:09:54.002Z</time></trkpt><trkpt lat="44.75338336513775" lon="10.087421994812338"><ele>283.33333333333337</ele><time>2026-05-02T13:09:55.002Z</time></trkpt><trkpt lat="44.7534583952205" lon="10.08763397411095"><ele>282.6666666666667</ele><time>2026-05-02T13:09:56.002Z</time></trkpt><trkpt lat="44.753546988354834" lon="10.087850275599722"><ele>282.0</ele><time>2026-05-02T13:09:57.002Z</time></trkpt><trkpt lat="44.75362807806978" lon="10.088029912960488"><ele>278.5</ele><time>2026-05-02T13:09:58.002Z</time></trkpt><trkpt lat="44.7537135275659" lon="10.088194736617721"><ele>275.0</ele><time>2026-05-02T13:09:59.002Z</time></trkpt><trkpt lat="44.75378737969153" lon="10.088352279997288"><ele>271.5</ele><time>2026-05-02T13:10:00.002Z</time></trkpt><trkpt lat="44.75386359966418" lon="10.088514121730597"><ele>268.0</ele><time>2026-05-02T13:10:01.002Z</time></trkpt><trkpt lat="44.75392769117918" lon="10.088652684501298"><ele>268.0</ele><time>2026-05-02T13:10:02.002Z</time></trkpt><trkpt lat="44.75398586093746" lon="10.088783937934798"><ele>268.0</ele><time>2026-05-02T13:10:03.002Z</time></trkpt><trkpt lat="44.75403473519283" lon="10.08889430040477"><ele>268.0</ele><time>2026-05-02T13:10:04.002Z</time></trkpt><trkpt lat="44.75406717976609" lon="10.088990188627543"><ele>268.0</ele><time>2026-05-02T13:10:05.002Z</time></trkpt><trkpt lat="44.75408898447845" lon="10.089082815882675"><ele>268.0</ele><time>2026-05-02T13:10:06.002Z</time></trkpt><trkpt lat="44.75411215142583" lon="10.089177374638872"><ele>268.0</ele><time>2026-05-02T13:10:07.002Z</time></trkpt><trkpt lat="44.75415159736019" lon="10.089285461604232"><ele>268.4</ele><time>2026-05-02T13:10:08.002Z</time></trkpt><trkpt lat="44.75419289587638" lon="10.089465230126857"><ele>268.8</ele><time>2026-05-02T13:10:09.002Z</time></trkpt><trkpt lat="44.754219482494804" lon="10.089628771160298"><ele>269.2</ele><time>2026-05-02T13:10:10.002Z</time></trkpt><trkpt lat="44.75424120362215" lon="10.089755504553702"><ele>269.6</ele><time>2026-05-02T13:10:11.002Z</time></trkpt><trkpt lat="44.75424621269387" lon="10.08989060307869"><ele>270.0</ele><time>2026-05-02T13:10:12.002Z</time></trkpt><trkpt lat="44.75423338472851" lon="10.090058780363968"><ele>268.75</ele><time>2026-05-02T13:10:13.002Z</time></trkpt><trkpt lat="44.754221971585224" lon="10.090250466063221"><ele>267.5</ele><time>2026-05-02T13:10:14.003Z</time></trkpt><trkpt lat="44.7542124622283" lon="10.090425874503149"><ele>266.25</ele><time>2026-05-02T13:10:15.003Z</time></trkpt><trkpt lat="44.754203843263426" lon="10.090581716566025"><ele>265.0</ele><time>2026-05-02T13:10:16.003Z</time></trkpt><trkpt lat="44.75419640174386" lon="10.0907267425728"><ele>264.66666666666663</ele><time>2026-05-02T13:10:17.003Z</time></trkpt><trkpt lat="44.75418815691156" lon="10.09086571225396"><ele>264.3333333333333</ele><time>2026-05-02T13:10:18.003Z</time></trkpt><trkpt lat="44.75417798362091" lon="10.09099901311919"><ele>264.0</ele><time>2026-05-02T13:10:19.003Z</time></trkpt><trkpt lat="44.754161632840926" lon="10.09112331040948"><ele>263.6666666666667</ele><time>2026-05-02T13:10:20.003Z</time></trkpt><trkpt lat="44.75414448737988" lon="10.091247431437825"><ele>263.33333333333337</ele><time>2026-05-02T13:10:21.003Z</time></trkpt><trkpt lat="44.75412655233252" lon="10.091337190737477"><ele>263.0</ele><time>2026-05-02T13:10:22.003Z</time></trkpt><trkpt lat="44.75411568661568" lon="10.09144467228993"><ele>263.0</ele><time>2026-05-02T13:10:23.003Z</time></trkpt><trkpt lat="44.75411494237115" lon="10.091563147719999"><ele>263.0</ele><time>2026-05-02T13:10:25.003Z</time></trkpt><trkpt lat="44.75411959704181" lon="10.091661794438455"><ele>263.0</ele><time>2026-05-02T13:10:27.003Z</time></trkpt><trkpt lat="44.75413726421063" lon="10.091800479370189"><ele>263.0</ele><time>2026-05-02T13:11:23.001Z</time></trkpt><trkpt lat="44.754153730152034" lon="10.09190165212318"><ele>263.0</ele><time>2026-05-02T13:11:24.001Z</time></trkpt><trkpt lat="44.75417995957934" lon="10.092028879010282"><ele>263.0</ele><time>2026-05-02T13:11:25.001Z</time></trkpt><trkpt lat="44.75420727335053" lon="10.092141912274021"><ele>262.4</ele><time>2026-05-02T13:11:26.001Z</time></trkpt><trkpt lat="44.75423417302173" lon="10.092260867377387"><ele>261.8</ele><time>2026-05-02T13:11:27.001Z</time></trkpt><trkpt lat="44.75425811833461" lon="10.092382399877268"><ele>261.2</ele><time>2026-05-02T13:11:28.001Z</time></trkpt><trkpt lat="44.75428200671712" lon="10.092538542471981"><ele>260.6</ele><time>2026-05-02T13:11:29.001Z</time></trkpt><trkpt lat="44.7543041011817" lon="10.092705122209146"><ele>260.0</ele><time>2026-05-02T13:11:30.001Z</time></trkpt><trkpt lat="44.754321565905954" lon="10.092892440675971"><ele>259.33333333333337</ele><time>2026-05-02T13:11:31.001Z</time></trkpt><trkpt lat="44.75434156063123" lon="10.09311181237342"><ele>258.6666666666667</ele><time>2026-05-02T13:11:32.001Z</time></trkpt><trkpt lat="44.75436695132744" lon="10.09332171587542"><ele>258.0</ele><time>2026-05-02T13:11:33.001Z</time></trkpt><trkpt lat="44.75438517800159" lon="10.093538291917701"><ele>256.3333333333333</ele><time>2026-05-02T13:11:34.001Z</time></trkpt><trkpt lat="44.75439731055929" lon="10.093765091802135"><ele>254.66666666666666</ele><time>2026-05-02T13:11:35.001Z</time></trkpt><trkpt lat="44.75439147474157" lon="10.093999313826608"><ele>253.0</ele><time>2026-05-02T13:11:36.001Z</time></trkpt><trkpt lat="44.75436922205797" lon="10.09422897834583"><ele>253.0</ele><time>2026-05-02T13:11:37.001Z</time></trkpt><trkpt lat="44.754342052484056" lon="10.094472665190306"><ele>253.0</ele><time>2026-05-02T13:11:38.001Z</time></trkpt><trkpt lat="44.75432988904089" lon="10.094708166124434"><ele>253.0</ele><time>2026-05-02T13:11:39.001Z</time></trkpt><trkpt lat="44.75432723653389" lon="10.094912113053484"><ele>252.5</ele><time>2026-05-02T13:11:40.001Z</time></trkpt><trkpt lat="44.754326614047955" lon="10.095106311916048"><ele>252.0</ele><time>2026-05-02T13:11:41.001Z</time></trkpt><trkpt lat="44.754331544597974" lon="10.095294985625852"><ele>251.5</ele><time>2026-05-02T13:11:42.001Z</time></trkpt><trkpt lat="44.75433675900664" lon="10.095471446333827"><ele>251.0</ele><time>2026-05-02T13:11:43.001Z</time></trkpt><trkpt lat="44.754345430336826" lon="10.095648200336429"><ele>250.75</ele><time>2026-05-02T13:11:44.001Z</time></trkpt><trkpt lat="44.75435956475192" lon="10.095818245733806"><ele>250.5</ele><time>2026-05-02T13:11:45.002Z</time></trkpt><trkpt lat="44.754375542567715" lon="10.095986017832605"><ele>250.25</ele><time>2026-05-02T13:11:46.002Z</time></trkpt><trkpt lat="44.75439759854696" lon="10.096154232869354"><ele>250.0</ele><time>2026-05-02T13:11:47.002Z</time></trkpt><trkpt lat="44.75441696246558" lon="10.096322069617116"><ele>247.0</ele><time>2026-05-02T13:11:48.002Z</time></trkpt><trkpt lat="44.754437509351995" lon="10.096491160693256"><ele>244.0</ele><time>2026-05-02T13:11:49.002Z</time></trkpt><trkpt lat="44.7544607651983" lon="10.096664512168466"><ele>241.0</ele><time>2026-05-02T13:11:50.002Z</time></trkpt><trkpt lat="44.754486095419175" lon="10.096845511938938"><ele>238.0</ele><time>2026-05-02T13:11:51.002Z</time></trkpt><trkpt lat="44.75451395342728" lon="10.097021252796802"><ele>237.75</ele><time>2026-05-02T13:11:52.002Z</time></trkpt><trkpt lat="44.75453365702125" lon="10.097200293975016"><ele>237.5</ele><time>2026-05-02T13:11:53.002Z</time></trkpt><trkpt lat="44.754544964733874" lon="10.097372448908585"><ele>237.25</ele><time>2026-05-02T13:11:54.002Z</time></trkpt><trkpt lat="44.75454567945776" lon="10.09754176563226"><ele>237.0</ele><time>2026-05-02T13:11:55.002Z</time></trkpt><trkpt lat="44.75455199941526" lon="10.097717355379247"><ele>237.75</ele><time>2026-05-02T13:11:56.002Z</time></trkpt><trkpt lat="44.754527156973346" lon="10.0978892355661"><ele>238.5</ele><time>2026-05-02T13:11:57.002Z</time></trkpt><trkpt lat="44.754490677957726" lon="10.098084128511632"><ele>239.25</ele><time>2026-05-02T13:11:58.002Z</time></trkpt><trkpt lat="44.75443528819235" lon="10.098274213956532"><ele>240.0</ele><time>2026-05-02T13:11:59.002Z</time></trkpt><trkpt lat="44.75437662497895" lon="10.098459667331674"><ele>241.25</ele><time>2026-05-02T13:12:00.002Z</time></trkpt><trkpt lat="44.754313147548835" lon="10.098642569027472"><ele>242.5</ele><time>2026-05-02T13:12:01.002Z</time></trkpt><trkpt lat="44.75425102583147" lon="10.098821110384781"><ele>243.75</ele><time>2026-05-02T13:12:02.002Z</time></trkpt><trkpt lat="44.75419272124478" lon="10.098983211678325"><ele>245.0</ele><time>2026-05-02T13:12:03.002Z</time></trkpt><trkpt lat="44.7541408435812" lon="10.099136078000202"><ele>245.0</ele><time>2026-05-02T13:12:04.002Z</time></trkpt><trkpt lat="44.754093329681446" lon="10.099276504611701"><ele>245.0</ele><time>2026-05-02T13:12:05.002Z</time></trkpt><trkpt lat="44.75405183936722" lon="10.099402281496975"><ele>245.0</ele><time>2026-05-02T13:12:06.002Z</time></trkpt><trkpt lat="44.75400911538548" lon="10.09952323135568"><ele>245.0</ele><time>2026-05-02T13:12:07.002Z</time></trkpt><trkpt lat="44.753969669356444" lon="10.099641301134382"><ele>245.0</ele><time>2026-05-02T13:12:08.002Z</time></trkpt><trkpt lat="44.75393405953509" lon="10.099749914956062"><ele>245.00000000000003</ele><time>2026-05-02T13:12:09.002Z</time></trkpt><trkpt lat="44.753896262867535" lon="10.099857009827979"><ele>245.0</ele><time>2026-05-02T13:12:10.002Z</time></trkpt><trkpt lat="44.75386196736396" lon="10.099946223088297"><ele>245.0</ele><time>2026-05-02T13:12:11.002Z</time></trkpt><trkpt lat="44.75383247356748" lon="10.100039142405532"><ele>245.0</ele><time>2026-05-02T13:12:12.002Z</time></trkpt><trkpt lat="44.75377616905424" lon="10.100156689850914"><ele>245.00000000000003</ele><time>2026-05-02T13:12:14.002Z</time></trkpt><trkpt lat="44.75383731824855" lon="10.100241194185779"><ele>245.0</ele><time>2026-05-02T13:13:25.001Z</time></trkpt><trkpt lat="44.753890888052545" lon="10.100289647598675"><ele>244.83333333333334</ele><time>2026-05-02T13:13:27.001Z</time></trkpt><trkpt lat="44.75394820742132" lon="10.100351918265805"><ele>244.66666666666669</ele><time>2026-05-02T13:13:29.001Z</time></trkpt><trkpt lat="44.75401089758947" lon="10.10039769294755"><ele>244.5</ele><time>2026-05-02T13:13:30.001Z</time></trkpt><trkpt lat="44.75407879158518" lon="10.100462138782374"><ele>244.33333333333331</ele><time>2026-05-02T13:13:32.001Z</time></trkpt><trkpt lat="44.754149100795914" lon="10.10052923745518"><ele>244.16666666666666</ele><time>2026-05-02T13:13:34.001Z</time></trkpt><trkpt lat="44.75422165145252" lon="10.100602781224321"><ele>244.0</ele><time>2026-05-02T13:13:36.001Z</time></trkpt><trkpt lat="44.75429705145162" lon="10.100676359535838"><ele>241.79999999999998</ele><time>2026-05-02T13:13:38.001Z</time></trkpt><trkpt lat="44.75437752444337" lon="10.100753759407647"><ele>239.59999999999997</ele><time>2026-05-02T13:13:40.001Z</time></trkpt><trkpt lat="44.75447245497834" lon="10.100845910651428"><ele>237.4</ele><time>2026-05-02T13:13:42.001Z</time></trkpt><trkpt lat="44.7545663429097" lon="10.100910253777728"><ele>235.2</ele><time>2026-05-02T13:13:44.001Z</time></trkpt><trkpt lat="44.75466000497634" lon="10.100953005464977"><ele>233.0</ele><time>2026-05-02T13:13:46.001Z</time></trkpt><trkpt lat="44.754759227058834" lon="10.100948763356525"><ele>233.0</ele><time>2026-05-02T13:13:48.002Z</time></trkpt><trkpt lat="44.75486804073238" lon="10.100939147846299"><ele>233.0</ele><time>2026-05-02T13:13:50.002Z</time></trkpt><trkpt lat="44.75496808327297" lon="10.100877735754885"><ele>233.0</ele><time>2026-05-02T13:13:52.002Z</time></trkpt><trkpt lat="44.75505692565931" lon="10.100823823157077"><ele>233.0</ele><time>2026-05-02T13:13:54.002Z</time></trkpt><trkpt lat="44.75512721201337" lon="10.10072616184197"><ele>233.0</ele><time>2026-05-02T13:13:56.002Z</time></trkpt><trkpt lat="44.75515726179719" lon="10.100595852530452"><ele>233.4</ele><time>2026-05-02T13:13:58.002Z</time></trkpt><trkpt lat="44.755155532161815" lon="10.100467805840823"><ele>233.8</ele><time>2026-05-02T13:14:00.002Z</time></trkpt><trkpt lat="44.755161479243725" lon="10.100343702360039"><ele>234.2</ele><time>2026-05-02T13:14:02.002Z</time></trkpt><trkpt lat="44.75513140121264" lon="10.100207256064255"><ele>234.6</ele><time>2026-05-02T13:14:04.002Z</time></trkpt><trkpt lat="44.75514263921226" lon="10.100057616679582"><ele>235.0</ele><time>2026-05-02T13:14:06.002Z</time></trkpt><trkpt lat="44.75514684981128" lon="10.099952268784193"><ele>235.49999999999997</ele><time>2026-05-02T13:14:07.002Z</time></trkpt><trkpt lat="44.75518712494356" lon="10.099873231663109"><ele>236.0</ele><time>2026-05-02T13:14:08.002Z</time></trkpt><trkpt lat="44.7552161298955" lon="10.099753320893056"><ele>236.5</ele><time>2026-05-02T13:14:10.002Z</time></trkpt><trkpt lat="44.75528556081101" lon="10.099726630940186"><ele>237.0</ele><time>2026-05-02T13:16:50.003Z</time></trkpt><trkpt lat="44.75536594922987" lon="10.099668463630023"><ele>237.49999999999997</ele><time>2026-05-02T13:16:52.003Z</time></trkpt><trkpt lat="44.75546989787912" lon="10.099657712350993"><ele>238.0</ele><time>2026-05-02T13:16:54.003Z</time></trkpt><trkpt lat="44.75557221882971" lon="10.099669651266877"><ele>232.60000000000002</ele><time>2026-05-02T13:16:56Z</time></trkpt><trkpt lat="44.755671807936615" lon="10.099676482089368"><ele>227.20000000000002</ele><time>2026-05-02T13:16:58Z</time></trkpt><trkpt lat="44.75578005325458" lon="10.099679140056175"><ele>221.8</ele><time>2026-05-02T13:17:00Z</time></trkpt><trkpt lat="44.75589879210097" lon="10.099690705075838"><ele>216.4</ele><time>2026-05-02T13:17:02Z</time></trkpt><trkpt lat="44.75601327090291" lon="10.099713360326932"><ele>211.0</ele><time>2026-05-02T13:17:04Z</time></trkpt><trkpt lat="44.75612194112119" lon="10.099736613598747"><ele>207.0</ele><time>2026-05-02T13:17:06Z</time></trkpt><trkpt lat="44.75623387394777" lon="10.099750959020062"><ele>203.0</ele><time>2026-05-02T13:17:08Z</time></trkpt><trkpt lat="44.75635147846845" lon="10.099763151035848"><ele>199.0</ele><time>2026-05-02T13:17:10Z</time></trkpt><trkpt lat="44.7564585529143" lon="10.099791361197985"><ele>195.0</ele><time>2026-05-02T13:17:12Z</time></trkpt><trkpt lat="44.756550944446666" lon="10.099808311564292"><ele>191.0</ele><time>2026-05-02T13:17:14Z</time></trkpt><trkpt lat="44.75662341457075" lon="10.099831666919405"><ele>191.0</ele><time>2026-05-02T13:17:16Z</time></trkpt><trkpt lat="44.75669854872361" lon="10.099850572293626"><ele>191.0</ele><time>2026-05-02T13:17:18Z</time></trkpt><trkpt lat="44.756776450101505" lon="10.09986686248387"><ele>191.0</ele><time>2026-05-02T13:17:20.001Z</time></trkpt><trkpt lat="44.75685113024382" lon="10.099876591006783"><ele>191.0</ele><time>2026-05-02T13:17:22.001Z</time></trkpt><trkpt lat="44.75692997949422" lon="10.099888536883626"><ele>191.0</ele><time>2026-05-02T13:17:24.001Z</time></trkpt><trkpt lat="44.75700220375016" lon="10.09988047989759"><ele>191.0</ele><time>2026-05-02T13:17:26.001Z</time></trkpt><trkpt lat="44.757084853195344" lon="10.099865127177047"><ele>188.5</ele><time>2026-05-02T13:17:28.001Z</time></trkpt><trkpt lat="44.75717177066349" lon="10.099849900595377"><ele>186.0</ele><time>2026-05-02T13:17:30.001Z</time></trkpt><trkpt lat="44.757252097141894" lon="10.099822214900305"><ele>183.5</ele><time>2026-05-02T13:17:32.001Z</time></trkpt><trkpt lat="44.757317512829886" lon="10.099809068793615"><ele>181.0</ele><time>2026-05-02T13:17:34.001Z</time></trkpt><trkpt lat="44.75740774615749" lon="10.099785960261702"><ele>178.5</ele><time>2026-05-02T13:17:37.001Z</time></trkpt><trkpt lat="44.757474626477325" lon="10.099761853786868"><ele>176.0</ele><time>2026-05-02T13:17:39.001Z</time></trkpt><trkpt lat="44.75753294800239" lon="10.099706823217291"><ele>176.0</ele><time>2026-05-02T13:17:41.001Z</time></trkpt><trkpt lat="44.75758793880444" lon="10.099636937305492"><ele>176.0</ele><time>2026-05-02T13:17:43.001Z</time></trkpt><trkpt lat="44.757632150630194" lon="10.09952062752145"><ele>176.0</ele><time>2026-05-02T13:17:45.001Z</time></trkpt><trkpt lat="44.757656891332665" lon="10.099389940143956"><ele>176.0</ele><time>2026-05-02T13:17:47.001Z</time></trkpt><trkpt lat="44.757608979291554" lon="10.099287506292233"><ele>176.0</ele><time>2026-05-02T13:17:49.001Z</time></trkpt><trkpt lat="44.75755133948888" lon="10.099208902455558"><ele>176.0</ele><time>2026-05-02T13:17:51.001Z</time></trkpt><trkpt lat="44.75749559463977" lon="10.099112987006626"><ele>176.0</ele><time>2026-05-02T13:17:53.001Z</time></trkpt><trkpt lat="44.75745543559064" lon="10.099002010769198"><ele>176.0</ele><time>2026-05-02T13:17:55.001Z</time></trkpt><trkpt lat="44.757424246132814" lon="10.098845878698691"><ele>176.0</ele><time>2026-05-02T13:17:57.001Z</time></trkpt><trkpt lat="44.75740462199647" lon="10.098681980274613"><ele>176.0</ele><time>2026-05-02T13:17:59.001Z</time></trkpt><trkpt lat="44.75740730694018" lon="10.098590272219758"><ele>176.0</ele><time>2026-05-02T13:18:00.001Z</time></trkpt><trkpt lat="44.75743025919417" lon="10.09847602320863"><ele>176.0</ele><time>2026-05-02T13:18:02.002Z</time></trkpt><trkpt lat="44.757454083769" lon="10.098365782384759"><ele>176.0</ele><time>2026-05-02T13:18:49.003Z</time></trkpt><trkpt lat="44.757466170668486" lon="10.098188730510277"><ele>176.0</ele><time>2026-05-02T13:18:51.003Z</time></trkpt><trkpt lat="44.75746056814489" lon="10.098078386867677"><ele>176.0</ele><time>2026-05-02T13:18:52.003Z</time></trkpt><trkpt lat="44.757435287950045" lon="10.097969604880639"><ele>176.0</ele><time>2026-05-02T13:18:53.003Z</time></trkpt><trkpt lat="44.757406852519146" lon="10.09784084665427"><ele>175.8</ele><time>2026-05-02T13:18:54.003Z</time></trkpt><trkpt lat="44.75737374582503" lon="10.097706082454046"><ele>175.60000000000002</ele><time>2026-05-02T13:18:55.003Z</time></trkpt><trkpt lat="44.75734444584438" lon="10.097577970177628"><ele>175.4</ele><time>2026-05-02T13:18:56.003Z</time></trkpt><trkpt lat="44.75732592540744" lon="10.097458058403287"><ele>175.2</ele><time>2026-05-02T13:18:57.003Z</time></trkpt><trkpt lat="44.75731420610484" lon="10.097364713982836"><ele>175.0</ele><time>2026-05-02T13:18:58.003Z</time></trkpt><trkpt lat="44.75731773580764" lon="10.097190876555883"><ele>175.0</ele><time>2026-05-02T13:19:00.003Z</time></trkpt><trkpt lat="44.75733935917209" lon="10.097076355761349"><ele>175.0</ele><time>2026-05-02T13:19:01.003Z</time></trkpt><trkpt lat="44.75737447214897" lon="10.096963482058001"><ele>175.0</ele><time>2026-05-02T13:19:02Z</time></trkpt><trkpt lat="44.75742352582166" lon="10.096856976687217"><ele>175.0</ele><time>2026-05-02T13:19:03Z</time></trkpt><trkpt lat="44.757482551790986" lon="10.09676434997219"><ele>175.0</ele><time>2026-05-02T13:19:04Z</time></trkpt><trkpt lat="44.75753462359331" lon="10.096691781167577"><ele>175.0</ele><time>2026-05-02T13:19:05Z</time></trkpt><trkpt lat="44.75758827869074" lon="10.096625274794604"><ele>175.33333333333334</ele><time>2026-05-02T13:19:06Z</time></trkpt><trkpt lat="44.75762694761624" lon="10.096551360894052"><ele>175.66666666666669</ele><time>2026-05-02T13:19:07Z</time></trkpt><trkpt lat="44.75764405138893" lon="10.096381775068913"><ele>176.0</ele><time>2026-05-02T13:19:09Z</time></trkpt><trkpt lat="44.7576184844863" lon="10.0962856176726"><ele>176.33333333333334</ele><time>2026-05-02T13:19:10Z</time></trkpt><trkpt lat="44.75759149816069" lon="10.09619106898006"><ele>176.66666666666666</ele><time>2026-05-02T13:19:11Z</time></trkpt><trkpt lat="44.757562440161514" lon="10.096104128141537"><ele>177.0</ele><time>2026-05-02T13:19:12Z</time></trkpt><trkpt lat="44.75753645776353" lon="10.096011341209032"><ele>177.0</ele><time>2026-05-02T13:19:13Z</time></trkpt><trkpt lat="44.7575117439253" lon="10.095911505871515"><ele>177.0</ele><time>2026-05-02T13:19:14Z</time></trkpt><trkpt lat="44.75748819718583" lon="10.095816725553094"><ele>177.0</ele><time>2026-05-02T13:19:15Z</time></trkpt><trkpt lat="44.75745904456772" lon="10.095716125294183"><ele>177.0</ele><time>2026-05-02T13:19:16Z</time></trkpt><trkpt lat="44.75743146219864" lon="10.095617668892958"><ele>177.0</ele><time>2026-05-02T13:19:17Z</time></trkpt><trkpt lat="44.75740264727077" lon="10.095515326169886"><ele>177.0</ele><time>2026-05-02T13:19:18Z</time></trkpt><trkpt lat="44.75737451720739" lon="10.095412864239508"><ele>177.16666666666666</ele><time>2026-05-02T13:19:19Z</time></trkpt><trkpt lat="44.7573544366195" lon="10.095319131382293"><ele>177.33333333333334</ele><time>2026-05-02T13:19:20Z</time></trkpt><trkpt lat="44.75734548731061" lon="10.095228594733005"><ele>177.5</ele><time>2026-05-02T13:19:21Z</time></trkpt><trkpt lat="44.75733532163871" lon="10.09513768926905"><ele>177.66666666666669</ele><time>2026-05-02T13:19:22Z</time></trkpt><trkpt lat="44.75731438209372" lon="10.094961772953052"><ele>177.83333333333334</ele><time>2026-05-02T13:19:24Z</time></trkpt><trkpt lat="44.75730086003347" lon="10.094867007952253"><ele>178.0</ele><time>2026-05-02T13:19:25Z</time></trkpt><trkpt lat="44.75728724767049" lon="10.094769664924609"><ele>178.0</ele><time>2026-05-02T13:19:26Z</time></trkpt><trkpt lat="44.757275826984" lon="10.094676869035622"><ele>178.0</ele><time>2026-05-02T13:19:27Z</time></trkpt><trkpt lat="44.75727987194216" lon="10.094581977529629"><ele>178.0</ele><time>2026-05-02T13:19:28Z</time></trkpt><trkpt lat="44.75733873445868" lon="10.09444158564059"><ele>178.0</ele><time>2026-05-02T13:19:30Z</time></trkpt><trkpt lat="44.75739076777491" lon="10.094377453061568"><ele>178.0</ele><time>2026-05-02T13:19:31Z</time></trkpt><trkpt lat="44.757442816844204" lon="10.094320255950027"><ele>178.0</ele><time>2026-05-02T13:19:32Z</time></trkpt><trkpt lat="44.75751934901312" lon="10.094178709994575"><ele>178.2</ele><time>2026-05-02T13:19:34Z</time></trkpt><trkpt lat="44.75752268725178" lon="10.093999825829368"><ele>178.4</ele><time>2026-05-02T13:19:36.001Z</time></trkpt><trkpt lat="44.75752959282137" lon="10.093905589159663"><ele>178.6</ele><time>2026-05-02T13:19:37.001Z</time></trkpt><trkpt lat="44.757540726793586" lon="10.093726636627226"><ele>178.79999999999998</ele><time>2026-05-02T13:19:39.001Z</time></trkpt><trkpt lat="44.75754369043641" lon="10.093635900238686"><ele>179.0</ele><time>2026-05-02T13:19:40.001Z</time></trkpt><trkpt lat="44.75755517256597" lon="10.093456584148328"><ele>179.0</ele><time>2026-05-02T13:19:42.001Z</time></trkpt><trkpt lat="44.757571428638016" lon="10.09336913637351"><ele>179.0</ele><time>2026-05-02T13:19:43.001Z</time></trkpt><trkpt lat="44.757596561853035" lon="10.093203712879152"><ele>179.0</ele><time>2026-05-02T13:19:45.001Z</time></trkpt><trkpt lat="44.75761060811434" lon="10.09311399075117"><ele>179.0</ele><time>2026-05-02T13:19:46.001Z</time></trkpt><trkpt lat="44.75764422817005" lon="10.0929405151126"><ele>179.0</ele><time>2026-05-02T13:19:48.001Z</time></trkpt><trkpt lat="44.75767137099955" lon="10.092856442102264"><ele>179.0</ele><time>2026-05-02T13:19:49.001Z</time></trkpt><trkpt lat="44.757723693764085" lon="10.092703026241873"><ele>180.39999999999998</ele><time>2026-05-02T13:19:51.001Z</time></trkpt><trkpt lat="44.75777564579158" lon="10.092559076650605"><ele>181.8</ele><time>2026-05-02T13:19:53.001Z</time></trkpt><trkpt lat="44.75782479457585" lon="10.092404144281094"><ele>183.2</ele><time>2026-05-02T13:19:55.001Z</time></trkpt><trkpt lat="44.75786073304272" lon="10.092303757181092"><ele>184.60000000000002</ele><time>2026-05-02T13:19:58.001Z</time></trkpt><trkpt lat="44.75793635687897" lon="10.092282307980856"><ele>186.0</ele><time>2026-05-02T13:20:03.001Z</time></trkpt><trkpt lat="44.75803466981629" lon="10.092319499043956"><ele>186.0</ele><time>2026-05-02T13:20:05.001Z</time></trkpt><trkpt lat="44.75814188414698" lon="10.092358775638367"><ele>186.0</ele><time>2026-05-02T13:20:07.001Z</time></trkpt><trkpt lat="44.7582479914327" lon="10.092388584208058"><ele>186.0</ele><time>2026-05-02T13:20:09.001Z</time></trkpt><trkpt lat="44.758349296794776" lon="10.09241499257627"><ele>186.0</ele><time>2026-05-02T13:20:11.001Z</time></trkpt><trkpt lat="44.758436913624905" lon="10.092415146516956"><ele>186.0</ele><time>2026-05-02T13:20:13.001Z</time></trkpt><trkpt lat="44.75850683375809" lon="10.092398233244905"><ele>186.2857142857143</ele><time>2026-05-02T13:20:15.002Z</time></trkpt><trkpt lat="44.758528694476645" lon="10.092498863601746"><ele>186.57142857142858</ele><time>2026-05-02T13:20:18.002Z</time></trkpt><trkpt lat="44.75852072561009" lon="10.092586845968754"><ele>186.85714285714286</ele><time>2026-05-02T13:20:19.002Z</time></trkpt><trkpt lat="44.75850432949103" lon="10.092676710910833"><ele>187.14285714285717</ele><time>2026-05-02T13:20:20.002Z</time></trkpt><trkpt lat="44.75849625043326" lon="10.092779380808006"><ele>187.42857142857142</ele><time>2026-05-02T13:20:21.002Z</time></trkpt><trkpt lat="44.7584972551571" lon="10.092873463002627"><ele>187.71428571428572</ele><time>2026-05-02T13:20:22.002Z</time></trkpt><trkpt lat="44.758507485603985" lon="10.09296922845923"><ele>188.0</ele><time>2026-05-02T13:20:23.002Z</time></trkpt><trkpt lat="44.75850809741656" lon="10.093071159034405"><ele>188.0</ele><time>2026-05-02T13:20:24.002Z</time></trkpt><trkpt lat="44.758505671033895" lon="10.093174994058522"><ele>188.0</ele><time>2026-05-02T13:20:25.002Z</time></trkpt><trkpt lat="44.75850410674285" lon="10.093276688373207"><ele>188.0</ele><time>2026-05-02T13:20:26.002Z</time></trkpt><trkpt lat="44.75850196695123" lon="10.093387535397031"><ele>188.0</ele><time>2026-05-02T13:20:27.002Z</time></trkpt><trkpt lat="44.75850823708349" lon="10.093499567704818"><ele>188.0</ele><time>2026-05-02T13:20:28.002Z</time></trkpt><trkpt lat="44.75850993786538" lon="10.093616045980129"><ele>188.0</ele><time>2026-05-02T13:20:29.002Z</time></trkpt><trkpt lat="44.75851281813357" lon="10.093741609761901"><ele>188.0</ele><time>2026-05-02T13:20:30.002Z</time></trkpt><trkpt lat="44.75851448008402" lon="10.09386187861546"><ele>188.0</ele><time>2026-05-02T13:20:31.002Z</time></trkpt><trkpt lat="44.758520580689336" lon="10.093996183471566"><ele>188.0</ele><time>2026-05-02T13:20:32.002Z</time></trkpt><trkpt lat="44.75852210731994" lon="10.094134832891445"><ele>188.0</ele><time>2026-05-02T13:20:33.002Z</time></trkpt><trkpt lat="44.75852345488968" lon="10.094271534445056"><ele>188.0</ele><time>2026-05-02T13:20:34.002Z</time></trkpt><trkpt lat="44.75852480229834" lon="10.094411960043317"><ele>192.8</ele><time>2026-05-02T13:20:35.002Z</time></trkpt><trkpt lat="44.75853472457227" lon="10.094551687311007"><ele>197.60000000000002</ele><time>2026-05-02T13:20:36.002Z</time></trkpt><trkpt lat="44.75855258340436" lon="10.094692613340081"><ele>202.39999999999998</ele><time>2026-05-02T13:20:37.002Z</time></trkpt><trkpt lat="44.75857542974284" lon="10.094831014039562"><ele>207.2</ele><time>2026-05-02T13:20:38.002Z</time></trkpt><trkpt lat="44.75861119873867" lon="10.094965378490373"><ele>212.0</ele><time>2026-05-02T13:20:39.002Z</time></trkpt><trkpt lat="44.75865109164821" lon="10.095104522551251"><ele>212.0</ele><time>2026-05-02T13:20:40.002Z</time></trkpt><trkpt lat="44.75870769641837" lon="10.095233821868757"><ele>212.0</ele><time>2026-05-02T13:20:41.002Z</time></trkpt><trkpt lat="44.758772939902286" lon="10.09536397848635"><ele>212.0</ele><time>2026-05-02T13:20:42.002Z</time></trkpt><trkpt lat="44.75883529402822" lon="10.09547118461224"><ele>212.0</ele><time>2026-05-02T13:20:43.002Z</time></trkpt><trkpt lat="44.75892439151275" lon="10.095606069690618"><ele>212.0</ele><time>2026-05-02T13:20:44.002Z</time></trkpt><trkpt lat="44.75896042331541" lon="10.095718310835613"><ele>212.0</ele><time>2026-05-02T13:20:45.002Z</time></trkpt><trkpt lat="44.75902873372781" lon="10.095831009161273"><ele>212.0</ele><time>2026-05-02T13:20:46.002Z</time></trkpt><trkpt lat="44.759070543456964" lon="10.095954716597102"><ele>212.0</ele><time>2026-05-02T13:20:47.002Z</time></trkpt><trkpt lat="44.759096805616004" lon="10.09608200667431"><ele>212.0</ele><time>2026-05-02T13:20:48.002Z</time></trkpt><trkpt lat="44.75914697181732" lon="10.09619060418561"><ele>211.39999999999998</ele><time>2026-05-02T13:20:49.002Z</time></trkpt><trkpt lat="44.75916507989973" lon="10.096310991055796"><ele>210.79999999999998</ele><time>2026-05-02T13:20:50.002Z</time></trkpt><trkpt lat="44.75919396784434" lon="10.09644105599346"><ele>210.2</ele><time>2026-05-02T13:20:51.003Z</time></trkpt><trkpt lat="44.75923472961033" lon="10.096557269553106"><ele>209.6</ele><time>2026-05-02T13:20:52.003Z</time></trkpt><trkpt lat="44.7593050028007" lon="10.096692276045545"><ele>209.0</ele><time>2026-05-02T13:20:53.003Z</time></trkpt><trkpt lat="44.7593861403995" lon="10.09684262058115"><ele>213.0</ele><time>2026-05-02T13:20:54.003Z</time></trkpt><trkpt lat="44.75946107806776" lon="10.096956957620943"><ele>217.0</ele><time>2026-05-02T13:20:55.003Z</time></trkpt><trkpt lat="44.7595220052906" lon="10.09707751390656"><ele>220.99999999999997</ele><time>2026-05-02T13:20:56.003Z</time></trkpt><trkpt lat="44.75955415747034" lon="10.097185964823284"><ele>225.0</ele><time>2026-05-02T13:20:57.003Z</time></trkpt><trkpt lat="44.75955326075859" lon="10.097320584783393"><ele>229.0</ele><time>2026-05-02T13:20:58.003Z</time></trkpt><trkpt lat="44.75959116227469" lon="10.09748252026962"><ele>229.0</ele><time>2026-05-02T13:20:59.003Z</time></trkpt><trkpt lat="44.75962495903679" lon="10.097629508980669"><ele>228.99999999999997</ele><time>2026-05-02T13:21:00.003Z</time></trkpt><trkpt lat="44.75966648517549" lon="10.097762206841447"><ele>228.99999999999997</ele><time>2026-05-02T13:21:01.003Z</time></trkpt><trkpt lat="44.759704500764364" lon="10.09788703590648"><ele>229.0</ele><time>2026-05-02T13:21:02.003Z</time></trkpt><trkpt lat="44.75973988499645" lon="10.098036754726953"><ele>229.0</ele><time>2026-05-02T13:21:03.003Z</time></trkpt><trkpt lat="44.759786774442475" lon="10.098158831173171"><ele>229.0</ele><time>2026-05-02T13:21:04.003Z</time></trkpt><trkpt lat="44.759835596688845" lon="10.098245544552269"><ele>228.99999999999997</ele><time>2026-05-02T13:21:05.003Z</time></trkpt><trkpt lat="44.759887295545" lon="10.098345222369785"><ele>228.99999999999997</ele><time>2026-05-02T13:21:06.003Z</time></trkpt><trkpt lat="44.759992629930835" lon="10.098447493708502"><ele>229.0</ele><time>2026-05-02T13:21:08Z</time></trkpt><trkpt lat="44.760072023018324" lon="10.098461487740858"><ele>229.0</ele><time>2026-05-02T13:21:09Z</time></trkpt><trkpt lat="44.76015810021429" lon="10.098469849011218"><ele>230.2</ele><time>2026-05-02T13:21:10Z</time></trkpt><trkpt lat="44.76024470263613" lon="10.098448112593678"><ele>231.39999999999998</ele><time>2026-05-02T13:21:11Z</time></trkpt><trkpt lat="44.760339602961324" lon="10.098419369883459"><ele>232.6</ele><time>2026-05-02T13:21:12Z</time></trkpt><trkpt lat="44.76043236600678" lon="10.098394138168699"><ele>233.8</ele><time>2026-05-02T13:21:13Z</time></trkpt><trkpt lat="44.76053368893863" lon="10.098352653028336"><ele>235.0</ele><time>2026-05-02T13:21:14Z</time></trkpt><trkpt lat="44.76060945437514" lon="10.098325571838984"><ele>234.99999999999997</ele><time>2026-05-02T13:21:15Z</time></trkpt><trkpt lat="44.76073259467902" lon="10.098284970232198"><ele>235.0</ele><time>2026-05-02T13:21:17Z</time></trkpt><trkpt lat="44.7607999729142" lon="10.098244822992834"><ele>235.0</ele><time>2026-05-02T13:21:19Z</time></trkpt><trkpt lat="44.760766180681806" lon="10.09812192866687"><ele>235.0</ele><time>2026-05-02T13:22:08.001Z</time></trkpt><trkpt lat="44.76072450784432" lon="10.09803868843557"><ele>234.99999999999997</ele><time>2026-05-02T13:22:09.001Z</time></trkpt><trkpt lat="44.760697563371465" lon="10.097937915934217"><ele>235.0</ele><time>2026-05-02T13:22:10.001Z</time></trkpt><trkpt lat="44.760682063694226" lon="10.097824134565565"><ele>235.49999999999997</ele><time>2026-05-02T13:22:11.001Z</time></trkpt><trkpt lat="44.76066776294401" lon="10.097699921885354"><ele>236.0</ele><time>2026-05-02T13:22:12.001Z</time></trkpt><trkpt lat="44.760658572954966" lon="10.097600147717497"><ele>236.5</ele><time>2026-05-02T13:22:13.001Z</time></trkpt><trkpt lat="44.76064241439947" lon="10.09749581688905"><ele>237.0</ele><time>2026-05-02T13:22:14.001Z</time></trkpt><trkpt lat="44.76062371672481" lon="10.097387689912749"><ele>237.49999999999997</ele><time>2026-05-02T13:22:15.001Z</time></trkpt><trkpt lat="44.76060636595004" lon="10.097270170773724"><ele>238.0</ele><time>2026-05-02T13:22:16.001Z</time></trkpt><trkpt lat="44.760588300219965" lon="10.097150199547606"><ele>238.4</ele><time>2026-05-02T13:22:17.002Z</time></trkpt><trkpt lat="44.76057106150805" lon="10.097017430172551"><ele>238.8</ele><time>2026-05-02T13:22:18.002Z</time></trkpt><trkpt lat="44.76054651637341" lon="10.096866657139737"><ele>239.2</ele><time>2026-05-02T13:22:19.002Z</time></trkpt><trkpt lat="44.7605144198678" lon="10.096715866125614"><ele>239.6</ele><time>2026-05-02T13:22:20.002Z</time></trkpt><trkpt lat="44.76049714374842" lon="10.096551765352967"><ele>240.0</ele><time>2026-05-02T13:22:21.002Z</time></trkpt><trkpt lat="44.76047814943026" lon="10.096395949196342"><ele>240.4</ele><time>2026-05-02T13:22:22.002Z</time></trkpt><trkpt lat="44.76045638026621" lon="10.096247222624305"><ele>240.8</ele><time>2026-05-02T13:22:23.002Z</time></trkpt><trkpt lat="44.76043592991959" lon="10.096096396354957"><ele>241.2</ele><time>2026-05-02T13:22:24.002Z</time></trkpt><trkpt lat="44.76041728137567" lon="10.095933987575561"><ele>241.6</ele><time>2026-05-02T13:22:25.002Z</time></trkpt><trkpt lat="44.76039451253415" lon="10.095775786888424"><ele>242.0</ele><time>2026-05-02T13:22:26.002Z</time></trkpt><trkpt lat="44.760379228042495" lon="10.095625619578945"><ele>242.5</ele><time>2026-05-02T13:22:27.002Z</time></trkpt><trkpt lat="44.76035203244519" lon="10.095451898173351"><ele>243.0</ele><time>2026-05-02T13:22:28.002Z</time></trkpt><trkpt lat="44.76033048084145" lon="10.09526100380185"><ele>243.5</ele><time>2026-05-02T13:22:29.002Z</time></trkpt><trkpt lat="44.76031440871308" lon="10.095086840885592"><ele>244.0</ele><time>2026-05-02T13:22:30.002Z</time></trkpt><trkpt lat="44.76030057297015" lon="10.094926419895996"><ele>243.2</ele><time>2026-05-02T13:22:31.002Z</time></trkpt><trkpt lat="44.76029838838055" lon="10.094767046127378"><ele>242.39999999999998</ele><time>2026-05-02T13:22:32.002Z</time></trkpt><trkpt lat="44.76030413766497" lon="10.094611993924689"><ele>241.6</ele><time>2026-05-02T13:22:33.002Z</time></trkpt><trkpt lat="44.76031370385507" lon="10.09445599503107"><ele>240.8</ele><time>2026-05-02T13:22:34.002Z</time></trkpt><trkpt lat="44.76032344038085" lon="10.094299916071517"><ele>240.0</ele><time>2026-05-02T13:22:35.002Z</time></trkpt><trkpt lat="44.76032989464862" lon="10.094141601462702"><ele>239.75</ele><time>2026-05-02T13:22:36.002Z</time></trkpt><trkpt lat="44.76034307010647" lon="10.093959966421563"><ele>239.5</ele><time>2026-05-02T13:22:37.002Z</time></trkpt><trkpt lat="44.76036607431981" lon="10.093760729387888"><ele>239.25</ele><time>2026-05-02T13:22:38.002Z</time></trkpt><trkpt lat="44.76039604094341" lon="10.093547637746523"><ele>239.0</ele><time>2026-05-02T13:22:39.002Z</time></trkpt><trkpt lat="44.76042681307449" lon="10.093313795002555"><ele>240.0</ele><time>2026-05-02T13:22:40.002Z</time></trkpt><trkpt lat="44.76046501308979" lon="10.093060273198569"><ele>241.0</ele><time>2026-05-02T13:22:41.002Z</time></trkpt><trkpt lat="44.76050001763577" lon="10.09282370547868"><ele>242.0</ele><time>2026-05-02T13:22:42.002Z</time></trkpt><trkpt lat="44.76052943282635" lon="10.092605224840181"><ele>243.0</ele><time>2026-05-02T13:22:43.002Z</time></trkpt><trkpt lat="44.760559467641045" lon="10.092400792176417"><ele>244.0</ele><time>2026-05-02T13:22:44.002Z</time></trkpt><trkpt lat="44.76059177003917" lon="10.09220296165656"><ele>245.0</ele><time>2026-05-02T13:22:45.002Z</time></trkpt><trkpt lat="44.760615618787185" lon="10.092034886365813"><ele>246.0</ele><time>2026-05-02T13:22:46.002Z</time></trkpt><trkpt lat="44.76064442862743" lon="10.091885922932093"><ele>246.0</ele><time>2026-05-02T13:22:47.002Z</time></trkpt><trkpt lat="44.760666159144854" lon="10.09174345258713"><ele>246.00000000000003</ele><time>2026-05-02T13:22:48.002Z</time></trkpt><trkpt lat="44.76068731387015" lon="10.091607268239553"><ele>246.00000000000003</ele><time>2026-05-02T13:22:49.002Z</time></trkpt><trkpt lat="44.760706552044766" lon="10.091469978580227"><ele>246.0</ele><time>2026-05-02T13:22:50.002Z</time></trkpt><trkpt lat="44.76073029042912" lon="10.091332243492438"><ele>246.0</ele><time>2026-05-02T13:22:51.002Z</time></trkpt><trkpt lat="44.760751896367864" lon="10.091209207941272"><ele>246.0</ele><time>2026-05-02T13:22:52.002Z</time></trkpt><trkpt lat="44.76076792758491" lon="10.091089967399007"><ele>246.0</ele><time>2026-05-02T13:22:53.003Z</time></trkpt><trkpt lat="44.760779362222024" lon="10.090965082061166"><ele>246.0</ele><time>2026-05-02T13:22:54.003Z</time></trkpt><trkpt lat="44.76079488771634" lon="10.090842067744466"><ele>246.0</ele><time>2026-05-02T13:22:55.003Z</time></trkpt><trkpt lat="44.76080769878575" lon="10.09072067577597"><ele>246.0</ele><time>2026-05-02T13:22:56.003Z</time></trkpt><trkpt lat="44.76082283323627" lon="10.090605648242878"><ele>246.0</ele><time>2026-05-02T13:22:57.003Z</time></trkpt><trkpt lat="44.76084064613311" lon="10.090492603565279"><ele>246.60000000000002</ele><time>2026-05-02T13:22:58.003Z</time></trkpt><trkpt lat="44.76086125817816" lon="10.09038480645747"><ele>247.20000000000002</ele><time>2026-05-02T13:22:59.003Z</time></trkpt><trkpt lat="44.76088680863609" lon="10.09028042889182"><ele>247.79999999999998</ele><time>2026-05-02T13:23:00.003Z</time></trkpt><trkpt lat="44.76090115375318" lon="10.090162377197595"><ele>248.39999999999998</ele><time>2026-05-02T13:23:01.003Z</time></trkpt><trkpt lat="44.7609156211656" lon="10.090011228999705"><ele>249.0</ele><time>2026-05-02T13:23:02.003Z</time></trkpt><trkpt lat="44.76093107131776" lon="10.089833872927162"><ele>249.2</ele><time>2026-05-02T13:23:04.003Z</time></trkpt><trkpt lat="44.76094521318462" lon="10.089734277334456"><ele>249.39999999999998</ele><time>2026-05-02T13:23:05.003Z</time></trkpt><trkpt lat="44.76096329728649" lon="10.089644194799316"><ele>249.6</ele><time>2026-05-02T13:23:06.003Z</time></trkpt><trkpt lat="44.76103492459966" lon="10.089514311999583"><ele>249.8</ele><time>2026-05-02T13:23:08.003Z</time></trkpt><trkpt lat="44.76110848404103" lon="10.089387683005913"><ele>250.0</ele><time>2026-05-02T13:23:10.003Z</time></trkpt><trkpt lat="44.76117971440154" lon="10.089255010267768"><ele>250.0</ele><time>2026-05-02T13:23:12.003Z</time></trkpt><trkpt lat="44.76124884816148" lon="10.089135524685846"><ele>250.0</ele><time>2026-05-02T13:23:13.999Z</time></trkpt><trkpt lat="44.7612838869014" lon="10.089045780006062"><ele>250.0</ele><time>2026-05-02T13:23:14.999Z</time></trkpt><trkpt lat="44.76132360859679" lon="10.088914880111217"><ele>250.0</ele><time>2026-05-02T13:23:16.999Z</time></trkpt><trkpt lat="44.76134364850817" lon="10.088771825264688"><ele>250.0</ele><time>2026-05-02T13:23:18.999Z</time></trkpt><trkpt lat="44.761315747512704" lon="10.088629245980638"><ele>252.2</ele><time>2026-05-02T13:23:20.999Z</time></trkpt><trkpt lat="44.76128034806221" lon="10.08847530825305"><ele>254.4</ele><time>2026-05-02T13:23:22.999Z</time></trkpt><trkpt lat="44.761267163790386" lon="10.088314444489118"><ele>256.6</ele><time>2026-05-02T13:23:24.999Z</time></trkpt><trkpt lat="44.76126951901004" lon="10.088138857088836"><ele>258.8</ele><time>2026-05-02T13:23:26.999Z</time></trkpt><trkpt lat="44.76127123242863" lon="10.088049317666918"><ele>261.0</ele><time>2026-05-02T13:23:27.999Z</time></trkpt><trkpt lat="44.76129770659493" lon="10.087902612273885"><ele>261.40000000000003</ele><time>2026-05-02T13:23:30Z</time></trkpt><trkpt lat="44.76131647211928" lon="10.08770710954429"><ele>261.8</ele><time>2026-05-02T13:23:32Z</time></trkpt><trkpt lat="44.76133334309602" lon="10.087594709707012"><ele>262.20000000000005</ele><time>2026-05-02T13:23:33Z</time></trkpt><trkpt lat="44.76134889545377" lon="10.087496104436582"><ele>262.6</ele><time>2026-05-02T13:23:34Z</time></trkpt><trkpt lat="44.76136945545793" lon="10.08735560096248"><ele>263.0</ele><time>2026-05-02T13:23:36Z</time></trkpt><trkpt lat="44.76137726947504" lon="10.087230676540024"><ele>263.0</ele><time>2026-05-02T13:23:39Z</time></trkpt><trkpt lat="44.76140829662146" lon="10.087138857054038"><ele>263.0</ele><time>2026-05-02T13:23:44Z</time></trkpt><trkpt lat="44.76134520808083" lon="10.087242144703808"><ele>263.0</ele><time>2026-05-02T13:23:48Z</time></trkpt><trkpt lat="44.7613502689564" lon="10.087345528294343"><ele>263.0</ele><time>2026-05-02T13:23:49Z</time></trkpt><trkpt lat="44.76133633186378" lon="10.087496895879474"><ele>263.0</ele><time>2026-05-02T13:23:51Z</time></trkpt><trkpt lat="44.761311646892985" lon="10.087648974740166"><ele>263.0</ele><time>2026-05-02T13:23:53Z</time></trkpt><trkpt lat="44.761295817966975" lon="10.087778375135024"><ele>263.0</ele><time>2026-05-02T13:23:55.001Z</time></trkpt><trkpt lat="44.7612749059842" lon="10.08794078434401"><ele>263.0</ele><time>2026-05-02T13:23:57.001Z</time></trkpt><trkpt lat="44.761266651543956" lon="10.088105692777939"><ele>263.0</ele><time>2026-05-02T13:23:59.001Z</time></trkpt><trkpt lat="44.76126354771844" lon="10.088271157270672"><ele>263.0</ele><time>2026-05-02T13:24:01.001Z</time></trkpt><trkpt lat="44.76126555819206" lon="10.088446133216786"><ele>262.6</ele><time>2026-05-02T13:24:03.001Z</time></trkpt><trkpt lat="44.76128484515292" lon="10.088560489842799"><ele>262.20000000000005</ele><time>2026-05-02T13:24:05.001Z</time></trkpt><trkpt lat="44.761326039478874" lon="10.08868889540563"><ele>261.8</ele><time>2026-05-02T13:24:07.001Z</time></trkpt><trkpt lat="44.761326792471834" lon="10.088820078152247"><ele>261.40000000000003</ele><time>2026-05-02T13:24:09.001Z</time></trkpt><trkpt lat="44.761320713850345" lon="10.088944430226396"><ele>261.0</ele><time>2026-05-02T13:24:11.001Z</time></trkpt><trkpt lat="44.7612650197488" lon="10.089086267131092"><ele>260.40000000000003</ele><time>2026-05-02T13:24:13.001Z</time></trkpt><trkpt lat="44.761236034843634" lon="10.089169300226127"><ele>259.8</ele><time>2026-05-02T13:24:14.001Z</time></trkpt><trkpt lat="44.76115305615602" lon="10.089276343385935"><ele>259.20000000000005</ele><time>2026-05-02T13:24:16.001Z</time></trkpt><trkpt lat="44.761080299539316" lon="10.08939239617214"><ele>258.6</ele><time>2026-05-02T13:24:18.001Z</time></trkpt><trkpt lat="44.76101739752946" lon="10.089511737681105"><ele>258.0</ele><time>2026-05-02T13:24:20.001Z</time></trkpt><trkpt lat="44.76095874025611" lon="10.08965453843012"><ele>258.0</ele><time>2026-05-02T13:24:22.001Z</time></trkpt><trkpt lat="44.76092177784184" lon="10.089784787970016"><ele>258.0</ele><time>2026-05-02T13:24:24.001Z</time></trkpt><trkpt lat="44.76090625305089" lon="10.089913770433673"><ele>258.0</ele><time>2026-05-02T13:24:26.001Z</time></trkpt><trkpt lat="44.76089684029505" lon="10.090030180931178"><ele>258.0</ele><time>2026-05-02T13:24:28.002Z</time></trkpt><trkpt lat="44.76088798567164" lon="10.090155827296606"><ele>258.0</ele><time>2026-05-02T13:24:30.002Z</time></trkpt><trkpt lat="44.76086857016061" lon="10.090293618430607"><ele>256.5</ele><time>2026-05-02T13:24:32.002Z</time></trkpt><trkpt lat="44.76085089877648" lon="10.090429888863449"><ele>255.0</ele><time>2026-05-02T13:24:34.002Z</time></trkpt><trkpt lat="44.7608334639515" lon="10.090530440020618"><ele>253.5</ele><time>2026-05-02T13:24:36.002Z</time></trkpt><trkpt lat="44.76087616430954" lon="10.090615388070562"><ele>252.0</ele><time>2026-05-02T13:24:39.002Z</time></trkpt><trkpt lat="44.760947739076485" lon="10.090578076527004"><ele>250.5</ele><time>2026-05-02T13:24:41.002Z</time></trkpt><trkpt lat="44.76096947604279" lon="10.090429018437128"><ele>249.0</ele><time>2026-05-02T13:24:43.002Z</time></trkpt><trkpt lat="44.76100658157422" lon="10.090321803090964"><ele>247.2</ele><time>2026-05-02T13:24:45.002Z</time></trkpt><trkpt lat="44.76109862101236" lon="10.090249920793521"><ele>245.39999999999998</ele><time>2026-05-02T13:24:47.002Z</time></trkpt><trkpt lat="44.76122386788136" lon="10.090249308311948"><ele>243.6</ele><time>2026-05-02T13:24:49.002Z</time></trkpt><trkpt lat="44.7613009306549" lon="10.090286202577063"><ele>241.8</ele><time>2026-05-02T13:24:50.002Z</time></trkpt><trkpt lat="44.76138052555895" lon="10.090319629021849"><ele>240.0</ele><time>2026-05-02T13:24:51.002Z</time></trkpt><trkpt lat="44.76144216515914" lon="10.09035054169349"><ele>240.0</ele><time>2026-05-02T13:24:52.002Z</time></trkpt><trkpt lat="44.7615531924972" lon="10.090399084335866"><ele>240.0</ele><time>2026-05-02T13:24:54.002Z</time></trkpt><trkpt lat="44.761662644622724" lon="10.090454280750443"><ele>240.0</ele><time>2026-05-02T13:24:56.002Z</time></trkpt><trkpt lat="44.7617772865125" lon="10.090550053418797"><ele>240.0</ele><time>2026-05-02T13:24:58.002Z</time></trkpt><trkpt lat="44.7618373211539" lon="10.090602166262995"><ele>240.0</ele><time>2026-05-02T13:24:59.002Z</time></trkpt><trkpt lat="44.7619005546669" lon="10.0906706769007"><ele>237.71428571428572</ele><time>2026-05-02T13:25:00.002Z</time></trkpt><trkpt lat="44.7619542871607" lon="10.090729975419624"><ele>235.42857142857142</ele><time>2026-05-02T13:25:01.003Z</time></trkpt><trkpt lat="44.762009581244136" lon="10.090793519084228"><ele>233.14285714285714</ele><time>2026-05-02T13:25:02.003Z</time></trkpt><trkpt lat="44.76207477103581" lon="10.09085542937324"><ele>230.85714285714286</ele><time>2026-05-02T13:25:03.003Z</time></trkpt><trkpt lat="44.76213101899218" lon="10.09091936149371"><ele>228.57142857142856</ele><time>2026-05-02T13:25:04.003Z</time></trkpt><trkpt lat="44.762189069017204" lon="10.090976688677586"><ele>226.28571428571428</ele><time>2026-05-02T13:25:05.003Z</time></trkpt><trkpt lat="44.76224865422767" lon="10.091007446115134"><ele>224.0</ele><time>2026-05-02T13:25:06.003Z</time></trkpt><trkpt lat="44.76231984540779" lon="10.091030392754483"><ele>223.79999999999998</ele><time>2026-05-02T13:25:07.003Z</time></trkpt><trkpt lat="44.76239509700065" lon="10.091055227395872"><ele>223.59999999999997</ele><time>2026-05-02T13:25:08.003Z</time></trkpt><trkpt lat="44.76247956896305" lon="10.091077394440962"><ele>223.4</ele><time>2026-05-02T13:25:09.003Z</time></trkpt><trkpt lat="44.76257405987728" lon="10.091107836717422"><ele>223.2</ele><time>2026-05-02T13:25:10.003Z</time></trkpt><trkpt lat="44.762672065075186" lon="10.09114405798364"><ele>223.0</ele><time>2026-05-02T13:25:11.003Z</time></trkpt><trkpt lat="44.762770580397714" lon="10.091179396957868"><ele>220.4</ele><time>2026-05-02T13:25:12.003Z</time></trkpt><trkpt lat="44.76287429766771" lon="10.091213055242823"><ele>217.8</ele><time>2026-05-02T13:25:13.003Z</time></trkpt><trkpt lat="44.762975918470794" lon="10.091245747508252"><ele>215.2</ele><time>2026-05-02T13:25:14.003Z</time></trkpt><trkpt lat="44.76307037157145" lon="10.09126761233653"><ele>212.6</ele><time>2026-05-02T13:25:15.003Z</time></trkpt><trkpt lat="44.76314778102112" lon="10.091290163900009"><ele>210.0</ele><time>2026-05-02T13:25:16.003Z</time></trkpt><trkpt lat="44.76324031765261" lon="10.09131602544864"><ele>210.0</ele><time>2026-05-02T13:25:18.003Z</time></trkpt><trkpt lat="44.763335824593334" lon="10.091364535350346"><ele>210.0</ele><time>2026-05-02T13:25:19.999Z</time></trkpt><trkpt lat="44.76344551884109" lon="10.091449284624607"><ele>210.0</ele><time>2026-05-02T13:25:21.999Z</time></trkpt><trkpt lat="44.763493523987044" lon="10.091519158022509"><ele>210.0</ele><time>2026-05-02T13:25:22.999Z</time></trkpt><trkpt lat="44.76354304192987" lon="10.091595423232857"><ele>210.0</ele><time>2026-05-02T13:25:23.999Z</time></trkpt><trkpt lat="44.76359396239212" lon="10.091668037506595"><ele>210.0</ele><time>2026-05-02T13:25:24.999Z</time></trkpt><trkpt lat="44.76365621016577" lon="10.091750200102782"><ele>207.16666666666666</ele><time>2026-05-02T13:25:25.999Z</time></trkpt><trkpt lat="44.76371399232581" lon="10.091832095731172"><ele>204.33333333333331</ele><time>2026-05-02T13:25:26.999Z</time></trkpt><trkpt lat="44.76376899006476" lon="10.091922462547283"><ele>201.5</ele><time>2026-05-02T13:25:27.999Z</time></trkpt><trkpt lat="44.76382380374196" lon="10.092015609722573"><ele>198.66666666666666</ele><time>2026-05-02T13:25:28.999Z</time></trkpt><trkpt lat="44.76388396951624" lon="10.092112897535435"><ele>195.83333333333331</ele><time>2026-05-02T13:25:29.999Z</time></trkpt><trkpt lat="44.76393441783881" lon="10.09221230307193"><ele>193.0</ele><time>2026-05-02T13:25:30.999Z</time></trkpt><trkpt lat="44.763980835374255" lon="10.092297928058828"><ele>193.0</ele><time>2026-05-02T13:25:31.999Z</time></trkpt><trkpt lat="44.76407004166841" lon="10.092340066314694"><ele>193.0</ele><time>2026-05-02T13:25:34.999Z</time></trkpt><trkpt lat="44.764182399873036" lon="10.09231370973732"><ele>193.0</ele><time>2026-05-02T13:25:36.999Z</time></trkpt><trkpt lat="44.76425720409231" lon="10.09228662844847"><ele>193.0</ele><time>2026-05-02T13:25:37.999Z</time></trkpt><trkpt lat="44.76433333974746" lon="10.092252527670706"><ele>193.0</ele><time>2026-05-02T13:25:39Z</time></trkpt><trkpt lat="44.764414803031734" lon="10.092216124585955"><ele>190.49999999999997</ele><time>2026-05-02T13:25:40Z</time></trkpt><trkpt lat="44.764501473189746" lon="10.092175856374201"><ele>188.0</ele><time>2026-05-02T13:25:41Z</time></trkpt><trkpt lat="44.76457456641711" lon="10.092147893034515"><ele>185.5</ele><time>2026-05-02T13:25:42Z</time></trkpt><trkpt lat="44.76464144725457" lon="10.092118806423258"><ele>183.0</ele><time>2026-05-02T13:25:43Z</time></trkpt><trkpt lat="44.76471451689419" lon="10.09208795754699"><ele>180.5</ele><time>2026-05-02T13:25:44Z</time></trkpt><trkpt lat="44.76478699801684" lon="10.09205880670087"><ele>178.0</ele><time>2026-05-02T13:25:45Z</time></trkpt><trkpt lat="44.76486709262708" lon="10.092030212220118"><ele>178.0</ele><time>2026-05-02T13:25:46Z</time></trkpt><trkpt lat="44.76494370754287" lon="10.092006086465855"><ele>178.0</ele><time>2026-05-02T13:25:47Z</time></trkpt><trkpt lat="44.76500744229335" lon="10.09198625063004"><ele>178.0</ele><time>2026-05-02T13:25:48Z</time></trkpt><trkpt lat="44.76512748935226" lon="10.09194428628692"><ele>178.0</ele><time>2026-05-02T13:25:50Z</time></trkpt><trkpt lat="44.76519281068457" lon="10.09192216968517"><ele>178.0</ele><time>2026-05-02T13:25:51Z</time></trkpt><trkpt lat="44.76526602384602" lon="10.091904301115393"><ele>178.0</ele><time>2026-05-02T13:25:52Z</time></trkpt><trkpt lat="44.765343123740216" lon="10.091892530468673"><ele>175.66666666666669</ele><time>2026-05-02T13:25:53Z</time></trkpt><trkpt lat="44.76542691620036" lon="10.091884278823832"><ele>173.33333333333334</ele><time>2026-05-02T13:25:54Z</time></trkpt><trkpt lat="44.765497527445554" lon="10.091874109050188"><ele>171.0</ele><time>2026-05-02T13:25:55Z</time></trkpt><trkpt lat="44.76556791393421" lon="10.091862778685336"><ele>168.66666666666666</ele><time>2026-05-02T13:25:56Z</time></trkpt><trkpt lat="44.765649685358675" lon="10.091859725040582"><ele>166.33333333333331</ele><time>2026-05-02T13:25:57Z</time></trkpt><trkpt lat="44.76573881607736" lon="10.091859786104537"><ele>164.0</ele><time>2026-05-02T13:25:58Z</time></trkpt><trkpt lat="44.76583658614002" lon="10.09185440065672"><ele>164.0</ele><time>2026-05-02T13:25:59Z</time></trkpt><trkpt lat="44.7659233611538" lon="10.091840280676504"><ele>164.0</ele><time>2026-05-02T13:26:00.001Z</time></trkpt><trkpt lat="44.766027110495415" lon="10.091823994466928"><ele>164.0</ele><time>2026-05-02T13:26:01.001Z</time></trkpt><trkpt lat="44.76611345020342" lon="10.091786162826843"><ele>164.0</ele><time>2026-05-02T13:26:02.001Z</time></trkpt><trkpt lat="44.76620067430994" lon="10.09172311192006"><ele>164.0</ele><time>2026-05-02T13:26:03.001Z</time></trkpt><trkpt lat="44.76627163834569" lon="10.0916610682882"><ele>163.5</ele><time>2026-05-02T13:26:04.001Z</time></trkpt><trkpt lat="44.766340549904385" lon="10.091596923122395"><ele>163.0</ele><time>2026-05-02T13:26:06.001Z</time></trkpt><trkpt lat="44.76640669829979" lon="10.091548482828568"><ele>162.5</ele><time>2026-05-02T13:26:08.001Z</time></trkpt><trkpt lat="44.766481280025076" lon="10.091480699700483"><ele>162.0</ele><time>2026-05-02T13:26:12.001Z</time></trkpt><trkpt lat="44.766545508775216" lon="10.091402761361"><ele>161.5</ele><time>2026-05-02T13:26:15.001Z</time></trkpt><trkpt lat="44.76660657993449" lon="10.091265544328172"><ele>161.0</ele><time>2026-05-02T13:26:17.001Z</time></trkpt><trkpt lat="44.76663103819103" lon="10.091123052558217"><ele>160.83333333333331</ele><time>2026-05-02T13:26:19.001Z</time></trkpt><trkpt lat="44.76664718024308" lon="10.091025789476689"><ele>160.66666666666666</ele><time>2026-05-02T13:26:20.001Z</time></trkpt><trkpt lat="44.766664645551806" lon="10.09093575762629"><ele>160.5</ele><time>2026-05-02T13:26:21.001Z</time></trkpt><trkpt lat="44.766699374347226" lon="10.090786279995427"><ele>160.33333333333334</ele><time>2026-05-02T13:26:23.001Z</time></trkpt><trkpt lat="44.76673359413119" lon="10.090705874158646"><ele>160.16666666666669</ele><time>2026-05-02T13:26:24.001Z</time></trkpt><trkpt lat="44.766773991445305" lon="10.090616552970943"><ele>160.0</ele><time>2026-05-02T13:26:25.001Z</time></trkpt><trkpt lat="44.766822000657875" lon="10.090535285488517"><ele>161.0</ele><time>2026-05-02T13:26:26.001Z</time></trkpt><trkpt lat="44.76688602992739" lon="10.090467327242639"><ele>162.0</ele><time>2026-05-02T13:26:27.001Z</time></trkpt><trkpt lat="44.766965843282904" lon="10.090427273086975"><ele>163.0</ele><time>2026-05-02T13:26:28.001Z</time></trkpt><trkpt lat="44.76705387124412" lon="10.090420764492288"><ele>164.0</ele><time>2026-05-02T13:26:29.002Z</time></trkpt><trkpt lat="44.76715124239579" lon="10.090437473379527"><ele>165.0</ele><time>2026-05-02T13:26:30.002Z</time></trkpt><trkpt lat="44.76724982061513" lon="10.0904606449098"><ele>165.0</ele><time>2026-05-02T13:26:31.002Z</time></trkpt><trkpt lat="44.7673400803807" lon="10.090474096622152"><ele>165.0</ele><time>2026-05-02T13:26:32.002Z</time></trkpt><trkpt lat="44.76743809508107" lon="10.090480953959448"><ele>165.0</ele><time>2026-05-02T13:26:33.002Z</time></trkpt><trkpt lat="44.76751166951319" lon="10.09048153819628"><ele>165.0</ele><time>2026-05-02T13:26:34.002Z</time></trkpt><trkpt lat="44.767594601826524" lon="10.090475268024964"><ele>165.0</ele><time>2026-05-02T13:26:36.002Z</time></trkpt><trkpt lat="44.76767111916167" lon="10.09037540813585"><ele>165.0</ele><time>2026-05-02T13:26:52.002Z</time></trkpt><trkpt lat="44.76766349614314" lon="10.090277485614356"><ele>165.0</ele><time>2026-05-02T13:26:53.002Z</time></trkpt><trkpt lat="44.767667080871156" lon="10.090179156504176"><ele>165.0</ele><time>2026-05-02T13:26:54.002Z</time></trkpt><trkpt lat="44.76766866612789" lon="10.09005089271692"><ele>165.0</ele><time>2026-05-02T13:26:55.002Z</time></trkpt><trkpt lat="44.76766411360574" lon="10.089915180896027"><ele>165.0</ele><time>2026-05-02T13:26:56.002Z</time></trkpt><trkpt lat="44.76765617107042" lon="10.089758535922421"><ele>165.0</ele><time>2026-05-02T13:26:57.002Z</time></trkpt><trkpt lat="44.767640755141244" lon="10.08959259066357"><ele>165.25</ele><time>2026-05-02T13:26:58.002Z</time></trkpt><trkpt lat="44.767616125112106" lon="10.089425470459412"><ele>165.5</ele><time>2026-05-02T13:26:59.002Z</time></trkpt><trkpt lat="44.76758289369775" lon="10.089242647458061"><ele>165.75</ele><time>2026-05-02T13:27:00.002Z</time></trkpt><trkpt lat="44.7675472967857" lon="10.089074881895403"><ele>166.0</ele><time>2026-05-02T13:27:01.002Z</time></trkpt><trkpt lat="44.76751696584779" lon="10.088920912270947"><ele>166.60000000000002</ele><time>2026-05-02T13:27:02.003Z</time></trkpt><trkpt lat="44.76748798927585" lon="10.088774634951108"><ele>167.2</ele><time>2026-05-02T13:27:03.003Z</time></trkpt><trkpt lat="44.76745768884336" lon="10.088643425581685"><ele>167.8</ele><time>2026-05-02T13:27:04.003Z</time></trkpt><trkpt lat="44.767428932184934" lon="10.08851656025345"><ele>168.39999999999998</ele><time>2026-05-02T13:27:05.003Z</time></trkpt><trkpt lat="44.76739934566026" lon="10.088381006625893"><ele>169.0</ele><time>2026-05-02T13:27:06.003Z</time></trkpt><trkpt lat="44.767371767732946" lon="10.088252954562483"><ele>169.25</ele><time>2026-05-02T13:27:07.003Z</time></trkpt><trkpt lat="44.767341619168576" lon="10.088107340037979"><ele>169.5</ele><time>2026-05-02T13:27:08.003Z</time></trkpt><trkpt lat="44.76730664253552" lon="10.087949334107002"><ele>169.75</ele><time>2026-05-02T13:27:09.003Z</time></trkpt><trkpt lat="44.76727495884118" lon="10.087771426511603"><ele>170.0</ele><time>2026-05-02T13:27:10.003Z</time></trkpt><trkpt lat="44.767243277936174" lon="10.087585096420556"><ele>170.4</ele><time>2026-05-02T13:27:11.003Z</time></trkpt><trkpt lat="44.76721072609286" lon="10.087417502136896"><ele>170.8</ele><time>2026-05-02T13:27:12.003Z</time></trkpt><trkpt lat="44.76718217669854" lon="10.087278194602968"><ele>171.2</ele><time>2026-05-02T13:27:13.003Z</time></trkpt><trkpt lat="44.76715146300618" lon="10.08716480088805"><ele>171.6</ele><time>2026-05-02T13:27:14.003Z</time></trkpt><trkpt lat="44.76712811201661" lon="10.087058864561103"><ele>172.0</ele><time>2026-05-02T13:27:15.003Z</time></trkpt><trkpt lat="44.767104855863934" lon="10.086970149217844"><ele>172.0</ele><time>2026-05-02T13:27:16.003Z</time></trkpt><trkpt lat="44.76706801060529" lon="10.086804749563626"><ele>172.0</ele><time>2026-05-02T13:27:18.003Z</time></trkpt><trkpt lat="44.76703780340038" lon="10.086645254521244"><ele>172.0</ele><time>2026-05-02T13:27:20.003Z</time></trkpt><trkpt lat="44.76700447354251" lon="10.086492516713994"><ele>172.0</ele><time>2026-05-02T13:27:22.003Z</time></trkpt><trkpt lat="44.76695506213017" lon="10.086343217472141"><ele>172.25</ele><time>2026-05-02T13:27:24.003Z</time></trkpt><trkpt lat="44.766930493024184" lon="10.086230950759957"><ele>172.5</ele><time>2026-05-02T13:27:25.003Z</time></trkpt><trkpt lat="44.766919766897615" lon="10.086089165063246"><ele>172.75</ele><time>2026-05-02T13:27:26Z</time></trkpt><trkpt lat="44.76689843409526" lon="10.085917401334614"><ele>173.0</ele><time>2026-05-02T13:27:27Z</time></trkpt><trkpt lat="44.76685960770844" lon="10.08570057298269"><ele>172.33333333333331</ele><time>2026-05-02T13:27:28Z</time></trkpt><trkpt lat="44.76681199173667" lon="10.085449037648369"><ele>171.66666666666666</ele><time>2026-05-02T13:27:29Z</time></trkpt><trkpt lat="44.76675982120324" lon="10.085222750499796"><ele>171.0</ele><time>2026-05-02T13:27:30Z</time></trkpt><trkpt lat="44.7667008113145" lon="10.085003614043092"><ele>172.5</ele><time>2026-05-02T13:27:31Z</time></trkpt><trkpt lat="44.766667333502525" lon="10.084609935709059"><ele>174.0</ele><time>2026-05-02T13:27:32Z</time></trkpt><trkpt lat="44.766614034588" lon="10.084319447859087"><ele>174.33333333333334</ele><time>2026-05-02T13:27:33Z</time></trkpt><trkpt lat="44.766557208254866" lon="10.084026374248106"><ele>174.66666666666669</ele><time>2026-05-02T13:27:34Z</time></trkpt><trkpt lat="44.76649830569029" lon="10.083730735382881"><ele>175.0</ele><time>2026-05-02T13:27:35Z</time></trkpt><trkpt lat="44.76644422472282" lon="10.083438548356112"><ele>176.33333333333334</ele><time>2026-05-02T13:27:36Z</time></trkpt><trkpt lat="44.766384612631974" lon="10.083154501964799"><ele>177.66666666666666</ele><time>2026-05-02T13:27:37Z</time></trkpt><trkpt lat="44.76632322946551" lon="10.082868704608357"><ele>179.0</ele><time>2026-05-02T13:27:38Z</time></trkpt><trkpt lat="44.766267239778" lon="10.082586309477257"><ele>179.66666666666666</ele><time>2026-05-02T13:27:39Z</time></trkpt><trkpt lat="44.766217339715766" lon="10.082341668709686"><ele>180.33333333333334</ele><time>2026-05-02T13:27:40Z</time></trkpt><trkpt lat="44.76617245394288" lon="10.082128336947513"><ele>181.0</ele><time>2026-05-02T13:27:41Z</time></trkpt><trkpt lat="44.76612323740411" lon="10.08190046379694"><ele>181.0</ele><time>2026-05-02T13:27:42Z</time></trkpt><trkpt lat="44.766077899427636" lon="10.081664062955989"><ele>181.0</ele><time>2026-05-02T13:27:43Z</time></trkpt><trkpt lat="44.766032369706124" lon="10.081462662700917"><ele>181.0</ele><time>2026-05-02T13:27:44Z</time></trkpt><trkpt lat="44.76598162343654" lon="10.081251931246497"><ele>180.0</ele><time>2026-05-02T13:27:45Z</time></trkpt><trkpt lat="44.76593228662978" lon="10.08104408417479"><ele>179.0</ele><time>2026-05-02T13:27:46Z</time></trkpt><trkpt lat="44.765888730160924" lon="10.080857343729605"><ele>178.0</ele><time>2026-05-02T13:27:47Z</time></trkpt><trkpt lat="44.765845249821" lon="10.080668488653316"><ele>177.0</ele><time>2026-05-02T13:27:48Z</time></trkpt><trkpt lat="44.765810310991085" lon="10.080480364353557"><ele>177.0</ele><time>2026-05-02T13:27:49Z</time></trkpt><trkpt lat="44.76577628516767" lon="10.080277259967874"><ele>177.0</ele><time>2026-05-02T13:27:50Z</time></trkpt><trkpt lat="44.76573930192213" lon="10.080082215949151"><ele>177.0</ele><time>2026-05-02T13:27:51Z</time></trkpt><trkpt lat="44.7657038319394" lon="10.079914478033533"><ele>177.0</ele><time>2026-05-02T13:27:52Z</time></trkpt><trkpt lat="44.765657302764" lon="10.079757314723667"><ele>178.0</ele><time>2026-05-02T13:27:53Z</time></trkpt><trkpt lat="44.765599807732784" lon="10.07957462739474"><ele>179.0</ele><time>2026-05-02T13:27:54Z</time></trkpt><trkpt lat="44.76551809284557" lon="10.079378393845817"><ele>180.0</ele><time>2026-05-02T13:27:55.001Z</time></trkpt><trkpt lat="44.76541471980092" lon="10.079183831197584"><ele>181.0</ele><time>2026-05-02T13:27:56.001Z</time></trkpt><trkpt lat="44.76530326372689" lon="10.078981678912182"><ele>182.0</ele><time>2026-05-02T13:27:57.001Z</time></trkpt><trkpt lat="44.76518347778986" lon="10.078760346277225"><ele>183.0</ele><time>2026-05-02T13:27:58.001Z</time></trkpt><trkpt lat="44.76507531204705" lon="10.07855421791065"><ele>181.25</ele><time>2026-05-02T13:27:59.001Z</time></trkpt><trkpt lat="44.76498323493094" lon="10.078378259741632"><ele>179.5</ele><time>2026-05-02T13:28:00.001Z</time></trkpt><trkpt lat="44.76490426042159" lon="10.07821866560458"><ele>177.75</ele><time>2026-05-02T13:28:01.001Z</time></trkpt><trkpt lat="44.76483064565369" lon="10.078071779665901"><ele>176.0</ele><time>2026-05-02T13:28:02.001Z</time></trkpt><trkpt lat="44.76476446629099" lon="10.077923764341461"><ele>176.0</ele><time>2026-05-02T13:28:03.001Z</time></trkpt><trkpt lat="44.76470688234165" lon="10.077770605694836"><ele>176.0</ele><time>2026-05-02T13:28:04.001Z</time></trkpt><trkpt lat="44.764656143976936" lon="10.07758992023365"><ele>176.0</ele><time>2026-05-02T13:28:05.001Z</time></trkpt><trkpt lat="44.76463806897364" lon="10.077375411395877"><ele>176.0</ele><time>2026-05-02T13:28:06.001Z</time></trkpt><trkpt lat="44.76463113957672" lon="10.077145997338674"><ele>176.33333333333331</ele><time>2026-05-02T13:28:07.001Z</time></trkpt><trkpt lat="44.76464007198178" lon="10.076910221437842"><ele>176.66666666666666</ele><time>2026-05-02T13:28:08.001Z</time></trkpt><trkpt lat="44.76464704187553" lon="10.07664263203461"><ele>177.0</ele><time>2026-05-02T13:28:09.001Z</time></trkpt><trkpt lat="44.764650671081036" lon="10.076359101355628"><ele>177.0</ele><time>2026-05-02T13:28:10.001Z</time></trkpt><trkpt lat="44.76465302299454" lon="10.076042662688808"><ele>177.0</ele><time>2026-05-02T13:28:11.001Z</time></trkpt><trkpt lat="44.7646575832903" lon="10.07571038638691"><ele>177.33333333333334</ele><time>2026-05-02T13:28:12.001Z</time></trkpt><trkpt lat="44.764661535576444" lon="10.075428597737877"><ele>177.66666666666669</ele><time>2026-05-02T13:28:13.001Z</time></trkpt><trkpt lat="44.76466583426466" lon="10.075170557918327"><ele>178.0</ele><time>2026-05-02T13:28:14.001Z</time></trkpt><trkpt lat="44.76466953574794" lon="10.074922483003613"><ele>178.66666666666669</ele><time>2026-05-02T13:28:15.001Z</time></trkpt><trkpt lat="44.764673412360224" lon="10.074679474169585"><ele>179.33333333333334</ele><time>2026-05-02T13:28:16.001Z</time></trkpt><trkpt lat="44.76468384632952" lon="10.074414858574432"><ele>180.0</ele><time>2026-05-02T13:28:17.001Z</time></trkpt><trkpt lat="44.76469380464951" lon="10.074147246615928"><ele>181.33333333333334</ele><time>2026-05-02T13:28:18.001Z</time></trkpt><trkpt lat="44.76471442343881" lon="10.07390646300145"><ele>182.66666666666669</ele><time>2026-05-02T13:28:19.001Z</time></trkpt><trkpt lat="44.76474320203924" lon="10.073678898564133"><ele>184.0</ele><time>2026-05-02T13:28:20.001Z</time></trkpt><trkpt lat="44.764781408865225" lon="10.0734691553217"><ele>184.75</ele><time>2026-05-02T13:28:21.001Z</time></trkpt><trkpt lat="44.76481631846139" lon="10.073264451470331"><ele>185.5</ele><time>2026-05-02T13:28:22.001Z</time></trkpt><trkpt lat="44.76484447278594" lon="10.073057099521534"><ele>186.25</ele><time>2026-05-02T13:28:23.001Z</time></trkpt><trkpt lat="44.76487005249657" lon="10.072851666847193"><ele>187.0</ele><time>2026-05-02T13:28:24.001Z</time></trkpt><trkpt lat="44.76488867959901" lon="10.072651607746808"><ele>187.0</ele><time>2026-05-02T13:28:25.001Z</time></trkpt><trkpt lat="44.764895583554946" lon="10.072448628161242"><ele>187.0</ele><time>2026-05-02T13:28:26.001Z</time></trkpt><trkpt lat="44.764897629650754" lon="10.072248847057955"><ele>187.0</ele><time>2026-05-02T13:28:27.001Z</time></trkpt><trkpt lat="44.76489427507345" lon="10.072058175670783"><ele>187.0</ele><time>2026-05-02T13:28:28.001Z</time></trkpt><trkpt lat="44.76488354261094" lon="10.071871133424022"><ele>187.75</ele><time>2026-05-02T13:28:29.001Z</time></trkpt><trkpt lat="44.76486382466366" lon="10.07168871313148"><ele>188.5</ele><time>2026-05-02T13:28:30.001Z</time></trkpt><trkpt lat="44.76484248790757" lon="10.071503441586712"><ele>189.25</ele><time>2026-05-02T13:28:31.002Z</time></trkpt><trkpt lat="44.76482068343794" lon="10.071311424408206"><ele>190.0</ele><time>2026-05-02T13:28:32.002Z</time></trkpt><trkpt lat="44.76480014946872" lon="10.071122223574935"><ele>190.75</ele><time>2026-05-02T13:28:33.002Z</time></trkpt><trkpt lat="44.76477766983989" lon="10.070938331724477"><ele>191.5</ele><time>2026-05-02T13:28:34.002Z</time></trkpt><trkpt lat="44.76474998564647" lon="10.070763050664976"><ele>192.25</ele><time>2026-05-02T13:28:35.002Z</time></trkpt><trkpt lat="44.76472460251685" lon="10.07058570741573"><ele>193.0</ele><time>2026-05-02T13:28:36.002Z</time></trkpt><trkpt lat="44.7646994198317" lon="10.070400089797323"><ele>193.5</ele><time>2026-05-02T13:28:37.002Z</time></trkpt><trkpt lat="44.76467607029051" lon="10.070215249371676"><ele>194.0</ele><time>2026-05-02T13:28:38.002Z</time></trkpt><trkpt lat="44.76464974007624" lon="10.070031051171435"><ele>194.5</ele><time>2026-05-02T13:28:39.002Z</time></trkpt><trkpt lat="44.764619452431035" lon="10.06984509900446"><ele>195.0</ele><time>2026-05-02T13:28:40.002Z</time></trkpt><trkpt lat="44.76459282389091" lon="10.06966040146867"><ele>195.5</ele><time>2026-05-02T13:28:41.002Z</time></trkpt><trkpt lat="44.76457431710102" lon="10.069480429991547"><ele>196.0</ele><time>2026-05-02T13:28:42.002Z</time></trkpt><trkpt lat="44.76455393904885" lon="10.069313023945062"><ele>196.5</ele><time>2026-05-02T13:28:43.002Z</time></trkpt><trkpt lat="44.76452890876787" lon="10.06915427469103"><ele>197.0</ele><time>2026-05-02T13:28:44.002Z</time></trkpt><trkpt lat="44.76450404793763" lon="10.068984427487203"><ele>197.25</ele><time>2026-05-02T13:28:45.002Z</time></trkpt><trkpt lat="44.76447957655527" lon="10.06879262447698"><ele>197.5</ele><time>2026-05-02T13:28:46.002Z</time></trkpt><trkpt lat="44.764454188318915" lon="10.068585476014789"><ele>197.75</ele><time>2026-05-02T13:28:47.002Z</time></trkpt><trkpt lat="44.7644265550457" lon="10.068373375454243"><ele>198.0</ele><time>2026-05-02T13:28:48.002Z</time></trkpt><trkpt lat="44.76439851955076" lon="10.068177523152047"><ele>198.5</ele><time>2026-05-02T13:28:49.002Z</time></trkpt><trkpt lat="44.76437092488197" lon="10.067998108658571"><ele>199.0</ele><time>2026-05-02T13:28:50.002Z</time></trkpt><trkpt lat="44.76434272856294" lon="10.067815829218302"><ele>199.5</ele><time>2026-05-02T13:28:51.002Z</time></trkpt><trkpt lat="44.764319128208484" lon="10.06762826880077"><ele>200.0</ele><time>2026-05-02T13:28:52.002Z</time></trkpt><trkpt lat="44.76429879323714" lon="10.067449778148523"><ele>198.4</ele><time>2026-05-02T13:28:53.002Z</time></trkpt><trkpt lat="44.76428091484279" lon="10.067293114833522"><ele>196.8</ele><time>2026-05-02T13:28:54.002Z</time></trkpt><trkpt lat="44.76426262904275" lon="10.06714490308605"><ele>195.2</ele><time>2026-05-02T13:28:55.002Z</time></trkpt><trkpt lat="44.76424302269414" lon="10.067005853912812"><ele>193.6</ele><time>2026-05-02T13:28:56.002Z</time></trkpt><trkpt lat="44.7642210908965" lon="10.06686213934433"><ele>192.0</ele><time>2026-05-02T13:28:57.002Z</time></trkpt><trkpt lat="44.7641977681182" lon="10.066720449504865"><ele>192.25</ele><time>2026-05-02T13:28:58.002Z</time></trkpt><trkpt lat="44.76417078382194" lon="10.066576754309661"><ele>192.5</ele><time>2026-05-02T13:28:59.002Z</time></trkpt><trkpt lat="44.76414005837737" lon="10.066423940966164"><ele>192.75</ele><time>2026-05-02T13:29:00.002Z</time></trkpt><trkpt lat="44.76410090751071" lon="10.06625371568691"><ele>193.0</ele><time>2026-05-02T13:29:01.002Z</time></trkpt><trkpt lat="44.76405246702187" lon="10.066092231868154"><ele>193.0</ele><time>2026-05-02T13:29:02.002Z</time></trkpt><trkpt lat="44.7639877586169" lon="10.065934825854235"><ele>193.0</ele><time>2026-05-02T13:29:03.002Z</time></trkpt><trkpt lat="44.76391378809519" lon="10.065782726395602"><ele>193.0</ele><time>2026-05-02T13:29:04.002Z</time></trkpt><trkpt lat="44.76383862249491" lon="10.065648979241857"><ele>193.0</ele><time>2026-05-02T13:29:05.002Z</time></trkpt><trkpt lat="44.76376579025494" lon="10.065529107868437"><ele>192.0</ele><time>2026-05-02T13:29:06.002Z</time></trkpt><trkpt lat="44.76369672455907" lon="10.065409230662908"><ele>191.0</ele><time>2026-05-02T13:29:07.002Z</time></trkpt><trkpt lat="44.763622509571185" lon="10.065282609624155"><ele>190.0</ele><time>2026-05-02T13:29:08.002Z</time></trkpt><trkpt lat="44.76353923578942" lon="10.065139194556778"><ele>189.0</ele><time>2026-05-02T13:29:09.003Z</time></trkpt><trkpt lat="44.763459654089424" lon="10.065003796147746"><ele>190.33333333333334</ele><time>2026-05-02T13:29:10.003Z</time></trkpt><trkpt lat="44.763396779497995" lon="10.064884693745759"><ele>191.66666666666669</ele><time>2026-05-02T13:29:11.003Z</time></trkpt><trkpt lat="44.763345740323295" lon="10.064792220215631"><ele>193.0</ele><time>2026-05-02T13:29:12.003Z</time></trkpt><trkpt lat="44.763302880336276" lon="10.064719019680174"><ele>194.33333333333334</ele><time>2026-05-02T13:29:13.003Z</time></trkpt><trkpt lat="44.76325261746305" lon="10.0646165364284"><ele>195.66666666666669</ele><time>2026-05-02T13:29:15.003Z</time></trkpt><trkpt lat="44.763312302237566" lon="10.064520172158852"><ele>197.0</ele><time>2026-05-02T13:29:18.003Z</time></trkpt><trkpt lat="44.76336979456823" lon="10.064471295072535"><ele>197.00000000000003</ele><time>2026-05-02T13:29:19.003Z</time></trkpt><trkpt lat="44.76343716687911" lon="10.064420998667254"><ele>197.0</ele><time>2026-05-02T13:29:20.003Z</time></trkpt><trkpt lat="44.76350730545217" lon="10.064363191875925"><ele>197.0</ele><time>2026-05-02T13:29:21.003Z</time></trkpt><trkpt lat="44.76356907643241" lon="10.064304081832322"><ele>197.0</ele><time>2026-05-02T13:29:22.003Z</time></trkpt><trkpt lat="44.763630126797956" lon="10.064156331601838"><ele>197.00000000000003</ele><time>2026-05-02T13:29:24.003Z</time></trkpt><trkpt lat="44.763632384536216" lon="10.064064382366501"><ele>197.0</ele><time>2026-05-02T13:29:25.003Z</time></trkpt><trkpt lat="44.76360936856033" lon="10.063966697021648"><ele>198.0</ele><time>2026-05-02T13:29:26.003Z</time></trkpt><trkpt lat="44.76356020168329" lon="10.063851938376745"><ele>199.0</ele><time>2026-05-02T13:29:27.003Z</time></trkpt><trkpt lat="44.763493838282784" lon="10.063716464046294"><ele>200.0</ele><time>2026-05-02T13:29:28.003Z</time></trkpt><trkpt lat="44.7634390149774" lon="10.063604555414537"><ele>201.0</ele><time>2026-05-02T13:29:29.003Z</time></trkpt><trkpt lat="44.76343795144054" lon="10.063471918169604"><ele>202.0</ele><time>2026-05-02T13:29:31.003Z</time></trkpt><trkpt lat="44.76350750483497" lon="10.06344532462254"><ele>204.8</ele><time>2026-05-02T13:29:32Z</time></trkpt><trkpt lat="44.763589618103225" lon="10.06347718179918"><ele>207.6</ele><time>2026-05-02T13:29:33Z</time></trkpt><trkpt lat="44.76367522402492" lon="10.063550612132447"><ele>210.40000000000003</ele><time>2026-05-02T13:29:34Z</time></trkpt><trkpt lat="44.76375688957212" lon="10.06360790983342"><ele>213.20000000000002</ele><time>2026-05-02T13:29:35Z</time></trkpt><trkpt lat="44.763826343260455" lon="10.063625905343912"><ele>216.0</ele><time>2026-05-02T13:29:36Z</time></trkpt><trkpt lat="44.76390778760337" lon="10.063528149910969"><ele>216.0</ele><time>2026-05-02T13:29:38Z</time></trkpt><trkpt lat="44.763892791698204" lon="10.063414049932035"><ele>216.00000000000003</ele><time>2026-05-02T13:29:39Z</time></trkpt><trkpt lat="44.7638424732859" lon="10.063295830332507"><ele>216.00000000000003</ele><time>2026-05-02T13:29:40Z</time></trkpt><trkpt lat="44.76381630698254" lon="10.063209699500062"><ele>216.0</ele><time>2026-05-02T13:29:41Z</time></trkpt><trkpt lat="44.76391431821868" lon="10.063108512713649"><ele>216.0</ele><time>2026-05-02T13:29:43Z</time></trkpt><trkpt lat="44.76399422807957" lon="10.06315979702489"><ele>216.0</ele><time>2026-05-02T13:29:44Z</time></trkpt><trkpt lat="44.76406240906164" lon="10.063267851728094"><ele>216.00000000000003</ele><time>2026-05-02T13:29:45Z</time></trkpt><trkpt lat="44.764148811484205" lon="10.063393360391915"><ele>216.00000000000003</ele><time>2026-05-02T13:29:46Z</time></trkpt><trkpt lat="44.764223572852146" lon="10.063502130844274"><ele>216.0</ele><time>2026-05-02T13:29:47Z</time></trkpt><trkpt lat="44.764294491050734" lon="10.063578906184393"><ele>216.0</ele><time>2026-05-02T13:29:48Z</time></trkpt><trkpt lat="44.764357594850935" lon="10.063597813421772"><ele>216.8</ele><time>2026-05-02T13:29:49Z</time></trkpt><trkpt lat="44.76443439389422" lon="10.063574379409795"><ele>217.60000000000002</ele><time>2026-05-02T13:29:50Z</time></trkpt><trkpt lat="44.764486712713676" lon="10.063510556226257"><ele>218.4</ele><time>2026-05-02T13:29:51Z</time></trkpt><trkpt lat="44.76455089393254" lon="10.063367326392601"><ele>219.2</ele><time>2026-05-02T13:29:53Z</time></trkpt><trkpt lat="44.76457840123964" lon="10.063194792616262"><ele>220.0</ele><time>2026-05-02T13:29:55Z</time></trkpt><trkpt lat="44.764580968658464" lon="10.063028629015662"><ele>222.8</ele><time>2026-05-02T13:29:57Z</time></trkpt><trkpt lat="44.76458664650725" lon="10.062918867086795"><ele>225.6</ele><time>2026-05-02T13:29:58Z</time></trkpt><trkpt lat="44.76460172769108" lon="10.062773272745147"><ele>228.39999999999998</ele><time>2026-05-02T13:29:59Z</time></trkpt><trkpt lat="44.764618975588675" lon="10.06261623641986"><ele>231.2</ele><time>2026-05-02T13:30:00Z</time></trkpt><trkpt lat="44.764638201926225" lon="10.062456997984812"><ele>234.0</ele><time>2026-05-02T13:30:01.001Z</time></trkpt><trkpt lat="44.764651379463444" lon="10.062299968492978"><ele>237.79999999999998</ele><time>2026-05-02T13:30:02.001Z</time></trkpt><trkpt lat="44.76465803432291" lon="10.062165217930024"><ele>241.59999999999997</ele><time>2026-05-02T13:30:03.001Z</time></trkpt><trkpt lat="44.76463413007543" lon="10.062043012086866"><ele>245.4</ele><time>2026-05-02T13:30:04.001Z</time></trkpt><trkpt lat="44.76460306294477" lon="10.061915590439552"><ele>249.2</ele><time>2026-05-02T13:30:05.001Z</time></trkpt><trkpt lat="44.76454588653645" lon="10.061774630007152"><ele>253.0</ele><time>2026-05-02T13:30:06.001Z</time></trkpt><trkpt lat="44.764488611941886" lon="10.06167916854948"><ele>253.49999999999997</ele><time>2026-05-02T13:30:07.001Z</time></trkpt><trkpt lat="44.76441460765474" lon="10.061601671870772"><ele>254.0</ele><time>2026-05-02T13:30:08.001Z</time></trkpt><trkpt lat="44.76432325202219" lon="10.061533873265983"><ele>254.5</ele><time>2026-05-02T13:30:09.001Z</time></trkpt><trkpt lat="44.764239361354456" lon="10.061454720746994"><ele>255.0</ele><time>2026-05-02T13:30:10.001Z</time></trkpt><trkpt lat="44.76419636404073" lon="10.061380486280445"><ele>255.49999999999997</ele><time>2026-05-02T13:30:11.001Z</time></trkpt><trkpt lat="44.76416276011808" lon="10.061279394179618"><ele>256.0</ele><time>2026-05-02T13:30:12.001Z</time></trkpt><trkpt lat="44.76413060728826" lon="10.061152024782148"><ele>256.0</ele><time>2026-05-02T13:30:13.001Z</time></trkpt><trkpt lat="44.76410654340521" lon="10.06101165217078"><ele>256.0</ele><time>2026-05-02T13:30:14.001Z</time></trkpt><trkpt lat="44.7641142381946" lon="10.060852946002612"><ele>256.0</ele><time>2026-05-02T13:30:15.001Z</time></trkpt><trkpt lat="44.764127748566096" lon="10.060702449958146"><ele>256.0</ele><time>2026-05-02T13:30:16.001Z</time></trkpt><trkpt lat="44.76413683241713" lon="10.06051904489372"><ele>256.0</ele><time>2026-05-02T13:30:17.001Z</time></trkpt><trkpt lat="44.76415700867989" lon="10.060330812866129"><ele>256.0</ele><time>2026-05-02T13:30:18.001Z</time></trkpt><trkpt lat="44.7641773378431" lon="10.060154397118481"><ele>256.0</ele><time>2026-05-02T13:30:19.001Z</time></trkpt><trkpt lat="44.76418436180975" lon="10.060024836649632"><ele>256.0</ele><time>2026-05-02T13:30:20.001Z</time></trkpt><trkpt lat="44.7642108136435" lon="10.05992029886571"><ele>256.0</ele><time>2026-05-02T13:30:21.001Z</time></trkpt><trkpt lat="44.764260062178636" lon="10.059846056790986"><ele>256.66666666666663</ele><time>2026-05-02T13:30:22.001Z</time></trkpt><trkpt lat="44.76436472719658" lon="10.059875296072219"><ele>257.3333333333333</ele><time>2026-05-02T13:30:24.001Z</time></trkpt><trkpt lat="44.764351136995785" lon="10.06003266110135"><ele>258.0</ele><time>2026-05-02T13:30:26.001Z</time></trkpt><trkpt lat="44.76433198328252" lon="10.06011821261943"><ele>258.6666666666667</ele><time>2026-05-02T13:30:27.001Z</time></trkpt><trkpt lat="44.764332369829724" lon="10.060209369453421"><ele>259.33333333333337</ele><time>2026-05-02T13:30:28.001Z</time></trkpt><trkpt lat="44.76434170095264" lon="10.060297780160523"><ele>260.0</ele><time>2026-05-02T13:30:29.001Z</time></trkpt><trkpt lat="44.76438719331753" lon="10.060471665670963"><ele>262.2</ele><time>2026-05-02T13:30:31.001Z</time></trkpt><trkpt lat="44.76443466631999" lon="10.060536325902945"><ele>264.4</ele><time>2026-05-02T13:30:32.001Z</time></trkpt><trkpt lat="44.76448639688209" lon="10.060647221791905"><ele>266.6</ele><time>2026-05-02T13:30:33.001Z</time></trkpt><trkpt lat="44.764551787811314" lon="10.060784164719918"><ele>268.8</ele><time>2026-05-02T13:30:34.001Z</time></trkpt><trkpt lat="44.76461906253937" lon="10.060882211782568"><ele>271.0</ele><time>2026-05-02T13:30:35.001Z</time></trkpt><trkpt lat="44.76470288967488" lon="10.06093495138695"><ele>271.0</ele><time>2026-05-02T13:30:36.001Z</time></trkpt><trkpt lat="44.76478456617302" lon="10.060963831911096"><ele>271.0</ele><time>2026-05-02T13:30:37.001Z</time></trkpt><trkpt lat="44.764876672324704" lon="10.060956094959376"><ele>271.0</ele><time>2026-05-02T13:30:38.002Z</time></trkpt><trkpt lat="44.76497576698903" lon="10.06091931973101"><ele>271.0</ele><time>2026-05-02T13:30:39.002Z</time></trkpt><trkpt lat="44.76507345661071" lon="10.060861746927554"><ele>271.0</ele><time>2026-05-02T13:30:40.002Z</time></trkpt><trkpt lat="44.765159340147804" lon="10.060822374835647"><ele>271.40000000000003</ele><time>2026-05-02T13:30:41.002Z</time></trkpt><trkpt lat="44.76526386628396" lon="10.060792847948404"><ele>271.8</ele><time>2026-05-02T13:30:42.002Z</time></trkpt><trkpt lat="44.765363537613226" lon="10.060773341265737"><ele>272.20000000000005</ele><time>2026-05-02T13:30:43.002Z</time></trkpt><trkpt lat="44.76546388641512" lon="10.060769795198238"><ele>272.6</ele><time>2026-05-02T13:30:44.002Z</time></trkpt><trkpt lat="44.76555489079014" lon="10.060766119392573"><ele>273.0</ele><time>2026-05-02T13:30:45.002Z</time></trkpt><trkpt lat="44.76565939008338" lon="10.060782581238753"><ele>273.0</ele><time>2026-05-02T13:30:46.002Z</time></trkpt><trkpt lat="44.76578105542122" lon="10.060818347999264"><ele>273.0</ele><time>2026-05-02T13:30:47.002Z</time></trkpt><trkpt lat="44.76588634514503" lon="10.060889333466458"><ele>273.0</ele><time>2026-05-02T13:30:48.002Z</time></trkpt><trkpt lat="44.76601942726343" lon="10.0609911049825"><ele>273.0</ele><time>2026-05-02T13:30:49.002Z</time></trkpt><trkpt lat="44.76615233448166" lon="10.0611047284191"><ele>276.3333333333333</ele><time>2026-05-02T13:30:50.002Z</time></trkpt><trkpt lat="44.76629684914115" lon="10.061222011451765"><ele>279.66666666666663</ele><time>2026-05-02T13:30:51.002Z</time></trkpt><trkpt lat="44.76644408728817" lon="10.061357168168637"><ele>283.0</ele><time>2026-05-02T13:30:52.002Z</time></trkpt><trkpt lat="44.76658176968028" lon="10.061496348182756"><ele>283.0</ele><time>2026-05-02T13:30:53.002Z</time></trkpt><trkpt lat="44.7666896604152" lon="10.061610424639811"><ele>283.0</ele><time>2026-05-02T13:30:54.002Z</time></trkpt><trkpt lat="44.76677028057732" lon="10.061692090233475"><ele>283.0</ele><time>2026-05-02T13:30:55.002Z</time></trkpt><trkpt lat="44.7668423407279" lon="10.061751040488078"><ele>283.0</ele><time>2026-05-02T13:30:56.002Z</time></trkpt><trkpt lat="44.76695258982274" lon="10.061774195776998"><ele>283.0</ele><time>2026-05-02T13:30:58.002Z</time></trkpt><trkpt lat="44.7670096780701" lon="10.061683220001974"><ele>283.0</ele><time>2026-05-02T13:31:00.002Z</time></trkpt><trkpt lat="44.767019412034145" lon="10.061585423279382"><ele>283.0</ele><time>2026-05-02T13:31:01.002Z</time></trkpt><trkpt lat="44.76693009695567" lon="10.06140831128009"><ele>283.0</ele><time>2026-05-02T13:31:03.002Z</time></trkpt><trkpt lat="44.76686346154562" lon="10.061283595056064"><ele>283.0</ele><time>2026-05-02T13:31:04.002Z</time></trkpt><trkpt lat="44.76680388054632" lon="10.061133800729834"><ele>283.0</ele><time>2026-05-02T13:31:05.002Z</time></trkpt><trkpt lat="44.76674480132316" lon="10.060943366281437"><ele>283.0</ele><time>2026-05-02T13:31:06.002Z</time></trkpt><trkpt lat="44.76667182701666" lon="10.060710764306865"><ele>283.0</ele><time>2026-05-02T13:31:07.002Z</time></trkpt><trkpt lat="44.76659264993302" lon="10.06049304938993"><ele>284.75</ele><time>2026-05-02T13:31:08.002Z</time></trkpt><trkpt lat="44.76653974897667" lon="10.060322280489297"><ele>286.5</ele><time>2026-05-02T13:31:09.002Z</time></trkpt><trkpt lat="44.76651731446722" lon="10.06017984676965"><ele>288.25</ele><time>2026-05-02T13:31:10.002Z</time></trkpt><trkpt lat="44.76650679316581" lon="10.06003092649548"><ele>290.0</ele><time>2026-05-02T13:31:11.002Z</time></trkpt><trkpt lat="44.76651980751573" lon="10.059879728948726"><ele>292.0</ele><time>2026-05-02T13:31:12.002Z</time></trkpt><trkpt lat="44.766557332970734" lon="10.059728911202088"><ele>294.0</ele><time>2026-05-02T13:31:13.002Z</time></trkpt><trkpt lat="44.766592518753576" lon="10.059576518468852"><ele>296.0</ele><time>2026-05-02T13:31:14.002Z</time></trkpt><trkpt lat="44.76662239012674" lon="10.059420266949472"><ele>298.0</ele><time>2026-05-02T13:31:15.003Z</time></trkpt><trkpt lat="44.76664909163904" lon="10.059261414873465"><ele>299.25</ele><time>2026-05-02T13:31:16.003Z</time></trkpt><trkpt lat="44.766682872038295" lon="10.059108412991646"><ele>300.5</ele><time>2026-05-02T13:31:17.003Z</time></trkpt><trkpt lat="44.76670873813502" lon="10.058957513105144"><ele>301.75</ele><time>2026-05-02T13:31:18.003Z</time></trkpt><trkpt lat="44.766749319357935" lon="10.058778602321963"><ele>303.0</ele><time>2026-05-02T13:31:19.003Z</time></trkpt><trkpt lat="44.76678368838162" lon="10.058588988530882"><ele>303.0</ele><time>2026-05-02T13:31:20.003Z</time></trkpt><trkpt lat="44.76681439739149" lon="10.058396665649486"><ele>303.0</ele><time>2026-05-02T13:31:21.003Z</time></trkpt><trkpt lat="44.766858036589866" lon="10.058200242217307"><ele>303.0</ele><time>2026-05-02T13:31:22.003Z</time></trkpt><trkpt lat="44.766916162230686" lon="10.057986304510079"><ele>303.0</ele><time>2026-05-02T13:31:23.003Z</time></trkpt><trkpt lat="44.766958071146156" lon="10.057755559073685"><ele>301.3333333333333</ele><time>2026-05-02T13:31:24.003Z</time></trkpt><trkpt lat="44.76699928683243" lon="10.057515084650726"><ele>299.66666666666663</ele><time>2026-05-02T13:31:25.003Z</time></trkpt><trkpt lat="44.76704281300872" lon="10.057266221946911"><ele>298.0</ele><time>2026-05-02T13:31:26.003Z</time></trkpt><trkpt lat="44.76708068509262" lon="10.057032219395225"><ele>298.0</ele><time>2026-05-02T13:31:27.003Z</time></trkpt><trkpt lat="44.76711769024851" lon="10.05681758487521"><ele>298.0</ele><time>2026-05-02T13:31:28.003Z</time></trkpt><trkpt lat="44.767155557220114" lon="10.056596990428723"><ele>298.0</ele><time>2026-05-02T13:31:29.003Z</time></trkpt><trkpt lat="44.767188215738706" lon="10.056393495445684"><ele>299.75</ele><time>2026-05-02T13:31:30.003Z</time></trkpt><trkpt lat="44.76721931405669" lon="10.05621773877757"><ele>301.5</ele><time>2026-05-02T13:31:31.003Z</time></trkpt><trkpt lat="44.767247609907315" lon="10.05604655948551"><ele>303.25</ele><time>2026-05-02T13:31:32.003Z</time></trkpt><trkpt lat="44.767276739880295" lon="10.055902193665554"><ele>305.0</ele><time>2026-05-02T13:31:33.003Z</time></trkpt><trkpt lat="44.767312705593696" lon="10.05577642823843"><ele>303.2</ele><time>2026-05-02T13:31:34.003Z</time></trkpt><trkpt lat="44.76736520414974" lon="10.055673333494514"><ele>301.4</ele><time>2026-05-02T13:31:35.003Z</time></trkpt><trkpt lat="44.76743827073013" lon="10.055572934813721"><ele>299.6</ele><time>2026-05-02T13:31:36.003Z</time></trkpt><trkpt lat="44.76754804125006" lon="10.055469297657334"><ele>297.8</ele><time>2026-05-02T13:31:37.003Z</time></trkpt><trkpt lat="44.76763513348614" lon="10.055361897324218"><ele>296.0</ele><time>2026-05-02T13:31:38Z</time></trkpt><trkpt lat="44.76770272694263" lon="10.055242160370495"><ele>296.0</ele><time>2026-05-02T13:31:39Z</time></trkpt><trkpt lat="44.76776637034486" lon="10.055092804517502"><ele>296.0</ele><time>2026-05-02T13:31:40Z</time></trkpt><trkpt lat="44.76781750655219" lon="10.05492226708179"><ele>296.0</ele><time>2026-05-02T13:31:41Z</time></trkpt><trkpt lat="44.767867176265476" lon="10.054769052991045"><ele>296.0</ele><time>2026-05-02T13:31:42Z</time></trkpt><trkpt lat="44.76791438182643" lon="10.054644417672494"><ele>298.8</ele><time>2026-05-02T13:31:43Z</time></trkpt><trkpt lat="44.76796107131335" lon="10.054559805701828"><ele>301.6</ele><time>2026-05-02T13:31:44Z</time></trkpt><trkpt lat="44.768026856187454" lon="10.05446777004943"><ele>304.4</ele><time>2026-05-02T13:31:45Z</time></trkpt><trkpt lat="44.76809801090943" lon="10.054394831544027"><ele>307.2</ele><time>2026-05-02T13:31:46Z</time></trkpt><trkpt lat="44.76819360837285" lon="10.054321212304107"><ele>310.0</ele><time>2026-05-02T13:31:47Z</time></trkpt><trkpt lat="44.76828407398949" lon="10.054264400345364"><ele>310.0</ele><time>2026-05-02T13:31:48Z</time></trkpt><trkpt lat="44.768355855636564" lon="10.054213255141294"><ele>310.0</ele><time>2026-05-02T13:31:49Z</time></trkpt><trkpt lat="44.76842568701755" lon="10.05414387927135"><ele>310.0</ele><time>2026-05-02T13:31:50Z</time></trkpt><trkpt lat="44.76848117772874" lon="10.054067256196417"><ele>310.0</ele><time>2026-05-02T13:31:51Z</time></trkpt><trkpt lat="44.76854208543693" lon="10.053963685299877"><ele>310.0</ele><time>2026-05-02T13:31:52Z</time></trkpt><trkpt lat="44.768604240496344" lon="10.053857099320078"><ele>310.0</ele><time>2026-05-02T13:31:53Z</time></trkpt><trkpt lat="44.768665699468364" lon="10.05376982881083"><ele>312.2</ele><time>2026-05-02T13:31:54Z</time></trkpt><trkpt lat="44.76874924847242" lon="10.053712707545829"><ele>314.4</ele><time>2026-05-02T13:31:55Z</time></trkpt><trkpt lat="44.76884596090037" lon="10.053703450086307"><ele>316.6</ele><time>2026-05-02T13:31:56Z</time></trkpt><trkpt lat="44.76895589593072" lon="10.053752078118425"><ele>318.8</ele><time>2026-05-02T13:31:57Z</time></trkpt><trkpt lat="44.769051148088806" lon="10.05385121458199"><ele>321.0</ele><time>2026-05-02T13:31:58Z</time></trkpt><trkpt lat="44.76913371077693" lon="10.05398941151877"><ele>317.8</ele><time>2026-05-02T13:31:59Z</time></trkpt><trkpt lat="44.76922137335562" lon="10.054142574430438"><ele>314.6</ele><time>2026-05-02T13:32:00Z</time></trkpt><trkpt lat="44.76928217855047" lon="10.054287625170945"><ele>311.4</ele><time>2026-05-02T13:32:01Z</time></trkpt><trkpt lat="44.7693531098823" lon="10.054403206357764"><ele>308.2</ele><time>2026-05-02T13:32:02Z</time></trkpt><trkpt lat="44.76940973640156" lon="10.054464192530238"><ele>305.0</ele><time>2026-05-02T13:32:03Z</time></trkpt><trkpt lat="44.76952842232251" lon="10.054527808856127"><ele>304.0</ele><time>2026-05-02T13:32:05Z</time></trkpt><trkpt lat="44.7696188674793" lon="10.054498158236374"><ele>303.0</ele><time>2026-05-02T13:32:06Z</time></trkpt><trkpt lat="44.769705015721705" lon="10.054431977554145"><ele>302.0</ele><time>2026-05-02T13:32:07Z</time></trkpt><trkpt lat="44.76981657262086" lon="10.054305000228364"><ele>301.0</ele><time>2026-05-02T13:32:08Z</time></trkpt><trkpt lat="44.76992255230487" lon="10.054188647047821"><ele>304.25</ele><time>2026-05-02T13:32:09Z</time></trkpt><trkpt lat="44.77003326427983" lon="10.054109325070849"><ele>307.5</ele><time>2026-05-02T13:32:10Z</time></trkpt><trkpt lat="44.770140392352324" lon="10.054067092939565"><ele>310.75</ele><time>2026-05-02T13:32:11.001Z</time></trkpt><trkpt lat="44.770273615335235" lon="10.054055885448832"><ele>314.0</ele><time>2026-05-02T13:32:12.001Z</time></trkpt><trkpt lat="44.77040554275065" lon="10.054057936863883"><ele>314.0</ele><time>2026-05-02T13:32:13.001Z</time></trkpt><trkpt lat="44.770516737990384" lon="10.054072464552952"><ele>314.0</ele><time>2026-05-02T13:32:14.001Z</time></trkpt><trkpt lat="44.77062994675155" lon="10.054131778359977"><ele>314.0</ele><time>2026-05-02T13:32:15.001Z</time></trkpt><trkpt lat="44.77074741322855" lon="10.05419901248188"><ele>314.0</ele><time>2026-05-02T13:32:16.001Z</time></trkpt><trkpt lat="44.770841519421225" lon="10.054238158126779"><ele>312.0</ele><time>2026-05-02T13:32:17.001Z</time></trkpt><trkpt lat="44.770936078352655" lon="10.05425026076584"><ele>310.0</ele><time>2026-05-02T13:32:18.001Z</time></trkpt><trkpt lat="44.771011968962156" lon="10.05426743969588"><ele>308.0</ele><time>2026-05-02T13:32:19.001Z</time></trkpt><trkpt lat="44.771121378072564" lon="10.054244378167636"><ele>306.0</ele><time>2026-05-02T13:32:20.001Z</time></trkpt><trkpt lat="44.771218912158254" lon="10.05417926235945"><ele>304.0</ele><time>2026-05-02T13:32:21.001Z</time></trkpt><trkpt lat="44.77131944487492" lon="10.0540939050472"><ele>304.0</ele><time>2026-05-02T13:32:22.001Z</time></trkpt><trkpt lat="44.77144719146446" lon="10.05398341326166"><ele>304.0</ele><time>2026-05-02T13:32:23.001Z</time></trkpt><trkpt lat="44.7715943841273" lon="10.053885011491348"><ele>304.0</ele><time>2026-05-02T13:32:24.001Z</time></trkpt><trkpt lat="44.77170994470081" lon="10.05382097389462"><ele>304.0</ele><time>2026-05-02T13:32:25.001Z</time></trkpt><trkpt lat="44.77181996910914" lon="10.053795801274344"><ele>301.59999999999997</ele><time>2026-05-02T13:32:26.001Z</time></trkpt><trkpt lat="44.771935119638215" lon="10.053783053082627"><ele>299.2</ele><time>2026-05-02T13:32:27.001Z</time></trkpt><trkpt lat="44.77204933151768" lon="10.05376582171307"><ele>296.79999999999995</ele><time>2026-05-02T13:32:28.001Z</time></trkpt><trkpt lat="44.77214824080065" lon="10.053722093491169"><ele>294.4</ele><time>2026-05-02T13:32:29.001Z</time></trkpt><trkpt lat="44.772246661027495" lon="10.05365545653442"><ele>292.0</ele><time>2026-05-02T13:32:30.001Z</time></trkpt><trkpt lat="44.77232110399056" lon="10.05350901756956"><ele>292.0</ele><time>2026-05-02T13:32:31.001Z</time></trkpt><trkpt lat="44.77239774056902" lon="10.053330795946252"><ele>292.0</ele><time>2026-05-02T13:32:32.001Z</time></trkpt><trkpt lat="44.77248712526652" lon="10.053142141593238"><ele>292.0</ele><time>2026-05-02T13:32:33.001Z</time></trkpt><trkpt lat="44.77257625544933" lon="10.052934029307856"><ele>292.2</ele><time>2026-05-02T13:32:34.001Z</time></trkpt><trkpt lat="44.772640869656634" lon="10.052749911609293"><ele>292.4</ele><time>2026-05-02T13:32:35.001Z</time></trkpt><trkpt lat="44.77269832763821" lon="10.052628304047511"><ele>292.6</ele><time>2026-05-02T13:32:36.001Z</time></trkpt><trkpt lat="44.77273784948234" lon="10.05254656603136"><ele>292.8</ele><time>2026-05-02T13:32:37.001Z</time></trkpt><trkpt lat="44.77275535971484" lon="10.05245348302618"><ele>293.0</ele><time>2026-05-02T13:32:39.001Z</time></trkpt><trkpt lat="44.77267949251154" lon="10.052364775020646"><ele>302.0</ele><time>2026-05-02T13:32:41.001Z</time></trkpt><trkpt lat="44.77261562505345" lon="10.052309624718603"><ele>302.0</ele><time>2026-05-02T13:32:42.001Z</time></trkpt><trkpt lat="44.772560903280805" lon="10.052243228244635"><ele>302.0</ele><time>2026-05-02T13:32:43.001Z</time></trkpt><trkpt lat="44.77251780688282" lon="10.052176163342505"><ele>302.0</ele><time>2026-05-02T13:32:44.001Z</time></trkpt><trkpt lat="44.77244331859925" lon="10.052100421514563"><ele>302.0</ele><time>2026-05-02T13:32:46.002Z</time></trkpt><trkpt lat="44.77249810196363" lon="10.052031995251443"><ele>302.0</ele><time>2026-05-02T13:32:50.002Z</time></trkpt><trkpt lat="44.77247222273902" lon="10.051936335307946"><ele>302.0</ele><time>2026-05-02T13:32:54.002Z</time></trkpt></trkseg></trk></gpx>